[[{"header":{"parameterUnit":"m.s-1","parameterCategory":1,"la1":30.6,"la2":29.2853,"lo1":-89.7004,"lo2":-87.6739,"dy":0.0162,"dx":0.0183,"nx":112,"ny":82,"refTime":"2024-08-22T18:00:00:Z","depth":0,"parameterNumber":2,"parameterNumberName":"U-component_of_WINDS"},"data":[0.0,0.0,0.0,0.0,0.0,0.0,0.0,0.0,0.0,0.0,0.0,0.0,0.0,0.0,0.0,0.0,0.0,0.0,0.0,0.0,0.0,0.0,0.0,0.0,0.0,0.0,0.0,0.0,0.0,0.0,0.0,0.0,0.0,0.0,0.0,0.0,0.0,0.0,0.0,0.0,0.0,0.0,0.0,0.0,0.0,0.0,0.0,0.0,0.0,0.0,0.0,0.0,0.0,0.0,0.0,0.0,0.0,0.0,0.0,0.0,0.0,0.0,0.0,0.0,0.0,0.0,0.0,0.0,0.0,0.0,0.0,0.0,0.0,0.0,0.0,0.0,0.0,0.0,0.0,0.0,0.0,0.0,0.0,0.0,0.0,0.0,0.0,0.0,0.0,0.0,1.4199,1.5931,1.7862,1.8851,1.8517,1.8397,1.7154,1.4335,0.0,0.0,0.0,0.0,0.0,0.0,0.0,0.0,0.0,0.0,0.0,0.0,0.0,0.0,0.0,0.0,0.0,0.0,0.0,0.0,0.0,0.0,0.0,0.0,0.0,0.0,0.0,0.0,0.0,0.0,0.0,0.0,0.0,0.0,0.0,0.0,0.0,0.0,0.0,0.0,0.0,0.0,0.0,0.0,0.0,0.0,0.0,0.0,0.0,0.0,0.0,0.0,0.0,0.0,0.0,0.0,0.0,0.0,0.0,0.0,0.0,0.0,0.0,0.0,0.0,0.0,0.0,0.0,0.0,0.0,0.0,0.0,0.0,0.0,0.0,0.0,0.0,0.0,0.0,0.0,0.0,0.0,0.0,0.0,0.0,0.0,0.0,0.0,0.0,0.0,0.0,0.0,0.0,0.0,0.0,0.0,0.0,0.0,0.0,0.0,0.0,0.0,0.0,0.0,1.4402,1.7368,1.8651,1.9078,1.8544,1.8023,1.678,1.4589,0.0,0.0,0.0,0.0,0.0,0.0,0.0,0.0,0.0,0.0,0.0,0.0,0.0,0.0,0.0,0.0,0.0,0.0,0.0,0.0,0.0,0.0,0.0,0.0,0.0,0.0,0.0,0.0,0.0,0.0,0.0,0.0,0.0,0.0,0.0,0.0,0.0,0.0,0.0,0.0,0.0,0.0,0.0,0.0,0.0,0.0,0.0,0.0,0.0,0.0,0.0,0.0,0.0,0.0,0.0,0.0,0.0,0.0,0.0,0.0,0.0,0.0,0.0,0.0,0.0,0.0,0.0,0.0,0.0,0.0,0.0,0.0,0.0,0.0,0.0,0.0,0.0,0.0,0.0,0.0,0.0,0.0,0.0,0.0,0.0,0.0,0.0,0.0,0.0,0.0,0.0,0.0,0.0,0.0,0.0,0.0,0.0,0.0,0.0,0.0,0.0,0.0,0.0,1.4429,1.5805,1.825,1.9025,1.9189,1.8544,1.7929,1.6633,1.4429,1.3293,0.0,0.0,0.0,0.0,0.0,0.0,0.0,0.0,0.0,0.0,0.0,0.0,0.0,0.0,0.0,0.0,0.0,0.0,0.0,0.0,0.0,0.0,0.0,0.0,0.0,0.0,0.0,0.0,0.0,0.0,0.0,0.0,0.0,0.0,0.0,0.0,0.0,0.0,0.0,0.0,0.0,0.0,0.0,0.0,0.0,0.0,0.0,0.0,0.0,0.0,0.0,0.0,0.0,0.0,0.0,0.0,0.0,0.0,0.0,0.0,0.0,0.0,0.0,0.0,0.0,0.0,0.0,0.0,0.0,0.0,0.0,0.0,0.0,0.0,0.0,0.0,0.0,0.0,0.0,0.0,0.0,0.0,0.0,0.0,0.0,0.0,0.0,0.0,0.0,0.0,0.0,0.0,0.0,0.0,0.0,0.0,0.0,0.0,0.0,0.0,0.0,0.0,1.5738,1.6872,1.8701,1.9132,1.9052,1.8531,1.7609,1.6179,1.4108,1.2599,0.0,0.0,0.0,0.0,0.0,0.0,0.0,0.0,0.0,0.0,0.0,0.0,0.0,0.0,0.0,0.0,0.0,0.0,0.0,0.0,0.0,0.0,0.0,0.0,0.0,0.0,0.0,0.0,0.0,0.0,0.0,0.0,0.0,0.0,0.0,0.0,0.0,0.0,0.0,0.0,0.0,0.0,0.0,0.0,0.0,0.0,0.0,0.0,0.0,0.0,0.0,0.0,0.0,0.0,0.0,0.0,0.0,0.0,0.0,0.0,0.0,0.0,0.0,0.0,0.0,0.0,0.0,0.0,0.0,0.0,0.0,0.0,0.0,0.0,0.0,0.0,0.0,0.0,0.0,0.0,0.0,0.0,0.0,0.0,0.0,0.0,0.0,0.0,0.0,0.0,0.0,0.0,0.0,0.0,0.0,0.0,0.0,0.0,0.0,0.0,0.0,0.0,1.469,1.6493,1.8655,1.8945,1.8824,1.8517,1.6687,1.5017,1.3706,1.1495,0.0,0.0,0.0,0.0,0.0,0.0,0.0,0.0,0.0,0.0,0.0,0.0,0.0,0.0,0.0,0.0,0.0,0.0,0.0,0.0,0.0,0.0,0.0,0.0,0.0,0.0,0.0,0.0,0.0,0.0,0.0,0.0,0.0,0.0,0.0,0.0,0.0,0.0,0.0,0.0,0.0,0.0,0.0,0.0,0.0,0.0,0.0,0.0,0.0,0.0,0.0,0.0,0.0,0.0,0.0,0.0,0.0,0.0,0.0,0.0,0.0,0.0,0.0,0.0,0.0,0.0,0.0,0.0,0.0,0.0,0.0,0.0,0.0,0.0,0.0,0.0,0.0,0.0,0.0,0.0,0.0,0.0,0.0,0.0,0.0,0.0,0.0,0.0,0.0,0.0,0.0,0.0,0.0,0.0,0.0,0.0,0.0,0.0,0.0,0.0,0.0,0.0,1.3972,1.5167,1.6113,1.6922,1.7289,1.7018,1.5937,1.481,1.3678,0.0,0.0,0.0,0.0,0.0,0.0,0.0,0.0,0.0,0.0,0.0,0.0,0.0,0.0,0.0,0.0,0.0,0.0,0.0,0.0,0.0,0.0,0.0,0.0,0.0,0.0,0.0,0.0,0.0,0.0,0.0,0.0,0.0,0.0,0.0,0.0,0.0,0.0,0.0,0.0,0.0,0.0,0.0,0.0,0.0,0.0,0.0,0.0,0.0,0.0,0.0,0.0,0.0,0.0,0.0,0.0,0.0,0.0,0.0,0.0,0.0,0.0,0.0,0.0,0.0,0.0,0.0,0.0,0.0,0.0,0.0,0.0,0.0,0.0,0.0,0.0,0.0,0.0,0.0,0.0,0.0,0.0,0.0,0.0,0.0,0.0,0.0,0.0,0.0,0.0,0.0,0.0,0.0,0.0,0.0,0.0,0.0,0.0,0.0,0.0,0.0,0.0,1.2684,1.3237,1.3898,1.5242,1.5624,1.5669,1.5423,1.4503,1.3492,1.2494,0.0,0.0,0.0,0.0,0.0,0.0,0.0,0.0,0.0,0.0,0.0,0.0,0.0,0.0,0.0,0.0,0.0,0.0,0.0,0.0,0.0,0.0,0.0,0.0,0.0,0.0,0.0,0.0,0.0,0.0,0.0,0.0,0.0,0.0,0.0,0.0,0.0,0.0,0.0,0.0,0.0,0.0,0.0,0.0,0.0,0.0,0.0,0.0,0.0,0.0,0.0,0.0,0.0,0.0,0.0,0.0,0.0,0.0,0.0,0.0,0.0,0.0,0.0,0.0,0.0,0.0,0.0,0.0,0.0,0.0,0.0,0.0,0.0,0.0,0.0,0.0,0.0,0.0,0.0,0.0,0.0,0.0,0.0,0.0,0.0,0.0,0.0,0.0,0.0,0.0,0.0,0.0,0.0,0.0,0.0,0.0,0.0,0.0,0.0,0.0,0.0,0.0,1.3213,1.2432,1.289,1.6529,1.5263,1.4107,1.3895,1.2159,1.0742,0.0,0.0,0.0,0.0,0.0,0.0,0.0,0.0,0.0,0.0,0.0,0.0,0.0,0.0,0.0,0.0,0.0,0.0,0.0,0.0,0.0,0.0,0.0,0.0,0.0,0.0,0.0,0.0,0.0,0.0,0.0,0.0,0.0,0.0,0.0,0.0,0.0,0.0,0.0,0.0,0.0,0.0,0.0,0.0,0.0,0.0,0.0,0.0,0.0,0.0,0.0,0.0,0.0,0.0,0.0,0.0,0.0,0.0,0.0,0.0,0.0,0.0,0.0,0.0,0.0,0.0,0.0,0.0,0.0,0.0,0.0,0.0,0.0,0.0,0.0,0.0,0.0,0.0,0.0,0.0,0.0,0.0,0.0,0.0,0.0,0.0,0.0,0.0,0.0,0.0,0.0,0.0,0.0,0.0,0.0,0.0,0.0,0.0,0.0,0.0,0.0,0.0,0.0,1.1549,1.2388,1.2763,1.1987,1.2276,1.2436,1.2241,1.1424,1.0706,1.0156,0.0,0.0,0.0,0.0,0.0,0.0,0.0,0.0,0.0,0.0,0.0,0.0,0.0,0.0,0.0,0.0,0.0,0.0,0.0,0.0,0.0,0.0,0.0,0.0,0.0,0.0,0.0,0.0,0.0,0.0,0.0,0.0,0.0,0.0,0.0,0.0,0.0,0.0,0.0,0.0,0.0,0.0,0.0,0.0,0.0,0.0,0.0,0.0,0.0,0.0,0.0,0.0,0.0,0.0,0.0,0.0,0.0,0.0,0.0,0.0,0.0,0.0,0.0,0.0,0.0,0.0,0.0,0.0,0.0,0.0,0.0,0.0,0.0,0.0,0.0,0.0,0.0,0.0,0.0,0.0,0.0,0.0,0.0,0.0,0.0,0.0,0.0,0.0,0.0,0.0,0.0,0.0,0.0,0.0,0.0,0.0,0.0,0.0,0.0,0.0,0.0,0.0,1.0997,1.154,1.1678,1.0861,1.0868,1.0917,1.0747,1.0443,0.9935,0.9207,0.0,0.0,0.0,0.0,0.0,0.0,0.0,0.0,0.0,0.0,0.0,0.0,0.0,0.0,0.0,0.0,0.0,0.0,0.0,0.0,0.0,0.0,0.0,0.0,0.0,0.0,0.0,0.0,0.0,0.0,0.0,0.0,0.0,0.0,0.0,0.0,0.0,0.0,0.0,0.0,0.0,0.0,0.0,0.0,0.0,0.0,0.0,0.0,0.0,0.0,0.0,0.0,0.0,0.0,0.0,0.0,0.0,0.0,0.0,0.0,0.0,0.0,0.0,0.0,0.0,0.0,0.0,0.0,0.0,0.0,0.0,0.0,0.0,0.0,0.0,0.0,0.0,0.0,0.0,0.0,0.0,0.0,0.0,0.0,0.0,0.0,0.0,0.0,0.0,0.0,0.0,0.0,0.0,0.0,0.0,0.0,0.0,0.0,0.0,0.0,0.0,0.0,1.1159,1.0323,1.023,1.1848,1.0679,0.9781,0.9625,0.9327,0.8777,0.7706,0.0,0.0,0.0,0.0,0.0,0.0,0.0,0.0,0.0,0.0,0.0,0.0,0.0,0.0,0.0,0.0,0.0,0.0,0.0,0.0,0.0,0.0,0.0,0.0,0.0,0.0,0.0,0.0,0.0,0.0,0.0,0.0,0.0,0.0,0.0,0.0,0.0,0.0,0.0,0.0,0.0,0.0,0.0,0.0,0.0,0.0,0.0,0.0,0.0,0.0,0.0,0.0,0.0,0.0,0.0,0.0,0.0,0.0,0.0,0.0,1.2679,1.1623,0.0,0.0,0.0,0.0,0.0,0.0,0.0,0.0,0.0,0.0,0.0,0.0,0.0,0.0,0.0,0.0,0.0,0.0,0.0,0.0,0.0,0.0,0.0,0.0,0.0,0.0,0.0,0.0,0.0,0.0,0.0,0.0,0.0,0.0,0.0,0.0,0.0,0.0,0.0,0.0,1.0305,1.0988,1.1162,1.0526,1.0184,0.9835,0.9632,0.9327,0.8811,0.7948,0.7217,0.0,0.0,0.0,0.0,0.0,0.0,0.0,0.0,0.0,0.0,0.0,0.0,0.0,0.0,0.0,0.0,0.0,0.0,0.0,0.0,0.0,0.0,0.0,0.0,0.0,0.0,0.0,0.0,0.0,0.0,0.0,0.0,0.0,0.0,0.0,0.0,0.0,0.0,0.0,0.0,0.0,0.0,0.0,0.0,0.0,0.0,0.0,0.0,0.0,0.0,0.0,0.0,0.0,0.0,0.0,0.0,0.0,0.0,0.0,1.4977,1.3988,0.0,0.0,0.0,0.0,0.0,0.0,0.0,0.0,0.0,0.0,0.0,0.0,0.0,0.0,0.0,0.0,0.0,0.0,0.0,0.0,0.0,0.0,0.0,0.0,0.0,0.0,0.0,0.0,0.0,0.0,0.0,0.0,0.0,0.0,0.0,0.0,0.0,0.0,0.0,0.0,0.9384,1.0276,1.0753,1.0197,1.0031,0.9923,0.9775,0.9544,0.9144,0.8608,0.7875,0.0,0.0,0.0,0.0,0.0,0.0,0.0,0.0,0.0,0.0,0.0,0.0,0.0,0.0,0.0,0.0,0.0,0.0,0.0,0.0,0.0,0.0,0.0,0.0,0.0,0.0,0.0,0.0,0.0,0.0,0.0,0.0,0.0,0.0,0.0,0.0,0.0,0.0,0.0,0.0,0.0,0.0,0.0,0.0,0.0,0.0,0.0,0.0,0.0,0.0,0.0,0.0,0.0,1.7168,1.7675,1.8263,1.813,1.8263,1.8608,1.7435,1.678,1.65,1.5418,0.0,0.0,0.0,0.0,0.0,0.0,0.0,0.0,0.0,0.0,0.0,0.0,0.0,0.0,0.0,0.0,0.0,0.0,0.0,0.0,0.0,0.0,1.5965,1.6585,1.5851,1.4684,1.3599,0.0,0.0,0.0,0.0,0.0,0.0,0.0,0.0,0.0,0.0,0.0,0.875,0.9476,1.0032,1.029,1.0202,1.0044,0.999,0.9802,0.9517,0.9268,0.8567,0.8018,0.0,0.0,0.0,0.0,0.0,0.0,0.0,0.0,0.0,0.0,0.0,0.0,0.0,0.0,0.0,0.0,0.0,0.0,0.0,0.0,0.0,0.0,0.0,0.0,0.0,0.0,0.0,0.0,0.0,0.0,0.0,0.0,1.0519,1.1444,0.0,0.0,0.0,0.0,0.0,0.0,0.0,0.0,0.0,0.0,0.0,0.0,0.0,1.7152,1.7956,1.9052,1.9639,1.972,2.0748,2.1162,2.1105,2.1256,2.139,2.1456,2.1256,0.0,1.7702,1.7088,0.0,0.0,0.0,0.0,0.0,0.0,0.0,0.0,0.0,0.0,0.0,0.0,0.0,0.0,0.0,0.0,0.0,0.0,0.0,0.0,0.0,0.0,1.6924,1.5336,1.4952,1.4811,1.4191,1.243,1.0836,1.0426,0.97,0.8983,0.0,0.0,0.0,0.0,0.0,0.0,0.9248,0.9944,1.0419,1.046,1.0446,1.0331,1.0011,0.989,0.9666,0.9367,0.9015,0.8683,0.854,0.7855,0.0,0.0,0.0,0.0,0.0,0.0,0.0,0.0,0.0,0.0,0.0,0.0,0.0,0.0,0.0,0.0,0.0,0.0,0.0,0.0,0.0,0.0,0.0,0.0,0.0,0.0,0.0,0.0,0.0,1.0734,1.2087,1.2786,1.2786,1.2599,0.0,0.0,0.0,0.0,0.0,0.0,0.0,0.0,0.0,1.8023,1.8918,1.972,2.0454,2.1296,2.171,2.171,2.2231,2.2405,2.2365,2.2418,2.2485,2.2485,2.2485,2.1817,2.0668,1.9586,1.8599,1.7569,0.0,0.0,0.0,0.0,1.7221,1.7341,1.8424,1.8771,1.8597,1.7675,0.0,0.0,0.0,0.0,0.0,0.0,0.0,1.4516,1.4898,1.5552,1.6076,1.5718,1.4958,1.4223,1.3879,1.2092,1.0746,1.132,1.1029,1.0255,0.8974,0.8092,0.0,0.0,0.0,0.8913,0.9659,1.0188,1.0527,1.0609,1.0541,1.0439,1.031,1.0161,0.9985,0.9768,0.9557,0.9334,0.9096,0.8615,0.8076,0.0,0.0,0.0,0.0,0.0,0.0,0.0,0.0,0.0,0.0,0.0,0.0,0.0,0.0,0.0,0.0,0.0,0.0,0.0,0.0,0.0,0.0,0.0,0.0,0.0,0.0,0.0,0.0,1.2328,1.3548,1.3986,1.4549,1.4616,0.0,0.0,0.0,0.0,0.0,0.0,1.8023,1.8544,1.9332,2.0441,2.1256,2.1884,2.2325,2.234,2.2311,2.2311,2.1874,2.1632,2.1632,2.1625,2.1662,2.1732,2.2307,2.2479,2.2298,2.1502,2.0695,2.0013,1.972,1.9412,1.9239,1.9826,1.9595,1.9091,2.0348,2.0296,1.9522,1.8642,1.8111,1.7568,1.5833,0.0,0.0,0.0,0.0,1.3563,1.4471,1.4669,1.4791,1.4981,1.4079,1.3098,1.297,1.1843,1.1034,1.1719,1.1618,1.0948,0.9356,0.8585,0.0,0.8269,0.8757,0.9377,0.997,1.0365,1.0595,1.0711,1.0616,1.0534,1.0493,1.0365,1.0215,0.9997,0.9842,0.972,0.9503,0.9245,0.8866,0.8336,0.0,0.0,0.0,0.0,0.0,0.0,0.0,0.0,0.0,0.0,0.0,0.0,0.0,0.0,0.0,0.0,0.0,0.0,0.0,0.0,0.0,0.0,0.0,0.0,0.0,0.0,0.0,0.0,0.0,1.5271,1.6362,0.0,0.0,0.0,0.0,1.7341,1.7702,1.8651,2.0401,2.0788,2.1363,2.2258,2.2886,2.3233,2.326,2.1601,2.0791,2.0791,1.898,1.8124,1.8134,1.8251,1.8341,1.8501,2.0527,2.1293,2.1061,2.1971,2.2138,2.183,2.1601,2.1243,2.1042,2.163,2.0623,1.9084,1.9644,1.8571,1.6987,1.6795,1.6008,1.5183,1.5031,1.4602,0.0,0.0,1.5175,1.5135,1.4127,1.3832,1.3431,1.1833,1.1365,1.1296,1.1289,1.1214,1.1022,1.0522,1.0108,0.9854,0.9589,0.0,0.9354,0.9496,0.9727,1.0059,1.0243,1.0527,1.0711,1.0717,1.0711,1.0649,1.0507,1.0365,1.0215,0.9997,0.9842,0.9815,0.9802,0.9652,0.9422,0.9159,0.8228,0.0,0.0,0.0,0.0,0.0,0.0,0.0,0.0,0.0,0.0,0.0,0.0,0.0,0.0,0.0,0.0,0.0,0.0,0.0,0.0,0.0,0.0,0.0,0.0,0.0,0.0,0.0,0.0,1.7542,1.837,0.0,1.8156,1.837,1.8905,1.9786,2.0134,2.0909,2.2311,2.2485,2.2216,2.1422,2.1872,2.1481,2.0299,1.9865,1.9593,1.9593,1.8912,1.8645,1.8568,1.8648,1.8677,1.8755,1.9527,1.9793,1.9688,2.0036,2.0581,2.1044,1.9609,1.903,1.8974,1.9141,1.8785,1.817,1.841,1.796,1.7355,1.7055,1.6619,1.6176,1.6176,1.5267,1.4264,1.4518,1.38,1.2928,1.2592,1.2436,1.2221,1.1598,1.1457,1.143,1.1335,1.1307,1.1219,1.0907,1.0683,1.0439,1.01,1.0073,1.0053,0.9917,1.0148,1.0392,1.0541,1.0656,1.0717,1.0717,1.0717,1.0697,1.0643,1.05,1.031,1.0004,0.9842,0.9734,0.9544,0.949,0.9367,0.9214,0.8648,0.7977,0.0,0.0,0.0,0.0,0.0,0.0,0.0,0.0,0.0,0.0,0.0,0.0,0.0,0.0,0.0,0.0,0.0,0.0,0.0,0.0,0.0,0.0,0.0,0.0,0.0,1.6486,1.7929,1.8824,1.996,2.0494,2.0,2.0481,2.1122,2.1804,2.1447,2.1675,2.2607,2.2087,2.1301,2.0283,2.046,2.0004,1.8775,1.8211,1.7974,1.7974,1.7338,1.7057,1.7057,1.7119,1.7111,1.7253,1.7975,1.8286,1.8196,1.821,1.8592,1.9137,1.838,1.8126,1.8126,1.8126,1.7677,1.7002,1.6262,1.5931,1.5872,1.56,1.5424,1.5193,1.5193,1.4411,1.3504,1.3613,1.2707,1.1789,1.1884,1.1796,1.1687,1.1687,1.1653,1.1592,1.1491,1.147,1.1436,1.1335,1.1158,1.0928,1.0629,1.0616,1.0582,1.0385,1.048,1.0609,1.0711,1.0717,1.0717,1.0717,1.0717,1.0717,1.0717,1.0487,1.0283,1.0134,0.9842,0.9605,0.9462,0.9361,0.9316,0.9214,0.8811,0.8343,0.7794,0.0,0.0,0.0,0.0,0.0,0.0,0.0,0.0,0.0,0.0,0.0,0.0,0.0,0.0,0.0,0.0,0.0,0.0,0.0,0.0,0.0,0.0,0.0,1.5979,1.7943,1.9319,1.9078,2.1056,2.2111,2.1269,2.2165,2.2964,2.32,2.1507,2.0696,2.1279,1.9624,1.8697,1.8926,1.8936,1.8858,1.8877,1.6906,1.5964,1.5893,1.4084,1.3193,1.32,1.3349,1.3498,1.3718,1.5874,1.6693,1.6585,1.6575,1.64,1.6296,1.8138,1.8828,1.8828,1.8828,1.7581,1.5597,1.3483,1.2549,1.2311,1.2305,1.2203,1.2155,1.2081,1.2074,1.2074,1.2074,1.2149,1.2142,1.2142,1.1952,1.1837,1.1837,1.1735,1.1633,1.1626,1.1626,1.1626,1.1619,1.1382,1.1241,1.1241,1.105,1.0887,1.0887,1.0826,0.0,1.0724,1.0724,1.0724,1.0717,1.0717,1.0717,1.0717,1.0247,1.0114,1.0256,0.9707,0.9449,0.9598,0.932,0.9221,0.9228,0.8791,0.8513,0.8513,0.0,0.0,0.0,0.0,0.0,0.0,0.0,0.0,0.0,0.0,0.0,0.0,0.0,0.0,0.0,0.0,0.0,0.0,0.0,0.0,0.0,1.7395,1.8731,1.8437,1.9506,2.0681,2.1657,2.2352,2.2819,2.302,2.2061,2.1571,2.1922,2.0153,1.9278,1.9646,1.9176,1.8365,1.7135,1.7144,1.6548,1.5241,1.4671,1.4419,1.4419,1.3887,1.3654,1.3654,1.3702,1.3743,1.3783,1.4366,1.4621,1.4614,1.457,1.4527,1.4441,1.4577,1.4612,1.4612,1.4612,1.4301,1.3742,1.3148,1.2847,1.2759,1.2644,1.2583,1.2528,1.2413,1.2379,1.2379,1.2379,1.2305,1.223,1.223,1.2115,1.1999,1.1999,1.1965,1.1911,1.1796,1.1775,1.1742,1.164,1.1552,1.1457,1.1348,1.1206,1.1104,1.1104,1.107,1.1002,1.0833,1.082,1.0846,1.0731,1.0717,1.0717,1.0717,1.0412,1.0141,0.9958,0.9591,0.9401,0.9442,0.9361,0.9415,0.9632,0.9306,0.9137,0.0,0.0,0.0,0.0,0.0,0.0,0.0,0.0,0.0,0.0,0.0,0.0,0.0,0.0,0.0,0.0,0.0,0.0,0.0,0.0,0.0,0.0,1.9426,2.0788,2.1002,2.1349,2.1964,2.2939,2.2582,2.2418,2.2772,2.1175,2.0146,2.0364,1.8659,1.7706,1.791,1.7199,1.6343,1.531,1.5317,1.4828,1.3838,1.3838,1.3838,1.3838,1.3838,1.3838,1.3838,1.3838,1.3878,1.3939,1.3939,1.3973,1.4027,1.3966,1.3939,1.3899,0.0,0.0,0.0,0.0,1.32,1.3139,1.3071,1.301,1.2949,1.2854,1.2827,1.28,1.2644,1.2596,1.2583,1.2522,1.244,1.2379,1.2379,1.2271,1.2155,1.2155,1.2108,1.204,1.1945,1.1925,1.1884,1.1735,1.1708,0.0,1.1511,1.1362,1.126,1.126,1.1275,1.1131,1.105,1.0921,1.0847,1.0759,1.0758,1.0717,1.0717,1.0446,0.0,0.0,0.0,0.9537,0.9483,0.9476,0.0,0.0,0.0,0.0,0.0,0.0,0.0,0.0,1.0195,1.0426,0.0,0.0,0.0,0.0,0.0,0.0,0.0,0.0,0.0,0.0,0.0,0.0,0.0,0.0,0.0,0.0,2.1203,2.2364,2.2951,2.2858,2.2806,2.3082,2.1922,2.1089,2.1158,1.9646,1.872,1.875,1.6968,1.5959,1.6139,1.4572,0.0,0.0,0.0,1.3871,1.3892,1.3892,1.3892,1.3892,1.3892,1.3892,1.3892,1.3892,1.3966,1.4095,1.4095,1.4177,1.4292,1.4156,1.4095,1.4082,1.3905,1.3838,1.3824,1.3702,1.3566,1.3431,1.3295,0.0,0.0,1.3017,1.2996,1.2956,1.28,1.2759,1.2725,1.2589,1.2556,1.2549,1.2528,1.2433,1.2338,1.2318,1.221,1.2108,1.2169,1.2088,1.204,1.1884,1.1857,1.1809,1.1667,1.1518,1.1416,1.1416,1.1301,1.1206,1.1192,1.1077,1.0921,1.0907,1.0853,0.0,1.0772,1.0514,1.0399,1.0514,1.0141,0.9863,0.9741,0.9781,0.9998,1.0399,1.0548,1.09,1.147,1.1884,1.2196,1.2162,1.1212,1.1274,0.0,0.0,0.0,0.0,0.0,0.0,0.0,0.0,0.0,0.0,0.0,0.0,0.0,0.0,0.0,2.1052,2.2258,2.2714,2.1728,2.1642,2.1676,2.1736,2.0153,1.9094,1.9455,1.7841,1.6779,1.6854,1.5172,1.4182,1.4337,1.3954,1.3871,1.4021,1.4027,1.4089,1.4211,1.4211,1.4211,1.4211,1.4211,0.0,1.4211,1.4211,1.4224,1.4258,1.4258,1.4272,1.4299,1.4272,1.4258,1.4231,1.3946,1.3838,1.3838,1.381,1.3783,1.3749,1.3722,1.362,1.3478,1.3356,1.3234,1.3105,1.2963,1.2915,0.0,1.2881,1.2874,1.2847,1.2718,1.2664,1.2617,1.2488,1.244,1.2386,1.2271,1.2244,1.2203,1.2047,1.202,1.1972,1.1816,1.1674,1.1572,1.1572,1.1552,1.1484,1.1362,1.1321,1.126,1.1131,1.1097,1.1077,1.1077,1.0921,1.0778,1.0683,1.0595,1.0534,1.0507,1.0853,1.109,1.1172,1.1321,1.1579,1.1932,1.2142,1.2494,1.2949,1.263,1.2589,0.0,0.0,0.0,0.0,0.0,0.0,0.0,0.0,0.0,0.0,0.0,1.7956,1.9132,0.0,2.1096,2.1202,2.1894,2.1788,2.034,1.9284,1.9086,1.9973,1.8473,1.7359,1.756,1.5926,1.4901,1.4991,1.4147,1.3797,1.3946,1.3953,1.4027,1.4183,1.4183,1.4224,1.4299,1.4299,1.4299,1.4299,1.4299,1.4299,1.4299,1.4299,1.4299,1.4299,1.4299,1.4299,1.4299,1.4299,1.4299,1.4285,1.4129,1.4068,1.4061,1.3987,1.3953,1.3946,1.3865,1.3797,1.3709,1.3559,1.3464,1.3356,1.3132,1.3064,1.3051,1.2983,1.2963,1.2942,1.2868,1.2847,1.2807,1.2651,1.2617,1.2576,1.2427,1.2393,1.2352,1.2203,1.2176,1.2128,1.1972,1.1891,1.1789,1.164,1.1619,1.1592,1.1518,1.1436,1.1362,1.1287,1.1206,1.1234,1.1234,1.1097,1.1023,1.0948,1.0941,1.0975,1.105,1.1274,1.1457,1.1606,1.1837,1.206,1.2284,1.2664,1.2996,1.3288,1.3444,1.3519,0.0,0.0,0.0,0.0,0.0,0.0,0.0,1.5992,1.6767,1.829,1.9372,2.0286,2.0824,2.1592,2.1729,2.0608,2.0699,2.0342,1.8622,1.7029,1.6433,1.7523,1.6492,1.5667,1.5626,1.4448,1.3641,1.3668,1.3804,1.3953,1.4109,1.4116,1.417,1.4299,1.4299,1.4299,1.4299,1.4299,1.4299,1.4299,1.4299,1.4299,1.4299,1.4299,1.4299,1.4299,1.4299,1.4299,1.4299,1.4299,1.4299,1.4299,1.4299,1.4299,1.4285,1.4163,1.4116,1.4095,1.3973,1.3912,1.3865,1.3749,1.3675,1.3587,1.3336,1.3241,1.3193,1.3078,1.3051,1.3037,1.301,1.3003,1.2963,1.2813,1.2752,1.2698,1.2569,1.2522,1.2467,1.2352,1.2332,1.2284,1.2135,1.2108,1.2006,1.1708,1.166,1.1653,1.1619,1.1511,1.1436,1.1436,1.1321,1.1253,1.1253,1.1253,1.126,1.1294,1.1294,1.1362,1.1518,1.1552,1.1687,1.1959,1.2237,1.2461,1.263,1.3146,1.3431,1.3498,1.3885,1.4075,1.3187,1.3786,1.4629,1.5939,1.6139,1.6914,0.0,2.0374,2.0187,2.1911,2.2378,2.2036,2.0656,2.0733,2.0546,1.8943,1.9039,1.8622,1.6634,1.6168,1.5463,1.38,1.3556,1.3547,1.3686,1.3609,1.3682,1.3804,1.396,1.4116,1.4265,1.4272,1.4285,1.4299,1.4299,1.4299,1.4299,1.4299,1.4299,1.4299,1.4299,1.4299,1.4299,1.4299,1.4299,1.4299,1.4299,1.4299,1.4299,1.4299,1.4299,1.4299,1.4299,1.4299,1.4299,1.4278,1.4272,1.4272,1.4251,1.4156,1.4041,1.4027,1.3844,1.362,1.3587,1.3485,1.337,1.3356,1.3349,1.3322,1.3186,1.3152,1.3112,1.2969,1.2827,1.2725,1.2712,1.2596,1.2494,1.2481,1.2481,1.2433,1.2291,1.2264,1.2162,1.1857,1.1809,1.1762,1.1633,1.1606,1.1592,1.1592,1.1579,1.1565,1.1565,1.1565,1.1619,1.1748,1.1755,1.1823,1.1979,1.2115,1.2264,1.2427,1.2596,1.282,1.3098,1.3302,1.3539,1.3797,1.3987,1.4075,1.4484,1.5122,1.5821,1.7543,1.8544,1.92,1.961,2.0631,2.1136,1.9866,2.0875,2.1341,1.9413,1.9372,1.9074,1.7303,1.7178,1.6693,1.4726,1.4415,1.4004,1.313,1.3017,1.3105,1.3254,1.3559,1.3777,1.3838,1.4068,1.4231,1.4299,1.4299,1.4299,1.4299,1.4299,1.4299,1.4299,1.4299,1.4299,1.4299,1.4299,1.4299,1.4299,1.4299,1.4299,1.4299,1.4299,1.4299,1.4299,1.4299,1.4299,1.4299,1.4299,1.4299,1.4299,1.4299,1.4299,1.4299,1.4299,1.4258,1.419,1.4102,1.3987,1.3851,1.3682,1.3587,1.3512,1.3424,1.3403,1.339,1.3322,1.3308,1.3268,1.3119,1.3037,1.2963,1.2881,1.2745,1.2637,1.2637,1.2562,1.2481,1.2427,1.2413,1.2338,1.2128,1.202,1.1911,1.1762,1.1742,1.1708,1.1626,1.1619,1.1619,1.1619,1.1694,1.1769,1.183,1.1918,1.2033,1.2189,1.2338,1.2481,1.263,1.2868,1.3091,1.3308,1.3539,1.377,1.398,1.4136,1.4204,1.4456,1.5253,1.601,1.7547,1.8865,1.9553,1.8294,1.9628,2.0565,1.8135,1.9094,1.9804,1.7718,1.7644,1.7266,1.5366,1.5265,1.4896,1.3569,1.3173,1.301,1.2908,1.2861,1.2908,1.3098,1.3485,1.3749,1.3752,1.4089,1.4258,1.4299,1.4299,1.4299,1.4299,1.4299,1.4299,1.4299,1.4299,1.4299,1.4299,1.4299,1.4299,1.4299,1.4299,1.4299,1.4299,1.4299,1.4299,1.4299,1.4299,1.4299,1.4299,1.4299,1.4299,1.4299,1.4299,1.4299,1.4299,1.4299,1.4299,1.4285,1.417,1.4109,1.4034,1.3817,1.3695,1.3607,1.3498,1.3437,1.3403,1.3403,1.3403,1.337,1.3261,1.32,1.3146,1.3044,1.2416,1.1817,1.1858,1.1294,1.082,1.0785,1.0779,1.0981,1.1434,1.1409,1.1508,1.1844,1.1898,1.1857,1.1755,1.1742,1.1742,1.1742,1.1837,1.1911,1.1952,1.206,1.221,1.24,1.2508,1.2657,1.2847,1.3064,1.3268,1.3464,1.3715,1.3919,1.4075,1.4231,1.4299,1.2631,1.3582,1.4781,1.5278,1.6045,1.6917,1.7559,1.7953,1.8259,1.8491,1.8445,1.7783,1.5777,1.5489,1.5,1.3098,1.3063,1.3254,1.318,1.2929,1.2745,1.2739,1.2603,1.2637,1.2935,1.3241,1.3532,1.3817,1.3987,1.4143,1.4292,1.4299,1.4299,1.4299,1.4299,1.4299,1.4299,1.4299,1.4299,1.4299,1.4299,1.4299,1.4299,1.4299,1.4299,1.4299,1.4299,1.4299,1.4299,1.4299,1.4299,1.4299,1.4299,1.4299,1.4299,1.4299,1.4299,1.4299,1.4299,1.4299,1.4299,1.4292,1.419,1.4068,1.4061,1.3858,1.3627,1.3627,1.3512,1.3403,1.3403,1.3403,1.3397,1.3397,1.3281,1.3173,1.3166,1.1334,0.9677,0.9724,0.7952,0.6501,0.6502,0.6488,0.7189,0.9216,0.9521,1.0136,1.1863,1.2054,1.2054,1.2121,1.2047,1.2047,1.2047,1.2054,1.2121,1.2271,1.2284,1.2413,1.2705,1.2718,1.2861,1.3152,1.3166,1.3322,1.362,1.377,1.3919,1.4075,1.4231,1.4299,1.2205,1.3039,1.4125,1.573,1.6738,1.7096,1.6203,1.7254,1.765,1.4844,1.5274,1.5515,1.3248,1.3067,1.3112,1.2613,1.2834,1.3098,1.3295,1.3241,1.3064,1.2766,1.2861,1.2908,1.282,1.3078,1.341,1.381,1.3885,1.4027,1.4285,1.4299,1.4299,1.4299,1.4299,1.4299,1.4299,1.4299,1.4299,1.4299,1.4299,1.4299,1.4299,1.4299,1.4299,1.4299,1.4299,1.4299,1.4299,1.4299,1.4299,1.4299,1.4299,1.4299,1.4299,1.4299,1.4299,1.4299,1.4299,1.4299,1.4299,1.4299,1.4265,1.4204,1.4102,1.4,1.3885,1.3682,1.3593,1.3532,1.3424,1.3403,1.3403,1.3403,1.3363,1.2903,1.1405,1.0394,0.9317,0.7819,0.6875,0.6334,0.6264,0.7433,0.9066,1.1107,1.1407,1.1555,1.2148,1.2128,1.2135,1.2135,1.2135,1.2135,1.2135,1.2155,1.2277,1.242,1.2528,1.2671,1.2874,1.2976,1.3071,1.3173,1.337,1.3573,1.377,1.3919,1.4075,1.4224,1.4278,1.4299,1.1503,1.2183,1.2954,1.4664,1.5404,1.5497,1.435,1.5236,1.5469,1.255,1.2852,1.3159,1.1621,1.1491,1.1748,1.2264,1.2556,1.2881,1.3336,1.3308,1.3173,1.299,1.3044,1.3085,1.3057,1.3173,1.3417,1.381,1.3892,1.4034,1.4285,1.4299,1.4299,1.4299,1.4299,1.4299,1.4299,1.4299,1.4299,1.4299,1.4299,1.4299,1.4299,1.4299,1.4299,1.4299,1.4299,1.4299,1.4299,1.4299,1.4299,1.4299,1.4299,1.4299,1.421,1.3312,1.304,1.3135,1.4027,1.4299,1.4299,1.4299,1.4299,1.4285,1.4183,1.4116,1.4034,1.3844,1.3108,1.2583,1.3254,1.226,1.122,1.2056,1.1635,1.0632,0.9124,0.8157,0.7117,0.5607,0.467,0.4063,0.4018,0.6487,0.9099,1.1245,1.2109,1.2488,1.2379,1.2277,1.2216,1.2216,1.2271,1.2298,1.2298,1.244,1.2569,1.2657,1.2759,1.2881,1.303,1.3125,1.322,1.3336,1.3532,1.3729,1.3926,1.4021,1.415,1.4299,1.4299,1.4299,1.0622,1.0975,1.1389,1.2108,1.2291,1.2291,1.2277,1.2155,1.1952,1.1626,1.115,1.084,1.0806,1.0778,1.0995,1.1944,1.2176,1.2556,1.3295,1.3173,1.3105,1.3376,1.318,1.318,1.3587,1.3512,1.3553,1.3831,1.398,1.4129,1.4292,1.4299,1.4299,1.4299,1.4299,1.4299,1.4299,1.4299,1.421,1.4122,1.421,1.421,1.4122,1.421,1.4299,1.4299,1.4299,1.4299,1.4299,1.4299,1.4299,1.4299,1.4122,1.4122,1.385,1.1433,1.054,1.0806,1.3135,1.3938,1.3938,1.3938,1.3938,1.3938,1.4122,1.3927,1.3727,1.3894,1.2128,1.0572,1.2693,0.9968,0.7212,0.9378,0.8294,0.6707,0.6536,0.4863,0.3346,0.3145,0.1406,0.0,0.0163,0.3649,0.7282,0.9462,1.1653,1.2854,1.2562,1.2522,1.2522,1.2522,1.2657,1.2745,1.2745,1.2874,1.2963,1.2969,1.2969,1.3037,1.318,1.3186,1.3322,1.362,1.3634,1.3783,1.4075,1.4082,1.4156,1.4299,1.4299,1.4299,1.0962,1.1518,1.2047,1.2244,1.2291,1.2257,1.2149,1.1918,1.1552,1.0914,1.0602,1.031,0.9863,1.0202,1.0738,1.1301,1.1986,1.2671,1.3308,1.3526,1.3607,1.3573,1.3702,1.3749,1.3641,1.3797,1.3933,1.4007,1.3939,1.4021,1.4285,1.4299,1.4299,1.4299,1.4299,1.4299,1.4299,1.4299,1.3401,1.161,1.3401,1.3401,1.1699,1.3489,1.4299,1.4299,1.4299,1.4299,1.4299,1.4299,1.4299,1.4122,1.2325,1.161,1.1344,0.893,0.804,0.8129,0.8753,0.893,0.893,0.893,0.893,0.9286,1.1072,1.0337,0.9233,1.092,0.9628,0.7905,0.8377,0.7611,0.6843,0.7398,0.7081,0.6265,0.4621,0.3776,0.2853,0.1173,0.0416,0.0496,0.2057,0.4643,0.7202,0.9306,1.1579,1.2935,1.2854,1.2847,1.2847,1.2847,1.2881,1.2901,1.2901,1.2935,1.301,1.3112,1.3119,1.3186,1.3336,1.3342,1.3431,1.3627,1.3736,1.3878,1.4075,1.4183,1.4265,1.4299,1.4299,1.4299,1.1477,1.1959,1.2366,1.2305,1.2237,1.2081,1.1667,1.1341,1.0894,1.0073,0.9788,0.9544,0.9076,0.9544,1.0195,1.0772,1.1619,1.2488,1.3288,1.36,1.379,1.3912,1.4014,1.4034,1.3933,1.4075,1.417,1.417,1.4089,1.4116,1.4292,1.4299,1.4299,1.4299,1.4299,1.4299,1.4299,1.3224,1.2059,1.0717,1.0984,1.0984,1.0717,1.2059,1.3312,1.4299,1.4299,1.4299,1.4299,1.4299,1.4299,1.4033,1.161,1.0717,1.0268,0.679,0.5544,0.5454,0.4383,0.4027,0.4293,0.6436,0.7057,0.7324,0.8753,0.8219,0.7406,0.869,0.7325,0.5616,0.6586,0.5278,0.3975,0.4947,0.4429,0.3408,0.2203,0.1939,0.1513,0.0253,0.0,0.0667,0.2827,0.4296,0.6164,0.9284,1.0846,1.1999,1.3071,1.3044,1.2963,1.2963,1.3017,1.3057,1.3057,1.3119,1.3186,1.3268,1.3336,1.341,1.3498,1.3559,1.3668,1.3817,1.3899,1.4021,1.417,1.4258,1.4299,1.4299,1.4299,1.4299,1.2013,1.2291,1.2467,1.2325,1.2149,1.1809,1.1015,1.0622,1.0093,0.9275,0.8906,0.8703,0.8418,0.8872,0.9544,1.031,1.1185,1.2149,1.322,1.3519,1.3797,1.4245,1.4183,1.4156,1.4285,1.4299,1.4299,1.4299,1.4299,1.4299,1.4299,1.4299,1.4299,1.4299,1.4299,1.4299,1.4299,1.1876,1.0535,1.018,0.8129,0.804,0.9735,1.0446,1.1876,1.385,1.4122,1.4299,1.4299,1.4299,1.4299,1.4033,1.1255,1.018,0.9646,0.4919,0.3134,0.2866,0.0718,0.0,0.0718,0.4829,0.6165,0.6255,0.6522,0.6433,0.6255,0.6522,0.4974,0.353,0.5457,0.2978,0.0523,0.243,0.1381,0.0,0.0,0.0,0.0,0.0,0.0,0.0589,0.2604,0.3107,0.4612,0.854,0.9388,1.0404,1.2676,1.3023,1.3017,1.3017,1.3132,1.32,1.32,1.3322,1.341,1.3431,1.3553,1.3641,1.3654,1.3777,1.3912,1.4068,1.4075,1.415,1.4299,1.4299,1.4299,1.4299,1.3938,1.385,1.2169,1.2372,1.2467,1.2325,1.1993,1.1531,1.09,1.0141,0.9354,0.8634,0.8201,0.7957,0.7787,0.8343,0.911,0.9923,1.088,1.1877,1.3044,1.3451,1.3797,1.4245,1.4278,1.4272,1.4299,1.4299,1.4299,1.4299,1.4299,1.4299,1.4299,1.4299,1.4299,1.4299,1.4299,1.4299,1.4299,1.1876,0.9735,0.7684,0.7324,0.6347,0.5008,0.893,1.0895,1.1433,1.3401,1.4299,1.4299,1.4299,1.4299,1.385,0.9464,0.7684,0.7149,0.2419,0.0628,0.0538,0.018,0.0,0.018,0.0987,0.1256,0.1614,0.358,0.2776,0.1614,0.3669,0.2505,0.0714,0.1061,0.0621,0.0089,0.0524,0.0262,0.0,0.0,0.0,0.0,0.0,0.0,0.0084,0.0505,0.21,0.3608,0.4446,0.6081,0.815,1.0525,1.2337,1.3322,1.3322,1.3349,1.3363,1.3363,1.3383,1.3458,1.358,1.3614,1.3682,1.3797,1.3831,1.3912,1.4068,1.4075,1.415,1.4299,1.4299,1.4299,1.421,1.2237,1.1344,1.221,1.2393,1.2447,1.223,1.1837,1.126,1.0351,0.9564,0.8777,0.7868,0.7631,0.7516,0.7292,0.7984,0.8757,0.9266,1.0175,1.1233,1.2427,1.2922,1.3417,1.4102,1.4251,1.4299,1.4299,1.4299,1.4299,1.4299,1.4299,1.4299,1.4299,1.4299,1.4299,1.4299,1.4299,1.4299,1.4299,1.0629,0.8238,0.7024,0.4574,0.35,0.3699,0.6004,0.8421,1.0888,1.2062,1.3235,1.4407,1.4407,1.3642,1.2059,0.8486,0.6344,0.4829,0.1345,0.0,0.0,0.0,0.0,0.0,0.0,0.0,0.0179,0.1345,0.0897,0.0269,0.1434,0.0897,0.0,0.0,0.0,0.0,0.0,0.0,0.0,0.0,0.0,0.0,0.0,0.0,0.0,0.0,0.0852,0.2038,0.3241,0.4284,0.5756,0.8158,1.0423,1.2234,1.3358,1.3519,1.3519,1.3519,1.3519,1.358,1.3729,1.3817,1.3892,1.396,1.4034,1.4116,1.419,1.419,1.3601,1.2414,1.2414,1.1788,1.0535,0.9375,0.8842,1.221,1.2393,1.2433,1.2135,1.1674,1.1002,0.9869,0.9042,0.8248,0.7247,0.7163,0.7163,0.6923,0.7651,0.8357,0.8703,0.9537,1.0575,1.1837,1.2454,1.3091,1.3926,1.419,1.4299,1.4299,1.4299,1.4312,1.434,1.4373,1.4367,1.4306,1.4299,1.4299,1.4299,1.4299,1.4033,1.3489,0.9286,0.6828,0.6262,0.2072,0.0992,0.282,0.3337,0.5676,0.9337,0.9879,1.1421,1.3694,1.3662,1.2502,1.0446,0.804,0.5633,0.3312,0.0897,0.0,0.0,0.0,0.0,0.0,0.0,0.0,0.0,0.0,0.0,0.0,0.0,0.0,0.0,0.0,0.0,0.0,0.0,0.0,0.0,0.0,0.0,0.0,0.0,0.0,0.0,0.0,0.0,0.0603,0.2425,0.2606,0.3392,0.5738,0.7656,0.9711,1.193,1.3089,1.3675,1.3675,1.3675,1.3736,1.3878,1.4007,1.4089,1.4122,1.3791,1.3489,1.3489,1.3046,1.1788,0.9913,0.9913,0.893,0.7057,0.6611,0.6344,1.221,1.2393,1.2433,1.2135,1.1525,1.0678,0.9822,0.8716,0.7712,0.7038,0.6851,0.6797,0.6862,0.7231,0.7794,0.871,0.934,1.0181,1.1647,1.2481,1.3166,1.379,1.4122,1.4299,1.4299,1.4299,1.4353,1.4482,1.4618,1.4584,1.4312,1.4299,1.4299,1.4299,1.4299,1.3224,1.1072,0.8397,0.6021,0.3909,0.1262,0.009,0.0365,0.2637,0.3814,0.4363,0.6534,0.88,1.1056,1.1041,1.0905,1.0446,0.804,0.5633,0.3312,0.0897,0.0,0.0,0.0,0.0,0.0,0.0,0.0,0.0,0.0,0.0,0.0,0.0,0.0,0.0,0.0,0.0,0.0,0.0,0.0,0.0,0.0,0.0,0.0,0.0,0.0,0.0,0.0,0.0,0.0087,0.0261,0.0351,0.1146,0.3606,0.4079,0.5061,0.7283,1.129,1.3824,1.3824,1.3824,1.3885,1.4041,1.4061,1.4136,1.4272,1.2231,1.1072,1.1072,0.8842,0.7681,0.7413,0.7413,0.7324,0.7057,0.4919,0.3938,1.1755,1.206,1.2169,1.187,1.1301,1.0555,0.9564,0.8547,0.7645,0.7004,0.681,0.6749,0.6856,0.717,0.7329,0.7092,0.7264,0.7867,0.9198,0.9928,1.1001,1.2876,1.3519,1.3899,1.4265,1.4299,1.436,1.4502,1.4652,1.4652,1.4441,1.4428,1.4428,1.4428,1.4346,1.3135,1.0717,0.8308,0.5932,0.3545,0.1172,0.0,0.0,0.0996,0.2262,0.3729,0.4726,0.6447,0.8709,0.8673,0.7818,0.6347,0.5365,0.349,0.1345,0.0359,0.0,0.0,0.0,0.0,0.0,0.0,0.0,0.0,0.0,0.0,0.0,0.0,0.0,0.0,0.0,0.0,0.0,0.0,0.0,0.0,0.0,0.0,0.0,0.0,0.0,0.0,0.0,0.0,0.0,0.0,0.0,0.0357,0.1336,0.268,0.3932,0.4802,0.9053,1.1264,0.9778,1.0998,1.1226,0.993,0.9847,0.9871,1.0002,0.9019,0.8575,0.8575,0.7595,0.6433,0.5008,0.5008,0.4204,0.2776,0.1882,0.1434,1.1274,1.1674,1.187,1.1613,1.1029,1.0283,0.9419,0.8425,0.759,0.6997,0.6844,0.6803,0.6869,0.6859,0.6577,0.5919,0.5687,0.5929,0.6933,0.7953,0.94,1.1453,1.2642,1.3471,1.3987,1.4231,1.4407,1.4502,1.4652,1.4692,1.4584,1.4536,1.4489,1.4448,1.3629,1.2059,0.9646,0.7239,0.4855,0.2547,0.0811,0.0,0.0,0.0,0.0995,0.2639,0.2639,0.409,0.6265,0.6245,0.5221,0.358,0.358,0.215,0.0,0.0,0.0,0.0,0.0,0.0,0.0,0.0,0.0,0.0,0.0,0.0,0.0,0.0,0.0,0.0,0.0,0.0,0.0,0.0,0.0,0.0,0.0,0.0,0.0,0.0,0.0,0.0,0.0,0.0,0.0,0.0,0.0,0.0,0.0,0.1524,0.2509,0.2509,0.6124,0.8037,0.7068,0.8477,0.877,0.7232,0.7057,0.7057,0.7057,0.6436,0.6079,0.6079,0.5365,0.4206,0.2509,0.2509,0.1703,0.0,0.0,0.0,1.0833,1.128,1.1586,1.143,1.0717,0.9835,0.935,0.835,0.7475,0.6977,0.6883,0.6883,0.6883,0.6097,0.5506,0.5774,0.5093,0.4736,0.5331,0.7408,0.903,0.9361,1.157,1.3085,1.3383,1.4075,1.4509,1.4509,1.4652,1.474,1.474,1.459,1.4448,1.4306,1.1971,0.9557,0.7146,0.4829,0.2432,0.0,0.0,0.0,0.0,0.0,0.0,0.0,0.0,0.1366,0.3634,0.3597,0.3582,0.358,0.358,0.215,0.0,0.0,0.0,0.0,0.0,0.0,0.0,0.0,0.0,0.0,0.0,0.0,0.0,0.0,0.0,0.0,0.0,0.0,0.0,0.0,0.0,0.0,0.0,0.0,0.0,0.0,0.0,0.0,0.0,0.0,0.0,0.0,0.0,0.0,0.0,0.0,0.0,0.0,0.224,0.4561,0.6879,0.7146,0.7146,0.7057,0.7057,0.7057,0.7057,0.4829,0.3669,0.3669,0.1255,0.009,0.0,0.0,0.0,0.0,0.0,0.0,0.9424,0.9903,1.0161,0.9802,0.9444,0.9074,0.8526,0.7984,0.7502,0.7098,0.695,0.6916,0.7011,0.6124,0.5166,0.4438,0.3376,0.2775,0.318,0.4057,0.5838,0.9058,1.2062,1.3912,1.4007,1.4319,1.4509,1.4509,1.4652,1.4692,1.459,1.4536,1.3765,1.2001,1.1115,0.8753,0.474,0.3938,0.2423,0.0,0.0,0.0,0.0,0.0,0.0,0.0,0.0,0.0451,0.1172,0.1168,0.1166,0.1166,0.1166,0.0628,0.0,0.0,0.0,0.0,0.0,0.0,0.0,0.0,0.0,0.0,0.0,0.0,0.0,0.0,0.0,0.0,0.0,0.0,0.0,0.0,0.0,0.0,0.0,0.0,0.0,0.0,0.0,0.0,0.0,0.0,0.0,0.0,0.0,0.0,0.0,0.0,0.0,0.0,0.0718,0.1434,0.215,0.3759,0.4027,0.233,0.224,0.224,0.224,0.1524,0.1166,0.1166,0.0359,0.0,0.0,-0.1614,-0.2418,-0.2419,-0.0807,0.0,0.8513,0.8974,0.9218,0.8939,0.8811,0.8574,0.8089,0.7671,0.7373,0.7132,0.6984,0.693,0.7071,0.6194,0.5246,0.4483,0.3514,0.2658,0.2172,0.2963,0.5065,0.8908,1.2072,1.4,1.4116,1.4312,1.4455,1.4509,1.455,1.4557,1.4516,1.4462,1.289,0.9554,0.9353,0.7535,0.3669,0.2698,0.153,0.0,0.0,0.0,0.0,0.0,0.0,0.0,0.0,0.0,0.0,0.0,0.0,0.0,0.0,0.0,0.0,0.0,0.0,0.0,0.0,0.0,0.0,0.0,0.0,0.0,0.0,0.0,0.0,0.0,0.0,0.0,0.0,0.0,0.0,0.0,0.0,0.0,0.0,0.0,0.0,0.0,0.0,0.0,0.0,0.0,0.0,0.0,0.0,0.0,0.0,0.0,0.0,0.0,0.0,0.0,0.0,0.1345,0.1614,0.009,0.0,0.0,0.0,0.0,0.0,0.0,0.0,0.0,0.0,-0.1524,-0.224,-0.224,-0.0718,0.0,0.0,0.835,0.8615,0.8676,0.8465,0.8133,0.7928,0.7476,0.0,0.7065,0.697,0.6937,0.7112,0.6282,0.5606,0.5686,0.5041,0.3992,0.2466,0.4136,0.6441,0.9181,1.1876,1.3573,1.3844,1.4129,1.4353,1.4489,1.4373,1.436,1.4489,1.4373,1.2059,0.7235,0.7131,0.5872,0.3403,0.1087,0.0,0.0,0.0,0.0,0.0,0.0,0.0,0.0,0.0,0.0,0.0,0.0,0.0,0.0,0.0,0.0,0.0,0.0,0.0,0.0,0.0,0.0,0.0,0.0,0.0,0.0,0.0,0.0,0.0,0.0,0.0,0.0,0.0,0.0,0.0,0.0,0.0,0.0,0.0,0.0,0.0,0.0,0.0,0.0,0.0,0.0,0.0,0.0,0.0,0.0,0.0,0.0,0.0,0.0,0.0,0.0,0.0,0.0,0.0,0.0,0.0,0.0,0.0,0.0,0.0,0.0,0.0,-0.009,-0.0269,-0.009,-0.009,-0.0269,-0.009,0.0,0.66,0.0,0.7299,0.7102,0.7149,0.7204,0.0,0.6993,0.6903,0.6831,0.6871,0.7031,0.7563,0.6537,0.58,0.6366,0.5508,0.4781,0.4598,0.716,0.9397,1.0305,1.255,1.4116,1.4183,1.4258,1.4312,1.4346,1.4319,1.4312,1.4346,1.4319,1.2059,0.7235,0.7131,0.506,0.0897,0.027,0.0,0.0,0.0,0.0,0.0,0.0,0.0,0.0,0.0,0.0,0.0,0.0,0.0,0.0,0.0,0.0,0.0,0.0,0.0,0.0,0.0,0.0,0.0,0.0,0.0,0.0,0.0,0.0,0.0,0.0,0.0,0.0,0.0,0.0,0.0,0.0,0.0,0.0,0.0,0.0,0.0,0.0,0.0,0.0,0.0,0.0,0.0,0.0,0.0,0.0,0.0,0.0,0.0,0.0,0.0,0.0,0.0,0.0,0.0,0.0,0.0,0.0,0.0,0.0,0.0,0.0,0.0,-0.0897,-0.2776,-0.0897,-0.0987,-0.2687,-0.0897,0.0,0.5999,0.6525,0.6977,0.6993,0.7115,0.7217,0.7129,0.6966,0.6817,0.681,0.6883,0.7125,0.7631,0.7269,0.7116,0.7596,0.7529,0.7305,0.7166,0.9027,1.0492,1.0651,1.2863,1.4299,1.4299,1.4299,1.4299,1.4299,1.4299,1.4299,1.4299,1.4299,1.2059,0.7235,0.7097,0.4857,0.009,0.0,0.0,0.0,0.0,0.0,0.0,0.0,0.0,0.0,0.0,0.0,0.0,0.0,0.0,0.0,0.0,0.0,0.0,0.0,0.0,0.0,0.0,0.0,0.0,0.0,0.0,0.0,0.0,0.0,0.0,0.0,0.0,0.0,0.0,0.0,0.0,0.0,0.0,0.0,0.0,0.0,0.0,0.0,0.0,0.0,0.0,0.0,0.0,0.0,0.0,0.0,0.0,0.0,0.0,0.0,0.0,0.0,0.0,0.0,0.0,0.0,0.0,0.0,0.0,0.0,0.0,0.0,0.0,-0.0628,-0.1971,-0.0628,-0.0628,-0.1882,-0.0628,0.0,0.5867,0.658,0.7233,0.7428,0.7529,0.759,0.7543,0.7136,0.6803,0.6889,0.7051,0.7287,0.7733,0.8228,0.873,0.9114,0.9998,1.0416,0.9933,1.0547,1.1097,1.1202,1.304,1.4299,1.4299,1.3938,1.3938,1.4299,1.3584,1.3401,1.3761,1.3401,1.1161,0.67,0.6525,0.4472,0.0,0.0,0.0,0.0,0.0,0.0,0.0,0.0,0.0,0.0,0.0,0.0,0.0,0.0,0.0,0.0,0.0,0.0,0.0,0.0,0.0,0.0,0.0,0.0,0.0,0.0,0.0,0.0,0.0,0.0,0.0,0.0,0.0,0.0,0.0,0.0,0.0,0.0,0.0,0.0,0.0,0.0,0.0,0.0,0.0,0.0,0.0,0.0,0.0,0.0,0.0,0.0,0.0,0.0,0.0,0.0,0.0,0.0,0.0,0.0,0.0,0.0,0.0,0.0,0.0,0.0,0.0,0.0,0.0,0.0,0.0,0.0,0.0,0.0,0.0,0.0,0.6349,0.7122,0.757,0.6987,0.7224,0.7529,0.7227,0.7092,0.7038,0.7058,0.7333,0.7773,0.8534,0.8906,0.9401,1.0402,1.1396,1.2139,1.2677,1.3062,1.3382,1.3722,1.4033,1.4299,1.4299,1.2414,1.2059,1.4122,1.054,0.9108,1.1161,0.9286,0.6968,0.4206,0.4116,0.2776,0.0,0.0,0.0,0.0,0.0,0.0,0.0,0.0,0.0,0.0,0.0,0.0,0.0,0.0,0.0,0.0,0.0,0.0,0.0,0.0,0.0,0.0,0.0,0.0,0.0,0.0,0.0,0.0,0.0,0.0,0.0,0.0,0.0,0.0,0.0,0.0,0.0,0.0,0.0,0.0,0.0,0.0,0.0,0.0,0.0,0.0,0.0,0.0,0.0,0.0,0.0,0.0,0.0,0.0,0.0,0.0,0.0,0.0,0.0,0.0,0.0,0.0,0.0,0.0,0.0,0.0,0.0,0.0,0.0,0.0,0.0,0.0,0.0,0.0,0.0,0.0,0.6057,0.6817,0.7382,0.7326,0.7936,0.8506,0.8275,0.8106,0.7991,0.7991,0.8228,0.8587,0.9089,0.9557,1.0297,1.1579,1.2338,1.2969,1.3553,1.2698,1.2109,1.2302,1.1161,1.0446,1.0446,0.938,0.9197,1.0357,0.8397,0.7591,0.8664,0.7684,0.5987,0.3669,0.358,0.2419,0.0,0.0,0.0,0.0,0.0,0.0,0.0,0.0,0.0,0.0,0.0,0.0,0.0,0.0,0.0,0.0,0.0,0.0,0.0,0.0,0.0,0.0,0.0,0.0,0.0,0.0,0.0,0.0,0.0,0.0,0.0,0.0,0.0,0.0,0.0,0.0,0.0,0.0,0.0,0.0,0.0,0.0,0.0,0.0,0.0,0.0,0.0,0.0,0.0,0.0,0.0,0.0,0.0,0.0,0.0,0.0,0.0,0.0,0.0,0.0,0.0,0.0,0.0,0.0,0.0,0.0,0.0,0.0,0.0,0.0,0.0,0.0,0.0,0.0,0.0,0.0,0.5935,0.662,0.7319,0.7841,0.8574,0.9191,0.9344,0.9055,0.8866,0.9042,0.9259,0.9521,0.9612,1.031,1.1101,1.1715,1.2198,1.2445,1.219,1.0775,0.9731,0.9815,0.8219,0.7057,0.7057,0.6611,0.6522,0.7057,0.6079,0.5722,0.6255,0.5719,0.4651,0.2776,0.2776,0.1882,0.0,0.0,0.0,0.0,0.0,0.0,0.0,0.0,0.0,0.0,0.0,0.0,0.0,0.0,0.0,0.0,0.0,0.0,0.0,0.0,0.0,0.0,0.0,0.0,0.0,0.0,0.0,0.0,0.0,0.0,0.0,0.0,0.0,0.0,0.0,0.0,0.0,0.0,0.0,0.0,0.0,0.0,0.0,0.0,0.0,0.0,0.0,0.0,0.0,0.0,0.0,0.0,0.0,0.0,0.0,0.0,0.0,0.0,0.0,0.0,0.0,0.0,0.0,0.0,0.0,0.0,0.0,0.0,0.0,0.0,0.0,0.0,0.0,0.0,0.0,0.0,0.658,0.7095,0.7529,0.8255,0.8492,0.8764,0.9585,0.9435,0.9378,1.0025,1.0188,1.0243,1.0385,1.1253,1.1478,0.985,1.0138,0.9779,0.7713,0.7357,0.7321,0.7324,0.7235,0.7057,0.7057,0.5097,0.474,0.6968,0.3045,0.1524,0.3759,0.1703,0.0449,0.0269,0.0269,0.018,0.0,0.0,0.0,0.0,0.0,0.0,0.0,0.0,0.0,0.0,0.0,0.0,0.0,0.0,0.0,0.0,0.0,0.0,0.0,0.0,0.0,0.0,0.0,0.0,0.0,0.0,0.0,0.0,0.0,0.0,0.0,0.0,0.0,0.0,0.0,0.0,0.0,0.0,0.0,0.0,0.0,0.0,0.0,0.0,0.0,0.0,0.0,0.0,0.0,0.0,0.0,0.0,0.0,0.0,0.0,0.0,0.0,0.0,0.0,0.0,0.0,0.0,0.0,0.0,0.0,0.0,0.0,0.0,0.0,0.0,0.0,0.0,0.0,0.0,0.0,0.0,0.6071,0.679,0.7576,0.8238,0.8696,0.9225,0.9944,1.0256,1.0561,1.1131,1.1321,1.1402,1.1457,1.187,1.1619,0.9819,0.9958,0.9567,0.7353,0.5795,0.4919,0.4919,0.358,0.2687,0.2687,0.1882,0.1703,0.2597,0.0987,0.0359,0.1345,0.0538,0.0,0.0,0.0,0.0,0.0,0.0,0.0,0.0,0.0,0.0,0.0,0.0,0.0,0.0,0.0,0.0,0.0,0.0,0.0,0.0,0.0,0.0,0.0,0.0,0.0,0.0,0.0,0.0,0.0,0.0,0.0,0.0,0.0,0.0,0.0,0.0,0.0,0.0,0.0,0.0,0.0,0.0,0.0,0.0,0.0,0.0,0.0,0.0,0.0,0.0,0.0,0.0,0.0,0.0,0.0,0.0,0.0,0.0,0.0,0.0,0.0,0.0,0.0,0.0,0.0,0.0,0.0,0.0,0.0,0.0,0.0,0.0,0.0,0.0,0.0,0.0,0.0,0.0,0.0,0.0,0.6003,0.6749,0.7597,0.8248,0.8933,0.9659,1.0453,1.0907,1.1341,1.1986,1.2088,1.2162,1.2182,1.1713,1.0618,0.8861,0.8315,0.732,0.5172,0.349,0.2418,0.2418,0.0987,0.0,0.0,0.0,0.0,0.0,0.0,0.0,0.0,0.0,0.0,0.0,0.0,0.0,0.0,0.0,0.0,0.0,0.0,0.0,0.0,0.0,0.0,0.0,0.0,0.0,0.0,0.0,0.0,0.0,0.0,0.0,0.0,0.0,0.0,0.0,0.0,0.0,0.0,0.0,0.0,0.0,0.0,0.0,0.0,0.0,0.0,0.0,0.0,0.0,0.0,0.0,0.0,0.0,0.0,0.0,0.0,0.0,0.0,0.0,0.0,0.0,0.0,0.0,0.0,0.0,0.0,0.0,0.0,0.0,0.0,0.0,0.0,0.0,0.0,0.0,0.0,0.0,0.0,0.0,0.0,0.0,0.0,0.0,0.0,0.0,0.0,0.0,0.0,0.0,0.662,0.7143,0.7787,0.8526,0.9171,0.9937,1.1124,1.128,1.147,1.2522,1.2379,1.2162,1.2454,1.0526,0.8306,0.6556,0.4611,0.2534,0.0268,0.0,0.0,0.0,0.0,0.0,0.0,0.0,0.0,0.0,0.0,0.0,0.0,0.0,0.0,0.0,0.0,0.0,0.0,0.0,0.0,0.0,0.0,0.0,0.0,0.0,0.0,0.0,0.0,0.0,0.0,0.0,0.0,0.0,0.0,0.0,0.0,0.0,0.0,0.0,0.0,0.0,0.0,0.0,0.0,0.0,0.0,0.0,0.0,0.0,0.0,0.0,0.0,0.0,0.0,0.0,0.0,0.0,0.0,0.0,0.0,0.0,0.0,0.0,0.0,0.0,0.0,0.0,0.0,0.0,0.0,0.0,0.0,0.0,0.0,0.0,0.0,0.0,0.0,0.0,0.0,0.0,0.0,0.0,0.0,0.0,0.0,0.0,0.0,0.0,0.0,0.0,0.0,0.0,0.6559,0.7292,0.8201,0.8737,0.9795,1.088,1.1545,1.1837,1.2196,1.303,1.2929,1.2718,1.2807,1.0936,0.8698,0.6673,0.4641,0.2556,0.0358,0.0,0.0,0.0,0.0,0.0,0.0,0.0,0.0,0.0,0.0,0.0,0.0,0.0,0.0,0.0,0.0,0.0,0.0,0.0,0.0,0.0,0.0,0.0,0.0,0.0,0.0,0.0,0.0,0.0,0.0,0.0,0.0,0.0,0.0,0.0,0.0,0.0,0.0,0.0,0.0,0.0,0.0,0.0,0.0,0.0,0.0,0.0,0.0,0.0,0.0,0.0,0.0,0.0,0.0,0.0,0.0,0.0,0.0,0.0,0.0,0.0,0.0,0.0,0.0,0.0,0.0,0.0,0.0,0.0,0.0,0.0,0.0,0.0,0.0,0.0,0.0,0.0,0.0,0.0,0.0,0.0,0.0,0.0,0.0,0.0,0.0,0.0,0.0,0.0,0.0,0.0,0.0,0.0,0.7177,0.7977,0.8879,0.9505,1.0453,1.1355,1.2108,1.2467,1.2786,1.3295,1.2507,1.169,1.18,0.9169,0.6512,0.5327,0.3371,0.1586,0.0179,0.0,0.0,0.0,0.0,0.0,0.0,0.0,0.0,0.0,0.0,0.0,0.0,0.0,0.0,0.0,0.0,0.0,0.0,0.0,0.0,0.0,0.0,0.0,0.0,0.0,0.0,0.0,0.0,0.0,0.0,0.0,0.0,0.0,0.0,0.0,0.0,0.0,0.0,0.0,0.0,0.0,0.0,0.0,0.0,0.0,0.0,0.0,0.0,0.0,0.0,0.0,0.0,0.0,0.0,0.0,0.0,0.0,0.0,0.0,0.0,0.0,0.0,0.0,0.0,0.0,0.0,0.0,0.0,0.0,0.0,0.0,0.0,0.0,0.0,0.0,0.0,0.0,0.0,0.0,0.0,0.0,0.0,0.0,0.0,0.0,0.0,0.0,0.0,0.0,0.0,0.0,0.0,0.0,0.8187,0.8893,0.9632,1.0604,1.1111,1.1657,1.2718,1.3078,1.3214,1.337,1.1371,0.9723,1.0009,0.6183,0.3056,0.3354,0.1475,0.0,0.0,0.0,0.0,0.0,0.0,0.0,0.0,0.0,0.0,0.0,0.0,0.0,0.0,0.0,0.0,0.0,0.0,0.0,0.0,0.0,0.0,0.0,0.0,0.0,0.0,0.0,0.0,0.0,0.0,0.0,0.0,0.0,0.0,0.0,0.0,0.0,0.0,0.0,0.0,0.0,0.0,0.0,0.0,0.0,0.0,0.0,0.0,0.0,0.0,0.0,0.0,0.0,0.0,0.0,0.0,0.0,0.0,0.0,0.0,0.0,0.0,0.0,0.0,0.0,0.0,0.0,0.0,0.0,0.0,0.0,0.0,0.0,0.0,0.0,0.0,0.0,0.0,0.0,0.0,0.0,0.0,0.0,0.0,0.0,0.0,0.0,0.0,0.0,0.0,0.0,0.0,0.0,0.0,0.0,0.7841,0.8655,0.9605,1.0534,1.1497,1.2372,1.299,1.3152,1.3214,1.337,1.1511,0.9906,1.0034,0.6305,0.3218,0.3334,0.1468,0.0,0.0,0.0,0.0,0.0,0.0,0.0,0.0,0.0,0.0,0.0,0.0,0.0,0.0,0.0,0.0,0.0,0.0,0.0,0.0,0.0,0.0,0.0,0.0,0.0,0.0,0.0,0.0,0.0,0.0,0.0,0.0,0.0,0.0,0.0,0.0,0.0,0.0,0.0,0.0,0.0,0.0,0.0,0.0,0.0,0.0,0.0,0.0,0.0,0.0,0.0,0.0,0.0,0.0,0.0,0.0,0.0,0.0,0.0,0.0,0.0,0.0,0.0,0.0,0.0,0.0,0.0,0.0,0.0,0.0,0.0,0.0,0.0,0.0,0.0,0.0,0.0,0.0,0.0,0.0,0.0,0.0,0.0,0.0,0.0,0.0,0.0,0.0,0.0,0.0,0.0,0.0,0.0,0.0,0.0,0.8024,0.8899,0.9856,1.0975,1.1884,1.2583,1.2888,1.3017,1.2868,1.1846,0.9921,0.8123,0.7034,0.4046,0.1699,0.1708,0.0773,0.0,0.0,0.0,0.0,0.0,0.0,0.0,0.0,0.0,0.0,0.0,0.0,0.0,0.0,0.0,0.0,0.0,0.0,0.0,0.0,0.0,0.0,0.0,0.0,0.0,0.0,0.0,0.0,0.0,0.0,0.0,0.0,0.0,0.0,0.0,0.0,0.0,0.0,0.0,0.0,0.0,0.0,0.0,0.0,0.0,0.0,0.0,0.0,0.0,0.0,0.0,0.0,0.0,0.0,0.0,0.0,0.0,0.0,0.0,0.0,0.0,0.0,0.0,0.0,0.0,0.0,0.0,0.0,0.0,0.0,0.0,0.0,0.0,0.0,0.0,0.0,-0.0449,-0.1614,-0.1703,-0.1703,-0.1703,-0.1703,-0.1166,-0.009,0.0,0.0,0.0,0.0,0.0,0.0,0.0,0.0,0.0,0.0,0.0,0.8045,0.9076,1.0134,1.143,1.2094,1.2474,1.2651,1.2569,1.1826,0.9657,0.7867,0.6019,0.3776,0.1513,0.0,0.0,0.0,0.0,0.0,0.0,0.0,0.0,0.0,0.0,0.0,0.0,0.0,0.0,0.0,0.0,0.0,0.0,0.0,0.0,0.0,0.0,0.0,0.0,0.0,0.0,0.0,0.0,0.0,0.0,0.0,0.0,0.0,0.0,0.0,0.0,0.0,0.0,0.0,0.0,0.0,0.0,0.0,0.0,0.0,0.0,0.0,0.0,-0.0269,-0.0628,-0.0628,-0.0628,-0.0628,-0.0628,-0.0359,0.0,0.0,0.0,0.0,0.0,0.0,0.0,0.0,0.0,0.0,0.0,0.0,0.0,0.0,0.0,0.0,0.0,0.0,0.0,0.0,0.0,-0.018,-0.0538,-0.0628,-0.1614,-0.4027,-0.4206,-0.4206,-0.4206,-0.3848,-0.2687,-0.0718,-0.0179,0.0,0.0,0.0,0.0,0.0,0.0,0.0,0.0,0.0,0.0,0.6851,0.8364,1.0086,1.1179,1.1789,1.2189,1.2467,1.1221,0.9437,0.7363,0.6714,0.5881,0.3768,0.1513,0.0,0.0,0.0,0.0,0.0,0.0,0.0,0.0,0.0,0.0,0.0,0.0,0.0,0.0,0.0,0.0,0.0,0.0,0.0,0.0,0.0,0.0,0.0,0.0,0.0,0.0,0.0,0.0,0.0,0.0,0.0,0.0,0.0,0.0,0.0,0.0,0.0,0.0,0.0,0.0,0.0,0.0,0.0,0.0,0.0,0.0,0.0,0.0,-0.1434,-0.3134,-0.3134,-0.3134,-0.3134,-0.3134,-0.1614,0.0,0.0,0.0,0.0,0.0,0.0,0.0,0.0,0.0,0.0,0.0,0.0,0.0,0.0,0.0,0.0,0.0,0.0,0.0,0.0,0.0,-0.0807,-0.2866,-0.3134,-0.4116,-0.6436,-0.6611,-0.6611,-0.6611,-0.474,-0.349,-0.3134,-0.1076,0.0,0.0,0.0,0.0,0.0,0.0,0.0,0.0,0.0,0.0,0.7244,0.8554,0.9829,1.088,1.0626,1.0134,1.0398,0.9076,0.7123,0.5068,0.457,0.3978,0.1892,0.0664,0.0,0.0,0.0,0.0,0.0,0.0,0.0,0.0,0.0,0.0,0.0,0.0,0.0,0.0,0.0,0.0,0.0,0.0,0.0,0.0,0.0,0.0,0.0,0.0,-0.0713,-0.2061,-0.2061,-0.2687,-0.3938,-0.3938,-0.2507,0.0,0.0,0.0,0.0,0.0,0.0,0.0,0.0,0.0,0.0,0.0,0.0,0.0,0.0,-0.0897,-0.2061,-0.2061,-0.358,-0.5544,-0.5544,-0.4651,-0.358,-0.358,-0.1882,0.0,0.0,0.0,0.0,0.0,0.0,0.0,0.0,0.0,0.0,0.0,0.0,0.0,0.0,0.0,0.0,0.0,0.0,0.0,0.0,-0.1166,-0.2419,-0.349,-0.474,-0.6522,-0.893,-0.9108,-0.9108,-0.9108,-0.8129,-0.6968,-0.5633,-0.4561,-0.3401,-0.2061,-0.0718,0.0,0.0,0.0,0.0,0.0,0.0,0.0,0.7433,0.833,0.8977,0.9678,0.9086,0.8298,0.8213,0.6798,0.5044,0.3418,0.2669,0.1825,0.0322,0.0,0.0,0.0,0.0,0.0,0.0,0.0,0.0,0.0,0.0,0.0,0.0,0.0,0.0,0.0,0.0,0.0,0.0,0.0,0.0,0.0,0.0,0.0,0.0,0.0,-0.1237,-0.3566,-0.3566,-0.4818,-0.7057,-0.7057,-0.5186,-0.1793,-0.1166,-0.0538,0.0,0.0,0.0,0.0,0.0,0.0,0.0,0.0,-0.0359,-0.0897,-0.0897,-0.2507,-0.4472,-0.4472,-0.6079,-0.804,-0.804,-0.6344,-0.4472,-0.4472,-0.233,0.0,0.0,0.0,0.0,0.0,0.0,0.0,0.0,0.0,0.0,0.0,0.0,0.0,0.0,0.0,0.0,0.0,0.0,-0.0179,-0.0807,-0.2507,-0.4027,-0.5276,-0.6968,-0.9019,-1.1433,-1.161,-1.161,-1.161,-1.1072,-0.9913,-0.8129,-0.7413,-0.6255,-0.4561,-0.2687,-0.1166,0.0,0.0,0.0,0.0,-0.0628,-0.0897,0.641,0.7014,0.718,0.7156,0.75,0.7555,0.6418,0.4662,0.3216,0.3142,0.1542,0.0155,0.0,0.0,0.0,0.0,0.0,0.0,0.0,0.0,0.0,0.0,0.0,0.0,0.0,0.0,0.0,0.0,0.0,0.0,0.0,0.0,0.0,0.0,0.0,0.0,0.0,0.0,-0.1223,-0.3615,-0.3615,-0.4872,-0.7057,-0.7057,-0.6968,-0.6611,-0.4383,-0.215,0.0,0.0,0.0,0.0,0.0,0.0,0.0,0.0,-0.1434,-0.3403,-0.3403,-0.4919,-0.6882,-0.6882,-0.8575,-1.054,-1.054,-0.8842,-0.6882,-0.6882,-0.358,0.0,0.0,0.0,0.0,0.0,0.0,0.0,0.0,0.0,0.0,0.0,0.0,0.0,0.0,0.0,0.0,0.0,0.0,-0.0807,-0.3134,-0.349,-0.5365,-0.9824,-1.0446,-1.1522,-1.3938,-1.4122,-1.4122,-1.4122,-1.1965,-1.0629,-1.054,-0.8308,-0.7057,-0.6882,-0.6793,-0.4472,0.0,0.0,0.0,-0.009,-0.233,-0.3403,0.5942,0.6552,0.6886,0.6611,0.5847,0.5021,0.4096,0.2477,0.1081,0.111,0.0524,0.0,0.0,0.0,0.0,0.0,0.0,0.0,0.0,0.0,0.0,0.0,0.0,0.0,0.0,0.0,0.0,0.0,0.0,0.0,0.0,0.0,0.0,0.0,0.0,0.0,0.0,-0.1462,-0.3366,-0.5746,-0.7272,-0.9246,-1.1582,-1.1666,-1.0895,-0.9375,-0.8486,-0.679,-0.4561,-0.4561,-0.4561,-0.4561,-0.4561,-0.4561,-0.4561,-0.4561,-0.5097,-0.5811,-0.5811,-0.7417,-0.938,-0.938,-1.1072,-1.304,-1.304,-1.1344,-0.9108,-0.7502,-0.4829,-0.1971,-0.0359,-0.1166,-0.233,-0.233,-0.2687,-0.2507,-0.0449,0.0,0.0,0.0,0.0,0.0,0.0,0.0,0.0,0.0,-0.1345,-0.2597,-0.349,-0.6255,-0.8842,-1.054,-1.2059,-1.3401,-1.421,-1.4299,-1.4299,-1.4299,-1.3489,-1.304,-1.304,-1.2148,-1.0984,-0.9464,-0.938,-0.7773,-0.4561,-0.4561,-0.4561,-0.4561,-0.5454,-0.5811,0.5508,0.5858,0.5984,0.5321,0.4154,0.2946,0.2033,0.0848,0.0,0.0,0.0,0.0,0.0,0.0,0.0,0.0,0.0,0.0,0.0,0.0,0.0,0.0,0.0,0.0,0.0,0.0,0.0,0.0,0.0,0.0,0.0,0.0,0.0,0.0,0.0,0.0,0.0,-0.2209,-0.4519,-0.697,-0.9271,-1.1675,-1.3994,-1.4102,-1.3261,-1.1752,-1.1797,-1.0057,-0.7057,-0.7057,-0.7057,-0.7057,-0.7057,-0.7057,-0.7057,-0.7057,-0.7595,-0.8308,-0.8308,-0.9913,-1.1876,-1.1876,-1.2952,-1.4299,-1.4299,-1.2597,-1.0357,-0.8753,-0.6611,-0.4383,-0.2776,-0.358,-0.474,-0.474,-0.4561,-0.3848,-0.1703,-0.0538,0.0,0.0,0.0,0.0,0.0,-0.0628,-0.1166,-0.1166,-0.3224,-0.5097,-0.5901,-0.8753,-1.0984,-1.1788,-1.3312,-1.4299,-1.4299,-1.4299,-1.4299,-1.4299,-1.4299,-1.4299,-1.4299,-1.4299,-1.3578,-1.1971,-1.1876,-1.1161,-0.9557,-0.7859,-0.7057,-0.7146,-0.7951,-0.8753,0.0,0.0,0.0,0.3179,0.2448,0.1653,0.0302,0.0,0.0,0.0,0.0,0.0,0.0,0.0,0.0,0.0,0.0,0.0,0.0,0.0,0.0,0.0,0.0,0.0,0.0,0.0,0.0,0.0,0.0,0.0,0.0,0.0,0.0,0.0,0.0,0.0,0.0,-0.2268,-0.4553,-0.689,-0.9276,-1.1555,-1.3752,-1.3838,-1.3838,-1.3851,-1.4,-1.1489,-0.7321,-0.7324,-0.7324,-0.7324,-0.7324,-0.7324,-0.7324,-0.7324,-0.8753,-1.0806,-1.0806,-1.2325,-1.4299,-1.4299,-1.4299,-1.4299,-1.4299,-1.2686,-1.0806,-1.0717,-0.9019,-0.7235,-0.7235,-0.7235,-0.7235,-0.7235,-0.5454,-0.3759,-0.3759,-0.1882,-0.0179,-0.009,-0.009,-0.009,-0.0179,-0.215,-0.3669,-0.3669,-0.5722,-0.804,-1.0362,-1.0717,-1.1699,-1.4033,-1.4299,-1.4299,-1.4299,-1.4299,-1.4299,-1.4299,-1.4299,-1.4299,-1.4299,-1.4299,-1.4299,-1.4299,-1.4299,-1.4299,-1.4299,-0.9557,-0.7324,-0.7328,-0.9735,-1.2059,0.5177,0.0,0.0,0.0,0.0,0.0,0.0253,0.0,0.0,0.0,0.0,0.0,0.0,0.0,0.0,0.0,0.0,0.0,0.0,0.0,0.0,0.0,0.0,0.0,0.0,0.0,0.0,0.0,0.0,0.0,0.0,0.0,0.0,0.0,0.0,0.0,0.0,-0.386,-0.6124,-0.6815,-1.0772,-1.305,-1.3688,-1.379,-1.3838,-1.3844,-1.3885,-1.3143,-1.1969,-1.2249,-1.2325,-1.2325,-1.2325,-1.2325,-1.2325,-1.2325,-1.2774,-1.3312,-1.3312,-1.3761,-1.4299,-1.4299,-1.4299,-1.4299,-1.4299,-1.385,-1.2952,-1.1161,-1.018,-0.9735,-0.9735,-0.9735,-0.9735,-0.9735,-0.9197,-0.8219,-0.6522,-0.5633,-0.4651,-0.2955,-0.2597,-0.3134,-0.4829,-0.5722,-0.6165,-0.6165,-0.8129,-0.9913,-1.0629,-1.2237,-1.3578,-1.421,-1.4299,-1.4299,-1.4299,-1.4299,-1.4299,-1.4299,-1.4299,-1.4299,-1.4299,-1.4299,-1.4299,-1.4299,-1.4299,-1.4299,-1.4299,-1.2952,-1.2325,-1.2325,-1.2952,-1.3673,0.0,0.0,0.0,0.3143,0.0,0.0,0.0097,0.0,0.0,0.0,0.0,0.0,0.0,0.0,0.0,0.0,0.0,0.0,0.0,0.0,0.0,0.0,0.0,0.0,0.0,0.0,-0.0394,-0.1259,-0.1273,-0.1685,-0.2578,-0.2607,-0.2628,-0.2725,-0.2741,-0.2758,-0.2771,-0.6282,-0.804,-0.8123,-1.1801,-1.3532,-1.3539,-1.362,-1.3654,-1.3661,-1.3722,-1.3749,-1.377,-1.4007,-1.415,-1.4211,-1.4278,-1.4299,-1.4299,-1.4299,-1.4299,-1.4299,-1.4299,-1.4299,-1.4299,-1.4299,-1.4299,-1.4299,-1.4299,-1.4299,-1.4027,-1.2597,-1.2237,-1.2237,-1.2237,-1.2237,-1.2237,-1.2237,-1.1433,-1.0268,-0.893,-0.7773,-0.67,-0.5365,-0.5097,-0.5454,-0.6879,-0.7951,-0.8575,-0.8575,-1.0629,-1.2237,-1.2237,-1.3401,-1.4299,-1.4299,-1.4299,-1.4299,-1.4299,-1.4299,-1.4299,-1.4299,-1.4299,-1.4299,-1.4299,-1.4299,-1.4299,-1.4299,-1.4299,-1.4299,-1.4299,-1.4299,-1.4299,-1.4299,-1.4299,-1.4299,0.6264,0.4668,0.0,0.0,0.1552,0.0,0.0,0.0,0.0,0.0,0.0,0.0,0.0,0.0,0.0,0.0,0.0,0.0,0.0,0.0,0.0,0.0,0.0,0.0,0.0,0.0,-0.0846,-0.2919,-0.326,-0.4238,-0.6194,-0.6264,-0.633,-0.6479,-0.6496,-0.6536,-0.669,-0.8869,-0.9961,-1.0044,-1.2305,-1.3403,-1.3403,-1.3403,-1.3403,-1.341,-1.3546,-1.3607,-1.3614,-1.3756,-1.3905,-1.4061,-1.4197,-1.4251,-1.4251,-1.4272,-1.4278,-1.4278,-1.4292,-1.4299,-1.4299,-1.4299,-1.4299,-1.4299,-1.4299,-1.4299,-1.4299,-1.4299,-1.4299,-1.4299,-1.4299,-1.4299,-1.4299,-1.4299,-1.2686,-1.1072,-1.1072,-0.938,-0.7859,-0.7859,-0.7681,-0.7591,-0.7862,-0.9646,-1.1072,-1.1072,-1.2952,-1.4299,-1.4299,-1.4299,-1.4299,-1.4299,-1.4299,-1.4299,-1.4299,-1.4299,-1.4299,-1.4299,-1.4299,-1.4299,-1.4299,-1.4299,-1.4299,-1.4299,-1.4299,-1.4299,-1.4299,-1.4299,-1.4299,-1.4299,-1.4299,-1.4299,0.5445,0.3728,0.2061,0.1975,0.0973,0.0,0.0,0.0,0.0,0.0,0.0,0.0,0.0,0.0,0.0,0.0,0.0,0.0,0.0,0.0,0.0,0.0,0.0,0.0,0.0,0.0,-0.0835,-0.2806,-0.4517,-0.5655,-0.6275,-0.627,-0.6317,-0.6331,-0.6445,-0.6512,-0.6526,-0.8833,-1.0044,-1.0128,-1.2312,-1.3403,-1.3403,-1.3403,-1.3403,-1.3403,-1.3431,-1.3444,-1.3458,-1.3607,-1.3756,-1.3885,-1.3919,-1.3933,-1.3946,-1.4068,-1.4116,-1.4136,-1.4258,-1.4299,-1.4299,-1.4299,-1.4299,-1.4299,-1.4299,-1.4299,-1.4299,-1.4299,-1.4299,-1.4299,-1.4299,-1.4299,-1.4299,-1.4299,-1.3938,-1.3584,-1.3584,-1.3224,-1.2863,-1.2863,-1.1344,-1.0629,-1.2591,-1.3312,-1.3584,-1.3584,-1.4033,-1.4299,-1.4299,-1.4299,-1.4299,-1.4299,-1.4299,-1.4299,-1.4299,-1.4299,-1.4299,-1.4299,-1.4299,-1.4299,-1.4299,-1.4299,-1.4299,-1.4299,-1.4299,-1.4299,-1.4299,-1.4299,-1.4299,-1.4299,-1.4299,-1.4299,0.5654,0.3692,0.1825,0.1824,0.0889,0.0,0.0,0.0,0.0,0.0,0.0,0.0,0.0,0.0,0.0,0.0,0.0,0.0,0.0,0.0,0.0,0.0,0.0,0.0,0.0,-0.0884,-0.2682,-0.565,-0.788,-0.9096,-0.929,-0.9273,-0.9354,-0.9461,-0.9572,-0.9653,-0.9713,-1.0978,-1.1623,-1.1623,-1.286,-1.3403,-1.3403,-1.3403,-1.3403,-1.3403,-1.3403,-1.3403,-1.3403,-1.3485,-1.3559,-1.3634,-1.3783,-1.3838,-1.3851,-1.3926,-1.3953,-1.398,-1.4136,-1.4183,-1.4197,-1.4278,-1.4299,-1.4299,-1.4299,-1.4299,-1.4299,-1.4299,-1.4299,-1.4299,-1.4299,-1.4299,-1.4299,-1.4299,-1.4299,-1.4299,-1.4299,-1.4299,-1.4299,-1.4299,-1.3312,-1.2863,-1.4122,-1.4299,-1.4299,-1.4299,-1.4299,-1.4299,-1.4299,-1.4299,-1.4299,-1.4299,-1.4299,-1.4299,-1.4299,-1.4299,-1.4299,-1.4299,-1.4299,-1.4299,-1.4299,-1.4299,-1.4299,-1.4299,-1.4299,-1.4299,-1.4299,-1.4299,-1.4299,-1.4299,-1.4299,-1.4299,0.5969,0.3887,0.188,0.1681,0.0794,0.0,0.0,0.0,0.0,0.0,0.0,0.0,0.0,0.0,0.0,0.0,0.0,0.0,0.0,0.0,0.0,0.0,0.0,0.0,0.0,-0.1969,-0.4823,-0.8548,-1.0663,-1.1918,-1.2189,-1.2257,-1.24,-1.2637,-1.2698,-1.2793,-1.2915,-1.3057,-1.3132,-1.3132,-1.3288,-1.3356,-1.3356,-1.339,-1.3403,-1.3403,-1.3403,-1.3403,-1.3403,-1.3403,-1.3403,-1.3424,-1.3661,-1.3756,-1.3763,-1.379,-1.3797,-1.3824,-1.4007,-1.4075,-1.4095,-1.4251,-1.4299,-1.4299,-1.4299,-1.4299,-1.4299,-1.4299,-1.4299,-1.4299,-1.4299,-1.4299,-1.4299,-1.4299,-1.4299,-1.4299,-1.4299,-1.4299,-1.4299,-1.4299,-1.4299,-1.4299,-1.4299,-1.4299,-1.4299,-1.4299,-1.4299,-1.4299,-1.4299,-1.4299,-1.4299,-1.4299,-1.4299,-1.4299,-1.4299,-1.4299,-1.4299,-1.4299,-1.4299,-1.4299,-1.4299,-1.4299,-1.4299,-1.4299,-1.4299,-1.4564,-1.4992,-1.4992,-1.4734,-1.4299,-1.4299,-1.4299,0.0,0.0,0.0,0.0601,0.0114,0.0,0.0,0.0,0.0,0.0,0.0,0.0,0.0,0.0,0.0,0.0,0.0,0.0,0.0,0.0,0.0,0.0,0.0,0.0,0.0,-0.2755,-0.5622,-0.8338,-0.9979,-1.1165,-1.1843,-1.2142,-1.2305,-1.2338,-1.2596,-1.2739,-1.2759,-1.2908,-1.2983,-1.299,-1.3132,-1.32,-1.32,-1.3342,-1.3403,-1.3403,-1.3403,-1.3403,-1.3403,-1.3403,-1.3403,-1.3403,-1.3437,-1.3451,-1.3464,-1.36,-1.3654,-1.3695,-1.3973,-1.4075,-1.4095,-1.4251,-1.4299,-1.4299,-1.4299,-1.4299,-1.4299,-1.4299,-1.4299,-1.4299,-1.4299,-1.4299,-1.4299,-1.4299,-1.4299,-1.4299,-1.4299,-1.4299,-1.4299,-1.4299,-1.4299,-1.4299,-1.4299,-1.4299,-1.4299,-1.4299,-1.4299,-1.4299,-1.4299,-1.4299,-1.4299,-1.4299,-1.4299,-1.4299,-1.4299,-1.4299,-1.4299,-1.4299,-1.4299,-1.4299,-1.4299,-1.4299,-1.4299,-1.4299,-1.4299,-1.5344,-1.7413,-1.7413,-1.629,-1.4299,-1.4299,-1.4299,0.0,0.0,0.2102,0.0401,0.0,0.0,0.0,0.0,0.0,0.0,0.0,0.0,0.0,0.0,0.0,0.0,0.0,0.0,0.0,0.0,0.0,0.0,0.0,-0.0424,-0.1576,-0.352,-0.568,-0.8025,-0.9639,-1.0751,-1.1409,-1.1735,-1.202,-1.2284,-1.2413,-1.2515,-1.2596,-1.2752,-1.2827,-1.2827,-1.3064,-1.3173,-1.318,-1.3329,-1.3403,-1.3403,-1.3403,-1.3403,-1.3403,-1.3403,-1.3403,-1.3403,-1.3403,-1.3403,-1.341,-1.3471,-1.3498,-1.3526,-1.3743,-1.3871,-1.398,-1.4217,-1.4299,-1.4285,-1.4197,-1.4231,-1.4278,-1.419,-1.4231,-1.4299,-1.4299,-1.4299,-1.4299,-1.4299,-1.4299,-1.4299,-1.4299,-1.4299,-1.4299,-1.4299,-1.4299,-1.4299,-1.4299,-1.4299,-1.4299,-1.4299,-1.4299,-1.4299,-1.4299,-1.4299,-1.4299,-1.4299,-1.4299,-1.4299,-1.4299,-1.4299,-1.4299,-1.4299,-1.4299,-1.4299,-1.4299,-1.4299,-1.4911,-1.629,-1.629,-1.7509,-1.9749,-1.9749,-1.9237,-1.8287,-1.8287,-1.8287,0.5301,0.3691,0.2126,0.0411,0.0,0.0,0.0,0.0,0.0,0.0,0.0,0.0,0.0,0.0,0.0,0.0,0.0,0.0,0.0,0.0,0.0,0.0,0.0,-0.074,-0.2641,-0.3505,-0.4857,-0.7099,-0.857,-0.9671,-1.0386,-1.1091,-1.1681,-1.2094,-1.223,-1.2338,-1.244,-1.2589,-1.2664,-1.2671,-1.2929,-1.3051,-1.3057,-1.3254,-1.3336,-1.3342,-1.3383,-1.3403,-1.3403,-1.3403,-1.3403,-1.3403,-1.3403,-1.3403,-1.3403,-1.3403,-1.3403,-1.3424,-1.3573,-1.3749,-1.3939,-1.4163,-1.4238,-1.4217,-1.4102,-1.4122,-1.415,-1.4041,-1.4116,-1.4238,-1.4238,-1.4272,-1.4299,-1.4299,-1.4299,-1.4299,-1.4299,-1.4299,-1.4285,-1.4245,-1.4272,-1.4285,-1.4245,-1.4272,-1.4299,-1.4299,-1.4299,-1.4299,-1.4299,-1.4299,-1.4299,-1.4299,-1.4299,-1.4299,-1.4299,-1.4299,-1.4299,-1.4299,-1.4911,-1.5256,-1.5256,-1.5866,-1.6984,-1.8714,-1.8714,-1.9836,-2.217,-2.217,-2.2514,-2.3115,-2.1825,-2.1221,0.5556,0.3802,0.2075,0.0402,0.0,0.0,0.0,0.0,0.0,0.0,0.0,0.0,0.0,0.0,0.0,0.0,0.0,0.0,0.0,0.0,0.0,0.0,0.0,-0.0721,-0.2521,-0.2221,-0.2876,-0.5312,-0.6417,-0.7421,-0.8356,-1.0183,-1.1321,-1.1633,-1.206,-1.2291,-1.2298,-1.244,-1.2508,-1.2508,-1.2671,-1.2745,-1.2752,-1.3044,-1.318,-1.3186,-1.3336,-1.3403,-1.3403,-1.3403,-1.3403,-1.3403,-1.3403,-1.3403,-1.3403,-1.3403,-1.3403,-1.3424,-1.3573,-1.3817,-1.4068,-1.4075,-1.4082,-1.4082,-1.4075,-1.3973,-1.3858,-1.3851,-1.396,-1.4082,-1.4082,-1.419,-1.4299,-1.4299,-1.4299,-1.4299,-1.4299,-1.4299,-1.4258,-1.4109,-1.4197,-1.4251,-1.4102,-1.4204,-1.4299,-1.4299,-1.4299,-1.4299,-1.4299,-1.4299,-1.4299,-1.4299,-1.4299,-1.4299,-1.4299,-1.4299,-1.4299,-1.4299,-1.6466,-1.7676,-1.7676,-1.9836,-2.1048,-2.1048,-2.1048,-2.2256,-2.4605,-2.4605,-2.5726,-2.7883,-2.3298,-2.1221,0.5556,0.3801,0.2119,0.042,0.0,0.0,0.0,0.0,0.0,0.0,0.0,0.0,0.0,0.0,0.0,0.0,0.0,0.0,0.0,0.0,0.0,0.0,0.0,-0.0254,-0.0851,-0.1464,-0.2229,-0.3206,-0.4557,-0.6076,-0.787,-0.8918,-1.0104,-1.1534,-1.1959,-1.2189,-1.2291,-1.2433,-1.2501,-1.2501,-1.2657,-1.2732,-1.2739,-1.2942,-1.3085,-1.3173,-1.3227,-1.3308,-1.3403,-1.3403,-1.3403,-1.3403,-1.3403,-1.3403,-1.3403,-1.3403,-1.3403,-1.3424,-1.3573,-1.3695,-1.3797,-1.3892,-1.3919,-1.3899,-1.381,-1.381,-1.3824,-1.3729,-1.3804,-1.3939,-1.4048,-1.4034,-1.4021,-1.4122,-1.4068,-1.3994,-1.3994,-1.3994,-1.398,-1.3933,-1.4041,-1.4136,-1.4082,-1.4197,-1.4299,-1.4299,-1.4299,-1.4299,-1.4299,-1.4299,-1.4299,-1.4299,-1.4299,-1.4299,-1.4299,-1.5682,-1.6641,-1.6641,-1.8802,-2.0009,-2.0009,-2.0789,-2.1911,-2.347,-2.3555,-2.4679,-2.7025,-2.7025,-2.7448,-2.8136,-2.6575,-2.5799,0.4535,0.2934,0.1364,0.0247,0.0,0.0,0.0,0.0,0.0,0.0,0.0,0.0,0.0,0.0,0.0,0.0,0.0,0.0,0.0,0.0,0.0,0.0,0.0,0.0,0.0,-0.071,-0.1215,-0.1393,-0.2826,-0.4627,-0.6827,-0.7807,-0.924,-1.1372,-1.1748,-1.2006,-1.221,-1.2352,-1.2454,-1.2501,-1.2603,-1.2651,-1.2657,-1.2807,-1.2929,-1.3024,-1.3125,-1.3227,-1.3322,-1.3376,-1.3403,-1.3403,-1.3403,-1.3403,-1.3403,-1.3403,-1.3403,-1.3417,-1.3512,-1.3587,-1.3648,-1.3736,-1.3763,-1.3749,-1.3654,-1.3654,-1.3661,-1.3573,-1.3654,-1.379,-1.3892,-1.3878,-1.3865,-1.3966,-1.3912,-1.4009,-1.4771,-1.4351,-1.3995,-1.4776,-1.4393,-1.3987,-1.3987,-1.4116,-1.4238,-1.4292,-1.4299,-1.4299,-1.4299,-1.4299,-1.4646,-1.5425,-1.5513,-1.5858,-1.6641,-1.8113,-1.8976,-1.8976,-2.1135,-2.2428,-2.2428,-2.3212,-2.4423,-2.5896,-2.5981,-2.6673,-2.8221,-2.8221,-2.8221,-2.8221,-2.8221,-2.8221]},{"header":{"parameterUnit":"m.s-1","parameterCategory":1,"la1":30.6,"la2":29.2853,"lo1":-89.7004,"lo2":-87.6739,"dy":0.0162,"dx":0.0183,"nx":112,"ny":82,"refTime":"2024-08-22T18:00:00:Z","depth":0,"parameterNumber":3,"parameterNumberName":"V-component_of_WINDS"},"data":[0.0,0.0,0.0,0.0,0.0,0.0,0.0,0.0,0.0,0.0,0.0,0.0,0.0,0.0,0.0,0.0,0.0,0.0,0.0,0.0,0.0,0.0,0.0,0.0,0.0,0.0,0.0,0.0,0.0,0.0,0.0,0.0,0.0,0.0,0.0,0.0,0.0,0.0,0.0,0.0,0.0,0.0,0.0,0.0,0.0,0.0,0.0,0.0,0.0,0.0,0.0,0.0,0.0,0.0,0.0,0.0,0.0,0.0,0.0,0.0,0.0,0.0,0.0,0.0,0.0,0.0,0.0,0.0,0.0,0.0,0.0,0.0,0.0,0.0,0.0,0.0,0.0,0.0,0.0,0.0,0.0,0.0,0.0,0.0,0.0,0.0,0.0,0.0,0.0,0.0,3.9145,4.3919,4.9077,5.1793,5.0875,5.0545,4.7131,3.9386,0.0,0.0,0.0,0.0,0.0,0.0,0.0,0.0,0.0,0.0,0.0,0.0,0.0,0.0,0.0,0.0,0.0,0.0,0.0,0.0,0.0,0.0,0.0,0.0,0.0,0.0,0.0,0.0,0.0,0.0,0.0,0.0,0.0,0.0,0.0,0.0,0.0,0.0,0.0,0.0,0.0,0.0,0.0,0.0,0.0,0.0,0.0,0.0,0.0,0.0,0.0,0.0,0.0,0.0,0.0,0.0,0.0,0.0,0.0,0.0,0.0,0.0,0.0,0.0,0.0,0.0,0.0,0.0,0.0,0.0,0.0,0.0,0.0,0.0,0.0,0.0,0.0,0.0,0.0,0.0,0.0,0.0,0.0,0.0,0.0,0.0,0.0,0.0,0.0,0.0,0.0,0.0,0.0,0.0,0.0,0.0,0.0,0.0,0.0,0.0,0.0,0.0,0.0,0.0,3.957,4.7719,5.1242,5.2417,5.0949,4.9517,4.6104,4.0084,0.0,0.0,0.0,0.0,0.0,0.0,0.0,0.0,0.0,0.0,0.0,0.0,0.0,0.0,0.0,0.0,0.0,0.0,0.0,0.0,0.0,0.0,0.0,0.0,0.0,0.0,0.0,0.0,0.0,0.0,0.0,0.0,0.0,0.0,0.0,0.0,0.0,0.0,0.0,0.0,0.0,0.0,0.0,0.0,0.0,0.0,0.0,0.0,0.0,0.0,0.0,0.0,0.0,0.0,0.0,0.0,0.0,0.0,0.0,0.0,0.0,0.0,0.0,0.0,0.0,0.0,0.0,0.0,0.0,0.0,0.0,0.0,0.0,0.0,0.0,0.0,0.0,0.0,0.0,0.0,0.0,0.0,0.0,0.0,0.0,0.0,0.0,0.0,0.0,0.0,0.0,0.0,0.0,0.0,0.0,0.0,0.0,0.0,0.0,0.0,0.0,0.0,0.0,3.9643,4.3424,5.0141,5.227,5.2543,5.0949,4.926,4.57,3.9643,3.6523,0.0,0.0,0.0,0.0,0.0,0.0,0.0,0.0,0.0,0.0,0.0,0.0,0.0,0.0,0.0,0.0,0.0,0.0,0.0,0.0,0.0,0.0,0.0,0.0,0.0,0.0,0.0,0.0,0.0,0.0,0.0,0.0,0.0,0.0,0.0,0.0,0.0,0.0,0.0,0.0,0.0,0.0,0.0,0.0,0.0,0.0,0.0,0.0,0.0,0.0,0.0,0.0,0.0,0.0,0.0,0.0,0.0,0.0,0.0,0.0,0.0,0.0,0.0,0.0,0.0,0.0,0.0,0.0,0.0,0.0,0.0,0.0,0.0,0.0,0.0,0.0,0.0,0.0,0.0,0.0,0.0,0.0,0.0,0.0,0.0,0.0,0.0,0.0,0.0,0.0,0.0,0.0,0.0,0.0,0.0,0.0,0.0,0.0,0.0,0.0,0.0,0.0,4.4444,4.7316,5.1557,5.2564,5.2344,5.0912,4.8379,4.4452,3.8762,3.4614,0.0,0.0,0.0,0.0,0.0,0.0,0.0,0.0,0.0,0.0,0.0,0.0,0.0,0.0,0.0,0.0,0.0,0.0,0.0,0.0,0.0,0.0,0.0,0.0,0.0,0.0,0.0,0.0,0.0,0.0,0.0,0.0,0.0,0.0,0.0,0.0,0.0,0.0,0.0,0.0,0.0,0.0,0.0,0.0,0.0,0.0,0.0,0.0,0.0,0.0,0.0,0.0,0.0,0.0,0.0,0.0,0.0,0.0,0.0,0.0,0.0,0.0,0.0,0.0,0.0,0.0,0.0,0.0,0.0,0.0,0.0,0.0,0.0,0.0,0.0,0.0,0.0,0.0,0.0,0.0,0.0,0.0,0.0,0.0,0.0,0.0,0.0,0.0,0.0,0.0,0.0,0.0,0.0,0.0,0.0,0.0,0.0,0.0,0.0,0.0,0.0,0.0,4.5212,4.9472,5.1781,5.205,5.172,5.0875,4.5847,4.1258,3.7786,3.169,0.0,0.0,0.0,0.0,0.0,0.0,0.0,0.0,0.0,0.0,0.0,0.0,0.0,0.0,0.0,0.0,0.0,0.0,0.0,0.0,0.0,0.0,0.0,0.0,0.0,0.0,0.0,0.0,0.0,0.0,0.0,0.0,0.0,0.0,0.0,0.0,0.0,0.0,0.0,0.0,0.0,0.0,0.0,0.0,0.0,0.0,0.0,0.0,0.0,0.0,0.0,0.0,0.0,0.0,0.0,0.0,0.0,0.0,0.0,0.0,0.0,0.0,0.0,0.0,0.0,0.0,0.0,0.0,0.0,0.0,0.0,0.0,0.0,0.0,0.0,0.0,0.0,0.0,0.0,0.0,0.0,0.0,0.0,0.0,0.0,0.0,0.0,0.0,0.0,0.0,0.0,0.0,0.0,0.0,0.0,0.0,0.0,0.0,0.0,0.0,0.0,0.0,4.4826,4.9036,5.3118,5.2865,5.2047,5.1232,4.7804,4.3319,3.7838,0.0,0.0,0.0,0.0,0.0,0.0,0.0,0.0,0.0,0.0,0.0,0.0,0.0,0.0,0.0,0.0,0.0,0.0,0.0,0.0,0.0,0.0,0.0,0.0,0.0,0.0,0.0,0.0,0.0,0.0,0.0,0.0,0.0,0.0,0.0,0.0,0.0,0.0,0.0,0.0,0.0,0.0,0.0,0.0,0.0,0.0,0.0,0.0,0.0,0.0,0.0,0.0,0.0,0.0,0.0,0.0,0.0,0.0,0.0,0.0,0.0,0.0,0.0,0.0,0.0,0.0,0.0,0.0,0.0,0.0,0.0,0.0,0.0,0.0,0.0,0.0,0.0,0.0,0.0,0.0,0.0,0.0,0.0,0.0,0.0,0.0,0.0,0.0,0.0,0.0,0.0,0.0,0.0,0.0,0.0,0.0,0.0,0.0,0.0,0.0,0.0,0.0,4.0849,4.5415,4.9695,5.3821,5.3386,5.2476,5.1653,4.8381,4.3789,3.7752,0.0,0.0,0.0,0.0,0.0,0.0,0.0,0.0,0.0,0.0,0.0,0.0,0.0,0.0,0.0,0.0,0.0,0.0,0.0,0.0,0.0,0.0,0.0,0.0,0.0,0.0,0.0,0.0,0.0,0.0,0.0,0.0,0.0,0.0,0.0,0.0,0.0,0.0,0.0,0.0,0.0,0.0,0.0,0.0,0.0,0.0,0.0,0.0,0.0,0.0,0.0,0.0,0.0,0.0,0.0,0.0,0.0,0.0,0.0,0.0,0.0,0.0,0.0,0.0,0.0,0.0,0.0,0.0,0.0,0.0,0.0,0.0,0.0,0.0,0.0,0.0,0.0,0.0,0.0,0.0,0.0,0.0,0.0,0.0,0.0,0.0,0.0,0.0,0.0,0.0,0.0,0.0,0.0,0.0,0.0,0.0,0.0,0.0,0.0,0.0,0.0,0.0,4.0969,4.7219,5.194,5.3644,5.3449,5.2877,5.2085,4.6806,4.1725,0.0,0.0,0.0,0.0,0.0,0.0,0.0,0.0,0.0,0.0,0.0,0.0,0.0,0.0,0.0,0.0,0.0,0.0,0.0,0.0,0.0,0.0,0.0,0.0,0.0,0.0,0.0,0.0,0.0,0.0,0.0,0.0,0.0,0.0,0.0,0.0,0.0,0.0,0.0,0.0,0.0,0.0,0.0,0.0,0.0,0.0,0.0,0.0,0.0,0.0,0.0,0.0,0.0,0.0,0.0,0.0,0.0,0.0,0.0,0.0,0.0,0.0,0.0,0.0,0.0,0.0,0.0,0.0,0.0,0.0,0.0,0.0,0.0,0.0,0.0,0.0,0.0,0.0,0.0,0.0,0.0,0.0,0.0,0.0,0.0,0.0,0.0,0.0,0.0,0.0,0.0,0.0,0.0,0.0,0.0,0.0,0.0,0.0,0.0,0.0,0.0,0.0,0.0,4.236,4.8118,5.2655,5.4918,5.4253,5.3335,5.2498,4.9239,4.4592,3.8406,0.0,0.0,0.0,0.0,0.0,0.0,0.0,0.0,0.0,0.0,0.0,0.0,0.0,0.0,0.0,0.0,0.0,0.0,0.0,0.0,0.0,0.0,0.0,0.0,0.0,0.0,0.0,0.0,0.0,0.0,0.0,0.0,0.0,0.0,0.0,0.0,0.0,0.0,0.0,0.0,0.0,0.0,0.0,0.0,0.0,0.0,0.0,0.0,0.0,0.0,0.0,0.0,0.0,0.0,0.0,0.0,0.0,0.0,0.0,0.0,0.0,0.0,0.0,0.0,0.0,0.0,0.0,0.0,0.0,0.0,0.0,0.0,0.0,0.0,0.0,0.0,0.0,0.0,0.0,0.0,0.0,0.0,0.0,0.0,0.0,0.0,0.0,0.0,0.0,0.0,0.0,0.0,0.0,0.0,0.0,0.0,0.0,0.0,0.0,0.0,0.0,0.0,4.291,4.877,5.3226,5.5231,5.4951,5.4264,5.3422,5.1331,4.7248,4.069,0.0,0.0,0.0,0.0,0.0,0.0,0.0,0.0,0.0,0.0,0.0,0.0,0.0,0.0,0.0,0.0,0.0,0.0,0.0,0.0,0.0,0.0,0.0,0.0,0.0,0.0,0.0,0.0,0.0,0.0,0.0,0.0,0.0,0.0,0.0,0.0,0.0,0.0,0.0,0.0,0.0,0.0,0.0,0.0,0.0,0.0,0.0,0.0,0.0,0.0,0.0,0.0,0.0,0.0,0.0,0.0,0.0,0.0,0.0,0.0,0.0,0.0,0.0,0.0,0.0,0.0,0.0,0.0,0.0,0.0,0.0,0.0,0.0,0.0,0.0,0.0,0.0,0.0,0.0,0.0,0.0,0.0,0.0,0.0,0.0,0.0,0.0,0.0,0.0,0.0,0.0,0.0,0.0,0.0,0.0,0.0,0.0,0.0,0.0,0.0,0.0,0.0,4.3151,4.9362,5.3881,5.5148,5.5585,5.5472,5.4587,5.2895,4.9462,4.3701,0.0,0.0,0.0,0.0,0.0,0.0,0.0,0.0,0.0,0.0,0.0,0.0,0.0,0.0,0.0,0.0,0.0,0.0,0.0,0.0,0.0,0.0,0.0,0.0,0.0,0.0,0.0,0.0,0.0,0.0,0.0,0.0,0.0,0.0,0.0,0.0,0.0,0.0,0.0,0.0,0.0,0.0,0.0,0.0,0.0,0.0,0.0,0.0,0.0,0.0,0.0,0.0,0.0,0.0,0.0,0.0,0.0,0.0,0.0,0.0,3.4835,3.1935,0.0,0.0,0.0,0.0,0.0,0.0,0.0,0.0,0.0,0.0,0.0,0.0,0.0,0.0,0.0,0.0,0.0,0.0,0.0,0.0,0.0,0.0,0.0,0.0,0.0,0.0,0.0,0.0,0.0,0.0,0.0,0.0,0.0,0.0,0.0,0.0,0.0,0.0,0.0,0.0,4.6008,5.1417,5.5171,5.6449,5.667,5.6137,5.4626,5.2895,4.9971,4.5364,4.0931,0.0,0.0,0.0,0.0,0.0,0.0,0.0,0.0,0.0,0.0,0.0,0.0,0.0,0.0,0.0,0.0,0.0,0.0,0.0,0.0,0.0,0.0,0.0,0.0,0.0,0.0,0.0,0.0,0.0,0.0,0.0,0.0,0.0,0.0,0.0,0.0,0.0,0.0,0.0,0.0,0.0,0.0,0.0,0.0,0.0,0.0,0.0,0.0,0.0,0.0,0.0,0.0,0.0,0.0,0.0,0.0,0.0,0.0,0.0,4.1148,3.8432,0.0,0.0,0.0,0.0,0.0,0.0,0.0,0.0,0.0,0.0,0.0,0.0,0.0,0.0,0.0,0.0,0.0,0.0,0.0,0.0,0.0,0.0,0.0,0.0,0.0,0.0,0.0,0.0,0.0,0.0,0.0,0.0,0.0,0.0,0.0,0.0,0.0,0.0,0.0,0.0,4.7719,5.2559,5.5969,5.7462,5.7253,5.6637,5.5791,5.4126,5.1856,4.8817,4.4662,0.0,0.0,0.0,0.0,0.0,0.0,0.0,0.0,0.0,0.0,0.0,0.0,0.0,0.0,0.0,0.0,0.0,0.0,0.0,0.0,0.0,0.0,0.0,0.0,0.0,0.0,0.0,0.0,0.0,0.0,0.0,0.0,0.0,0.0,0.0,0.0,0.0,0.0,0.0,0.0,0.0,0.0,0.0,0.0,0.0,0.0,0.0,0.0,0.0,0.0,0.0,0.0,0.0,4.7168,4.8397,5.0178,4.9644,5.0178,5.13,4.7902,4.6104,4.5333,4.2359,0.0,0.0,0.0,0.0,0.0,0.0,0.0,0.0,0.0,0.0,0.0,0.0,0.0,0.0,0.0,0.0,0.0,0.0,0.0,0.0,0.0,0.0,4.5399,4.7996,4.9517,4.8408,4.1089,0.0,0.0,0.0,0.0,0.0,0.0,0.0,0.0,0.0,0.0,0.0,4.9308,5.3741,5.6896,5.8357,5.7857,5.733,5.7022,5.5588,5.3972,5.2231,4.8586,4.547,0.0,0.0,0.0,0.0,0.0,0.0,0.0,0.0,0.0,0.0,0.0,0.0,0.0,0.0,0.0,0.0,0.0,0.0,0.0,0.0,0.0,0.0,0.0,0.0,0.0,0.0,0.0,0.0,0.0,0.0,0.0,0.0,2.8803,3.1335,0.0,0.0,0.0,0.0,0.0,0.0,0.0,0.0,0.0,0.0,0.0,0.0,0.0,4.6966,4.9334,5.2344,5.3959,5.4179,5.7005,5.8143,5.779,5.84,5.8767,5.8951,5.84,0.0,4.8802,4.6948,0.0,0.0,0.0,0.0,0.0,0.0,0.0,0.0,0.0,0.0,0.0,0.0,0.0,0.0,0.0,0.0,0.0,0.0,0.0,0.0,0.0,0.0,5.4503,5.4606,5.5319,5.5276,5.2733,4.7421,4.2669,4.1241,3.8725,3.6368,0.0,0.0,0.0,0.0,0.0,0.0,5.2115,5.6395,5.9088,5.9319,5.9242,5.8588,5.7137,5.6088,5.4818,5.3126,5.1125,4.9558,4.8432,4.4547,0.0,0.0,0.0,0.0,0.0,0.0,0.0,0.0,0.0,0.0,0.0,0.0,0.0,0.0,0.0,0.0,0.0,0.0,0.0,0.0,0.0,0.0,0.0,0.0,0.0,0.0,0.0,0.0,0.0,2.939,3.3096,3.5128,3.5128,3.4614,0.0,0.0,0.0,0.0,0.0,0.0,0.0,0.0,0.0,4.9517,5.1977,5.4179,5.6198,5.851,5.9648,5.9648,6.108,6.1557,6.1239,6.1594,6.1777,6.1777,6.1777,5.9942,5.6785,5.3812,5.0929,4.8269,0.0,0.0,0.0,0.0,4.7315,4.7645,5.0618,5.1573,5.1096,4.8563,0.0,0.0,0.0,0.0,0.0,0.0,0.0,4.9599,5.3268,5.5843,5.7725,5.8916,5.9717,5.9817,5.8654,5.5694,5.1947,4.7377,4.6162,4.4417,3.9862,3.9771,0.0,0.0,0.0,5.0548,5.478,5.778,5.9704,6.0165,5.9781,5.9204,5.8473,5.7627,5.6626,5.5395,5.4203,5.2933,5.1587,4.8856,4.6095,0.0,0.0,0.0,0.0,0.0,0.0,0.0,0.0,0.0,0.0,0.0,0.0,0.0,0.0,0.0,0.0,0.0,0.0,0.0,0.0,0.0,0.0,0.0,0.0,0.0,0.0,0.0,0.0,3.3757,3.7096,3.8557,3.9974,4.0157,0.0,0.0,0.0,0.0,0.0,0.0,4.9351,5.0949,5.3115,5.6161,5.84,6.0126,6.1337,6.2867,6.3665,6.3665,6.3981,6.4187,6.4187,6.4396,6.4507,6.4483,6.4328,6.4144,6.3628,5.9682,5.6859,5.4987,5.4179,5.3335,5.2858,5.4473,5.4764,5.4859,5.8268,5.9154,5.8344,5.5714,5.4326,5.2695,4.7839,0.0,0.0,0.0,0.0,5.4147,5.8309,5.9387,5.988,6.1804,6.2536,6.2629,6.2017,6.1646,5.9533,5.3137,5.2679,5.1505,4.5732,4.5764,0.0,4.6894,4.9981,5.3521,5.6907,5.8781,6.0089,6.0742,6.0204,5.9742,5.9511,5.8781,5.7934,5.706,5.6175,5.5126,5.3895,5.2433,5.0279,4.7278,0.0,0.0,0.0,0.0,0.0,0.0,0.0,0.0,0.0,0.0,0.0,0.0,0.0,0.0,0.0,0.0,0.0,0.0,0.0,0.0,0.0,0.0,0.0,0.0,0.0,0.0,0.0,0.0,0.0,4.1956,4.4801,0.0,0.0,0.0,0.0,4.7645,4.8636,5.1242,5.6051,5.7116,5.8694,6.1153,6.2879,6.3833,6.3906,6.5268,6.594,6.594,6.7297,6.7936,6.7974,6.8711,6.9051,6.9048,6.8474,6.7789,6.6797,6.2915,6.0823,5.9979,5.9148,5.8364,5.7813,5.9428,6.0322,6.099,6.278,6.3716,6.3954,6.2954,6.0536,5.7926,5.7602,5.6463,0.0,0.0,5.8413,5.9592,6.1804,6.2391,6.2519,6.3079,6.3245,6.3257,6.3218,6.3192,6.2115,5.8554,5.6604,5.5182,5.4038,0.0,5.3049,5.3857,5.5521,5.7049,5.8088,5.9704,6.0742,6.0781,6.0742,6.0396,5.9588,5.8781,5.7934,5.706,5.6175,5.5665,5.5588,5.4741,5.3433,5.1615,4.6663,0.0,0.0,0.0,0.0,0.0,0.0,0.0,0.0,0.0,0.0,0.0,0.0,0.0,0.0,0.0,0.0,0.0,0.0,0.0,0.0,0.0,0.0,0.0,0.0,0.0,0.0,0.0,0.0,4.8196,5.0472,0.0,4.9884,5.0472,5.194,5.4363,5.5317,5.7446,6.13,6.1777,6.2953,6.5204,6.633,6.7361,6.8256,6.9278,6.9762,6.9762,7.0273,7.0506,7.0526,7.0828,7.0942,7.0921,7.0713,7.0476,7.01,6.8741,6.6538,6.4053,6.414,6.3988,6.3801,6.4362,6.4711,6.4968,6.555,6.5877,6.5918,6.5067,6.3688,6.2269,6.2269,6.2096,6.2093,6.3198,6.3558,6.39,6.5161,6.5112,6.4755,6.4949,6.4974,6.482,6.4282,6.4128,6.3628,6.1858,6.0589,5.9204,5.728,5.7126,5.7011,5.6242,5.755,5.8934,5.9781,6.0435,6.0781,6.0781,6.0781,6.0666,6.0358,5.955,5.8473,5.7099,5.6175,5.5203,5.4126,5.3818,5.3126,5.1923,4.9048,4.524,0.0,0.0,0.0,0.0,0.0,0.0,0.0,0.0,0.0,0.0,0.0,0.0,0.0,0.0,0.0,0.0,0.0,0.0,0.0,0.0,0.0,0.0,0.0,0.0,0.0,4.5296,4.926,5.172,5.484,5.6308,5.495,5.6271,5.8033,5.9905,6.0987,6.2728,6.5423,6.6012,6.7049,6.875,6.9349,7.0051,7.0997,7.1708,7.209,7.209,7.2567,7.2794,7.2794,7.306,7.3383,7.363,7.3458,7.3341,7.3323,7.3037,7.1247,6.8713,6.8596,6.8542,6.8542,6.8542,6.8659,6.883,6.8727,6.8323,6.7735,6.7237,6.6476,6.5808,6.5808,6.6024,6.6374,6.691,6.6929,6.6859,6.7398,6.6898,6.6282,6.6282,6.609,6.5743,6.5166,6.5051,6.4859,6.4282,6.3281,6.1973,6.0281,6.0204,6.0012,5.8896,5.9435,6.0165,6.0742,6.0781,6.0781,6.0781,6.0781,6.0781,6.0781,5.9473,5.8319,5.7473,5.5818,5.4472,5.3664,5.3087,5.25,5.1923,4.9971,4.7317,4.3923,0.0,0.0,0.0,0.0,0.0,0.0,0.0,0.0,0.0,0.0,0.0,0.0,0.0,0.0,0.0,0.0,0.0,0.0,0.0,0.0,0.0,0.0,0.0,4.3901,4.9297,5.3078,5.2417,5.785,6.075,5.8437,6.1104,6.3307,6.4177,6.5464,6.6911,6.853,6.9874,7.1017,7.1886,7.1924,7.1944,7.202,7.2508,7.2761,7.2817,7.4183,7.4822,7.4861,7.5707,7.6553,7.7308,7.6735,7.6481,7.6384,7.5547,7.4745,7.3888,7.2411,7.1831,7.1831,7.1831,7.2187,7.2601,7.2308,7.1168,6.9821,6.9783,6.9206,6.85,6.8513,6.8475,6.8475,6.8475,6.8462,6.8423,6.8423,6.7782,6.7128,6.7128,6.6551,6.5974,6.5936,6.5936,6.5936,6.5897,6.4551,6.3346,6.3346,6.2666,6.2139,6.2139,6.1396,0.0,6.0819,6.0819,6.0819,6.0781,6.0781,6.0781,6.0781,5.8484,5.7357,5.8165,5.5049,5.3587,5.4434,5.2856,5.1962,5.2,4.9538,4.8279,4.8279,0.0,0.0,0.0,0.0,0.0,0.0,0.0,0.0,0.0,0.0,0.0,0.0,0.0,0.0,0.0,0.0,0.0,0.0,0.0,0.0,0.0,4.7792,5.1463,5.0655,5.3592,5.6822,5.9501,6.141,6.2695,6.3246,6.499,6.6388,6.7219,6.8585,6.9809,7.0842,7.1254,7.2314,7.4219,7.4257,7.5033,7.6624,7.6815,7.6862,7.6862,7.7278,7.7438,7.7438,7.7707,7.7938,7.8169,7.7985,7.7937,7.7899,7.7668,7.7438,7.6977,7.4127,7.3045,7.3045,7.3045,7.3146,7.3253,7.3164,7.286,7.236,7.1706,7.136,7.1052,7.0398,7.0206,7.0206,7.0206,6.9783,6.936,6.936,6.8706,6.8052,6.8052,6.7859,6.7552,6.6898,6.6782,6.659,6.6013,6.5513,6.4974,6.4359,6.3551,6.2974,6.2974,6.2781,6.2397,6.1831,6.1755,6.1512,6.0858,6.0781,6.0781,6.0781,5.905,5.7511,5.6472,5.4395,5.3318,5.3549,5.3087,5.3395,5.4626,5.2779,5.1818,0.0,0.0,0.0,0.0,0.0,0.0,0.0,0.0,0.0,0.0,0.0,0.0,0.0,0.0,0.0,0.0,0.0,0.0,0.0,0.0,0.0,0.0,5.3371,5.7116,5.7703,5.8657,6.0346,6.3025,6.4439,6.557,6.6605,6.8194,6.94,6.9866,7.1189,7.2357,7.3192,7.3763,7.4878,7.653,7.6569,7.7182,7.8477,7.8477,7.8477,7.8477,7.8477,7.8477,7.8477,7.8477,7.8707,7.9054,7.9054,7.9246,7.9554,7.9208,7.9054,7.8823,0.0,0.0,0.0,0.0,7.4861,7.4514,7.413,7.3783,7.3437,7.2899,7.2745,7.2591,7.1706,7.1437,7.136,7.1014,7.0552,7.0206,7.0206,6.959,6.8936,6.8936,6.8667,6.8282,6.7744,6.7628,6.7398,6.6551,6.6397,0.0,6.5282,6.4436,6.3858,6.3858,6.3538,6.3128,6.2666,6.2332,6.1908,6.1408,6.1012,6.0781,6.0781,5.9242,0.0,0.0,0.0,5.4087,5.378,5.3741,0.0,0.0,0.0,0.0,0.0,0.0,0.0,0.0,5.7819,5.9127,0.0,0.0,0.0,0.0,0.0,0.0,0.0,0.0,0.0,0.0,0.0,0.0,0.0,0.0,0.0,0.0,5.8253,6.1655,6.4143,6.3885,6.3738,6.451,6.6972,6.8711,6.8935,7.0842,7.2061,7.2174,7.3496,7.4681,7.5521,7.6754,0.0,0.0,0.0,7.8669,7.8784,7.8784,7.8784,7.8784,7.8784,7.8784,7.8784,7.8784,7.9208,7.9939,7.9939,8.04,8.1054,8.0285,7.9939,7.9862,7.8861,7.8477,7.84,7.7707,7.6938,7.6169,7.5399,0.0,0.0,7.3822,7.3707,7.3476,7.2591,7.236,7.2168,7.1398,7.1206,7.1168,7.1052,7.0514,6.9975,6.986,6.9244,6.8667,6.8577,6.8552,6.8282,6.7398,6.7244,6.6974,6.6167,6.532,6.4743,6.4743,6.4089,6.3551,6.3474,6.282,6.2332,6.2255,6.155,0.0,6.1089,5.9627,5.8973,5.9627,5.7511,5.5934,5.5241,5.5472,5.6703,5.8973,5.9819,6.182,6.5051,6.7398,6.8731,6.8975,6.3589,6.3935,0.0,0.0,0.0,0.0,0.0,0.0,0.0,0.0,0.0,0.0,0.0,0.0,0.0,0.0,0.0,5.7643,6.1153,6.4144,6.6378,6.7104,6.7462,6.7648,6.8585,6.9738,7.1056,7.2565,7.378,7.4484,7.5841,7.6986,7.7831,7.8139,7.8669,7.9515,7.9554,7.99,8.0592,8.0592,8.0592,8.0592,8.0592,0.0,8.0592,8.0592,8.0669,8.0862,8.0862,8.0939,8.1093,8.0939,8.0862,8.0708,7.9092,7.8477,7.8477,7.8323,7.8169,7.7977,7.7823,7.7246,7.6438,7.5745,7.5053,7.4322,7.3514,7.3245,0.0,7.3053,7.3014,7.286,7.2129,7.1822,7.1552,7.0821,7.0552,7.0244,6.959,6.9436,6.9206,6.8321,6.8167,6.7898,6.7013,6.6205,6.5628,6.5628,6.5513,6.5128,6.4436,6.4205,6.3858,6.3128,6.2935,6.282,6.282,6.1935,6.1127,6.0589,6.0089,5.9742,5.9588,6.155,6.2897,6.3358,6.4205,6.5667,6.7667,6.8859,7.086,7.3437,7.1629,7.1398,0.0,0.0,0.0,0.0,0.0,0.0,0.0,0.0,0.0,0.0,0.0,4.9334,5.2564,0.0,5.9164,6.2683,6.4964,6.7057,6.9222,7.0131,7.0307,6.9654,7.0793,7.1959,7.2795,7.4528,7.5775,7.6235,7.727,7.8246,7.9092,7.9131,7.9554,8.0439,8.0439,8.0669,8.1093,8.1093,8.1093,8.1093,8.1093,8.1093,8.1093,8.1093,8.1093,8.1093,8.1093,8.1093,8.1093,8.1093,8.1093,8.1016,8.0131,7.9785,7.9746,7.9323,7.9131,7.9092,7.8631,7.8246,7.7746,7.6899,7.6361,7.5745,7.4476,7.4091,7.4014,7.363,7.3514,7.3399,7.2976,7.286,7.2629,7.1745,7.1552,7.1321,7.0475,7.0283,7.0052,6.9206,6.9052,6.8783,6.7898,6.7436,6.6859,6.6013,6.5897,6.5743,6.532,6.4859,6.4436,6.4012,6.3551,6.3308,6.3308,6.2935,6.2512,6.2089,6.205,6.2243,6.2666,6.3935,6.4974,6.582,6.7128,6.8398,6.9667,7.1822,7.3707,7.5361,7.6245,7.6669,0.0,0.0,0.0,0.0,0.0,0.0,0.0,4.3938,4.6067,5.0251,5.3225,5.5926,5.8804,6.1185,6.3783,6.7143,6.8504,6.9791,7.1683,7.2319,7.2256,7.1276,7.2884,7.4104,7.4312,7.6101,7.7361,7.7515,7.8284,7.9131,8.0015,8.0054,8.0362,8.1093,8.1093,8.1093,8.1093,8.1093,8.1093,8.1093,8.1093,8.1093,8.1093,8.1093,8.1093,8.1093,8.1093,8.1093,8.1093,8.1093,8.1093,8.1093,8.1093,8.1093,8.1016,8.0323,8.0054,7.9939,7.9246,7.89,7.8631,7.7977,7.7553,7.7053,7.563,7.5091,7.4822,7.4168,7.4014,7.3937,7.3783,7.3745,7.3514,7.2668,7.2322,7.2014,7.1283,7.1014,7.0706,7.0052,6.9937,6.9667,6.8821,6.8667,6.809,6.6397,6.6128,6.609,6.5897,6.5282,6.4859,6.4859,6.4205,6.382,6.382,6.382,6.3858,6.4051,6.4051,6.4436,6.532,6.5513,6.6282,6.7821,6.9398,7.0667,7.1629,7.4553,7.6169,7.6553,7.8746,7.9823,3.6354,3.8006,4.0194,4.3791,4.4342,4.6471,0.0,5.5978,5.5464,6.0199,6.1484,6.2229,6.381,6.5508,6.7203,6.8888,7.0441,7.1683,7.2411,7.2556,7.275,7.3123,7.4043,7.4918,7.5686,7.6692,7.7592,7.8284,7.9169,8.0054,8.09,8.0939,8.1016,8.1093,8.1093,8.1093,8.1093,8.1093,8.1093,8.1093,8.1093,8.1093,8.1093,8.1093,8.1093,8.1093,8.1093,8.1093,8.1093,8.1093,8.1093,8.1093,8.1093,8.1093,8.1093,8.0977,8.0939,8.0939,8.0823,8.0285,7.9631,7.9554,7.8515,7.7246,7.7053,7.6476,7.5822,7.5745,7.5707,7.5553,7.4784,7.4591,7.4361,7.3553,7.2745,7.2168,7.2091,7.1437,7.086,7.0783,7.0783,7.0514,6.9706,6.9552,6.8975,6.7244,6.6974,6.6705,6.5974,6.582,6.5743,6.5743,6.5667,6.559,6.559,6.559,6.5897,6.6628,6.6667,6.7051,6.7936,6.8706,6.9552,7.0475,7.1437,7.2706,7.4284,7.5438,7.6784,7.8246,7.9323,7.9823,4.3923,4.5358,4.6441,4.886,5.0949,5.3661,5.8397,5.9286,6.0103,6.3733,6.4971,6.5682,6.6603,6.8119,6.9662,7.1048,7.2244,7.3399,7.4456,7.4159,7.376,7.3524,7.3822,7.4322,7.5168,7.6899,7.813,7.8477,7.9785,8.0708,8.1093,8.1093,8.1093,8.1093,8.1093,8.1093,8.1093,8.1093,8.1093,8.1093,8.1093,8.1093,8.1093,8.1093,8.1093,8.1093,8.1093,8.1093,8.1093,8.1093,8.1093,8.1093,8.1093,8.1093,8.1093,8.1093,8.1093,8.1093,8.1093,8.0862,8.0477,7.9977,7.9323,7.8554,7.7592,7.7053,7.663,7.613,7.6015,7.5938,7.5553,7.5476,7.5245,7.4399,7.3937,7.3514,7.3053,7.2283,7.1668,7.1668,7.1245,7.0783,7.0475,7.0398,6.9975,6.8783,6.8167,6.7552,6.6705,6.659,6.6397,6.5936,6.5897,6.5897,6.5897,6.632,6.6744,6.709,6.759,6.8244,6.9129,6.9975,7.0783,7.1629,7.2976,7.4245,7.5476,7.6784,7.8092,7.9285,8.0169,8.0554,4.8802,5.048,5.176,5.3607,5.6792,5.9733,6.0783,6.2252,6.4004,6.6234,6.7142,6.7669,6.8205,6.9474,7.0896,7.2291,7.339,7.4462,7.5509,7.4707,7.3783,7.3206,7.2937,7.3206,7.4284,7.6476,7.7977,7.8492,7.99,8.0862,8.1093,8.1093,8.1093,8.1093,8.1093,8.1093,8.1093,8.1093,8.1093,8.1093,8.1093,8.1093,8.1093,8.1093,8.1093,8.1093,8.1093,8.1093,8.1093,8.1093,8.1093,8.1093,8.1093,8.1093,8.1093,8.1093,8.1093,8.1093,8.1093,8.1093,8.1016,8.0362,8.0015,7.9592,7.8361,7.7669,7.7169,7.6553,7.6207,7.6015,7.6015,7.6015,7.5822,7.5207,7.4861,7.4553,7.3976,7.3212,7.2559,7.2315,7.1813,7.1332,7.1101,7.1062,7.0833,7.0208,6.9578,6.877,6.7603,6.7475,6.7244,6.6667,6.659,6.659,6.659,6.7128,6.7552,6.7782,6.8398,6.9244,7.0321,7.0937,7.1783,7.286,7.4091,7.5245,7.6361,7.7784,7.8938,7.9823,8.0708,8.1093,4.862,5.1359,5.5163,5.8547,6.1213,6.369,6.6106,6.7295,6.8143,6.9011,6.8538,6.8148,6.868,6.9506,7.0572,7.1982,7.3615,7.4692,7.4745,7.3322,7.2283,7.2245,7.1475,7.1668,7.336,7.5091,7.6746,7.8361,7.9323,8.0208,8.1054,8.1093,8.1093,8.1093,8.1093,8.1093,8.1093,8.1093,8.1093,8.1093,8.1093,8.1093,8.1093,8.1093,8.1093,8.1093,8.1093,8.1093,8.1093,8.1093,8.1093,8.1093,8.1093,8.1093,8.1093,8.1093,8.1093,8.1093,8.1093,8.1093,8.1093,8.1054,8.0477,7.9785,7.9746,7.8592,7.7284,7.7284,7.663,7.6015,7.6015,7.6015,7.5976,7.5976,7.5322,7.4707,7.4668,7.4178,7.3506,7.2633,7.2613,7.2482,7.1619,7.1464,7.1397,7.1203,7.1123,7.0446,6.8591,6.8359,6.8359,6.8308,6.8321,6.8321,6.8321,6.8359,6.8744,6.959,6.9667,7.0398,7.2052,7.2129,7.2937,7.4591,7.4668,7.5553,7.7246,7.8092,7.8938,7.9823,8.0708,8.1093,5.2867,5.5922,5.8836,6.1376,6.3858,6.6106,6.7818,6.8565,6.8868,6.8728,6.8193,6.7538,6.6984,6.8014,6.9476,7.1077,7.2783,7.4284,7.5399,7.5091,7.4091,7.2399,7.2937,7.3206,7.2706,7.4168,7.6053,7.8323,7.8746,7.9554,8.1016,8.1093,8.1093,8.1093,8.1093,8.1093,8.1093,8.1093,8.1093,8.1093,8.1093,8.1093,8.1093,8.1093,8.1093,8.1093,8.1093,8.1093,8.1093,8.1093,8.1093,8.1093,8.1093,8.1093,8.1093,8.1093,8.1093,8.1093,8.1093,8.1093,8.1093,8.1093,8.09,8.0554,7.9977,7.94,7.8746,7.7592,7.7092,7.6746,7.613,7.6015,7.6015,7.6015,7.5784,7.5586,7.5748,7.5144,7.4537,7.4395,7.3939,7.332,7.2503,7.2236,7.1891,7.113,7.0529,6.999,6.9334,6.8783,6.8385,6.8385,6.8385,6.8385,6.8385,6.8936,6.9629,7.0437,7.1052,7.186,7.3014,7.3591,7.413,7.4707,7.5822,7.6976,7.8092,7.8938,7.9823,8.0669,8.0977,8.1093,5.6856,5.9548,6.1941,6.4807,6.6721,6.8143,6.8992,6.9082,6.871,6.7714,6.6504,6.5408,6.4667,6.5166,6.6628,6.9552,7.1206,7.3053,7.563,7.5476,7.4707,7.3668,7.3976,7.4207,7.4053,7.4707,7.6092,7.8323,7.8784,7.9592,8.1016,8.1093,8.1093,8.1093,8.1093,8.1093,8.1093,8.1093,8.1093,8.1093,8.1093,8.1093,8.1093,8.1093,8.1093,8.1093,8.1093,8.1093,8.1093,8.1093,8.1093,8.1093,8.1093,8.1093,8.1108,8.1181,8.1186,8.121,8.11,8.1093,8.1093,8.1093,8.1093,8.1016,8.0439,8.0054,7.9592,7.8515,7.781,7.7263,7.6635,7.6326,7.621,7.6121,7.6147,7.6254,7.6371,7.6009,7.5642,7.5456,7.5011,7.442,7.3601,7.3229,7.2793,7.2018,7.1402,7.0821,7.0206,6.9629,6.9283,6.9283,6.959,6.9744,6.9744,7.0552,7.1283,7.1783,7.236,7.3053,7.3899,7.4437,7.4976,7.563,7.6746,7.7861,7.8977,7.9515,8.0246,8.1093,8.1093,8.1093,6.0242,6.2243,6.4589,6.8667,6.9706,6.9706,6.9629,6.8936,6.7782,6.5936,6.364,6.187,6.1678,6.1127,6.2358,6.7308,6.9052,7.1206,7.5399,7.4707,7.4322,7.5861,7.4745,7.4745,7.7053,7.663,7.6861,7.8438,7.9285,8.0131,8.1054,8.1093,8.1093,8.1093,8.1093,8.1093,8.1093,8.1093,8.1108,8.1124,8.1108,8.1108,8.1124,8.1108,8.1093,8.1093,8.1093,8.1093,8.1093,8.1093,8.1093,8.1093,8.1124,8.1124,8.1131,8.1349,8.143,8.1395,8.121,8.1116,8.1116,8.1116,8.1116,8.1116,8.1124,8.0523,7.9884,7.9815,7.8798,7.7682,7.7404,7.7014,7.6653,7.6379,7.6505,7.666,7.6636,7.676,7.6646,7.5833,7.5807,7.5625,7.4804,7.4285,7.3939,7.3731,7.3575,7.2899,7.1245,7.1014,7.1014,7.1014,7.1783,7.2283,7.2283,7.3014,7.3514,7.3553,7.3553,7.3937,7.4745,7.4784,7.5553,7.7246,7.7323,7.8169,7.9823,7.9862,8.0285,8.1093,8.1093,8.1093,6.2166,6.532,6.8321,6.9436,6.9706,6.9513,6.8898,6.759,6.5513,6.1897,6.0127,5.8473,5.5934,5.7857,6.0896,6.4089,6.7975,7.186,7.5476,7.6707,7.7169,7.6976,7.7707,7.7977,7.7361,7.8246,7.9015,7.9438,7.9054,7.9515,8.1016,8.1093,8.1093,8.1093,8.1093,8.1093,8.1093,8.1093,8.1167,8.1324,8.1167,8.1167,8.1311,8.1152,8.1093,8.1093,8.1093,8.1093,8.1093,8.1093,8.1093,8.1124,8.1258,8.1324,8.1361,8.1543,8.1636,8.1627,8.1563,8.1543,8.1543,8.1543,8.1543,8.1504,8.1359,8.1259,8.1038,8.0237,7.9851,7.9373,7.8067,7.8146,7.8217,7.6832,7.7058,7.7442,7.6931,7.686,7.69,7.6827,7.6327,7.5779,7.5401,7.4582,7.3947,7.379,7.3626,7.336,7.2899,7.286,7.286,7.286,7.3053,7.3168,7.3168,7.336,7.3783,7.4361,7.4399,7.4784,7.563,7.5668,7.6169,7.7284,7.79,7.8707,7.9823,8.0439,8.09,8.1093,8.1093,8.1093,6.5089,6.7821,7.0129,6.9783,6.9398,6.8513,6.6167,6.432,6.1781,5.7126,5.5511,5.4126,5.1471,5.4126,5.7819,6.1089,6.5897,7.0821,7.5361,7.713,7.8207,7.89,7.9477,7.9592,7.9015,7.9823,8.0362,8.0362,7.99,8.0054,8.1054,8.1093,8.1093,8.1093,8.1093,8.1093,8.1093,8.1196,8.1298,8.1407,8.1371,8.1371,8.1407,8.1298,8.1181,8.1093,8.1093,8.1093,8.1093,8.1093,8.1093,8.1139,8.1324,8.1407,8.1425,8.171,8.1844,8.185,8.1914,8.1971,8.1919,8.1778,8.1688,8.1664,8.1563,8.1618,8.1578,8.098,8.0684,8.0312,7.9258,7.9199,7.9158,7.8085,7.7999,7.805,7.7664,7.728,7.7055,7.7187,7.6797,7.6403,7.6197,7.5659,7.5177,7.4935,7.4804,7.4706,7.4606,7.3976,7.3514,7.3514,7.3822,7.4053,7.4053,7.4399,7.4784,7.5245,7.563,7.6053,7.6553,7.6899,7.7515,7.8361,7.8823,7.9515,8.0362,8.0862,8.1093,8.1093,8.1093,8.1093,6.8129,6.9706,7.0706,6.9898,6.8898,6.6974,6.287,6.0242,5.7242,5.2269,5.051,4.9356,4.774,5.0317,5.4126,5.8473,6.3435,6.8898,7.4976,7.6669,7.8246,8.0785,8.0439,8.0285,8.1016,8.1093,8.1093,8.1093,8.1093,8.1093,8.1093,8.1093,8.1093,8.1093,8.1093,8.1093,8.1093,8.1285,8.1391,8.1436,8.1627,8.1636,8.1491,8.1403,8.1285,8.1131,8.1124,8.1093,8.1093,8.1093,8.1093,8.1139,8.1374,8.1436,8.1501,8.1883,8.2049,8.2059,8.2223,8.2304,8.2223,8.1889,8.176,8.1753,8.1732,8.1739,8.1753,8.1732,8.1332,8.086,8.0557,8.0257,7.9959,7.9533,7.9128,7.8789,7.8555,7.7812,7.7187,7.7187,7.7187,7.7146,7.6987,7.6929,7.6775,7.6438,7.6457,7.6444,7.6258,7.4812,7.3822,7.3822,7.4476,7.4861,7.4861,7.5553,7.6053,7.6169,7.6861,7.7361,7.7438,7.813,7.89,7.9785,7.9823,8.0246,8.1093,8.1093,8.1093,8.1093,8.1116,8.1131,6.9013,7.0167,7.0706,6.9898,6.8013,6.5397,6.182,5.7511,5.3049,4.8654,4.6509,4.5124,4.4162,4.7317,5.1664,5.6637,6.1704,6.7359,7.3976,7.6284,7.8246,8.0785,8.0977,8.0939,8.1093,8.1093,8.1093,8.1093,8.1093,8.1093,8.1093,8.1093,8.1093,8.1093,8.1093,8.1093,8.1093,8.1285,8.1491,8.167,8.1664,8.1785,8.1878,8.1543,8.1383,8.1349,8.1167,8.1093,8.1093,8.1093,8.1093,8.1131,8.1483,8.167,8.1719,8.2113,8.2263,8.2264,8.2304,8.2304,8.2304,8.222,8.2217,8.2171,8.1992,8.2062,8.2171,8.1988,8.1993,8.1833,8.1087,8.1365,8.1484,7.9998,8.0117,8.0195,7.8789,7.7812,7.7187,7.7187,7.7187,7.7187,7.7147,7.7002,7.6868,7.6824,7.7261,7.7541,7.7334,7.6274,7.5553,7.5553,7.5707,7.5784,7.5784,7.5899,7.6322,7.7015,7.7207,7.7592,7.8246,7.8438,7.89,7.9785,7.9823,8.0246,8.1093,8.1093,8.1093,8.1108,8.1271,8.1361,6.9244,7.0283,7.0591,6.936,6.7128,6.3858,5.8704,5.4241,4.9779,4.4624,4.3278,4.2624,4.1354,4.5278,4.9663,5.2549,5.7703,6.3705,7.0475,7.3283,7.6092,7.9977,8.0823,8.1093,8.1093,8.1093,8.1093,8.1093,8.1093,8.1093,8.1093,8.1093,8.1093,8.1093,8.1093,8.1093,8.1093,8.1418,8.1813,8.2357,8.2138,8.223,8.2651,8.2007,8.1833,8.2015,8.1929,8.1827,8.1708,8.1708,8.1522,8.1298,8.1591,8.1746,8.1889,8.2176,8.2304,8.2304,8.2304,8.2304,8.2304,8.2304,8.2304,8.2265,8.2176,8.2221,8.2265,8.2175,8.2221,8.2187,8.1797,8.1992,8.2109,8.125,8.1015,8.0547,7.8867,7.8164,7.789,7.789,7.75,7.7461,7.8359,7.8081,7.7825,7.8136,7.8477,7.8618,7.8444,7.786,7.724,7.6736,7.6669,7.6669,7.6669,7.6669,7.7015,7.7861,7.8361,7.8784,7.9169,7.9592,8.0054,8.0477,8.0477,8.0737,8.1244,8.1244,8.1298,8.1391,8.1494,8.1553,6.9244,7.0283,7.0514,6.8821,6.6205,6.2397,5.5972,5.1279,4.6778,4.1362,4.0623,4.0623,3.9515,4.3393,4.7394,4.9356,5.4087,5.9973,6.7128,7.0629,7.4245,7.8977,8.0477,8.1093,8.1093,8.1093,8.117,8.1323,8.1516,8.1477,8.1131,8.1093,8.1093,8.1093,8.1093,8.1139,8.1152,8.1504,8.2178,8.3045,8.2552,8.2689,8.3351,8.2628,8.2461,8.2756,8.2693,8.2573,8.2385,8.2192,8.1824,8.1403,8.1636,8.1837,8.2003,8.2221,8.2304,8.2304,8.2304,8.2304,8.2304,8.2304,8.2304,8.2304,8.2304,8.2304,8.2304,8.2304,8.2304,8.2304,8.2304,8.2304,8.2304,8.2304,8.164,8.0625,7.9336,7.8906,7.875,7.875,7.8203,7.8164,7.9453,7.918,7.8904,7.9377,7.9606,7.9693,7.9559,7.9515,7.9093,7.8078,7.7694,7.7553,7.7553,7.7553,7.79,7.8707,7.9438,7.99,8.0092,8.0784,8.1152,8.1152,8.1224,8.1298,8.1469,8.1469,8.1543,8.1688,8.1725,8.1746,6.9244,7.0283,7.0514,6.8821,6.5359,6.0947,5.5703,4.9433,4.3739,4.0169,3.8854,3.8546,3.9169,4.1008,4.4201,4.9711,5.2972,5.7742,6.6051,7.0783,7.4668,7.8207,8.0092,8.1093,8.1093,8.1093,8.14,8.2131,8.2901,8.2708,8.117,8.1093,8.1093,8.1093,8.1093,8.1196,8.1359,8.16,8.2241,8.3268,8.2607,8.2734,8.3554,8.3317,8.3194,8.3245,8.3024,8.2854,8.2583,8.1797,8.1461,8.1403,8.1636,8.1837,8.2003,8.2221,8.2304,8.2304,8.2304,8.2304,8.2304,8.2304,8.2304,8.2304,8.2304,8.2304,8.2304,8.2304,8.2304,8.2304,8.2304,8.2304,8.2304,8.2304,8.164,8.0976,8.0781,8.0156,7.9609,7.9609,7.9531,7.9531,7.9687,7.9648,7.9609,7.9648,8.0351,8.0773,8.0583,8.1226,8.1288,8.0217,7.9081,7.84,7.84,7.84,7.8746,7.9631,7.9746,8.0169,8.0939,8.1233,8.1359,8.1359,8.1553,8.1631,8.1656,8.1656,8.1664,8.1688,8.1883,8.1976,6.6667,6.8398,6.9013,6.7321,6.4089,5.9858,5.4241,4.8471,4.3355,3.9977,3.8623,3.8277,3.913,4.0662,4.2934,4.6414,4.8245,5.1868,5.933,6.313,6.7547,7.3966,7.6669,7.8823,8.09,8.1093,8.1439,8.2247,8.3093,8.3093,8.19,8.1823,8.1823,8.1823,8.1362,8.121,8.1407,8.1609,8.2247,8.3284,8.2609,8.2773,8.3594,8.2963,8.2938,8.3315,8.3225,8.307,8.2864,8.2514,8.2129,8.1785,8.1855,8.1996,8.2176,8.2265,8.2304,8.2304,8.2304,8.2304,8.2304,8.2304,8.2304,8.2304,8.2304,8.2304,8.2304,8.2304,8.2304,8.2304,8.2304,8.2304,8.2304,8.2304,8.2031,8.164,8.1094,8.0742,8.0469,8.0469,8.0078,8.0039,8.1094,8.082,8.0664,8.1172,8.1562,8.1757,8.1669,8.187,8.1859,8.1421,8.0233,7.9518,7.9636,7.9516,7.9879,8.0877,8.0926,8.112,8.1458,8.1534,8.1582,8.1582,8.1679,8.1739,8.1878,8.1878,8.1923,8.2062,8.2127,8.2175,6.3935,6.6205,6.7321,6.5859,6.2551,5.8319,5.3077,4.7778,4.3047,3.9938,3.8815,3.8584,3.9207,4.0715,4.2423,4.4215,4.5899,4.9175,5.5467,5.8919,6.3369,7.0323,7.357,7.6399,7.9323,8.0708,8.1708,8.2247,8.3093,8.3324,8.2708,8.2439,8.217,8.1939,8.1445,8.1298,8.1501,8.1711,8.2318,8.3359,8.2652,8.2773,8.3594,8.2969,8.2924,8.3396,8.3396,8.3259,8.3084,8.2812,8.2413,8.1992,8.1992,8.212,8.2304,8.2304,8.2304,8.2304,8.2304,8.2304,8.2304,8.2304,8.2304,8.2304,8.2304,8.2304,8.2304,8.2304,8.2304,8.2304,8.2304,8.2304,8.2304,8.2304,8.2304,8.2148,8.1523,8.1367,8.1367,8.1367,8.0898,8.0859,8.2109,8.1797,8.1601,8.2226,8.2304,8.2304,8.2304,8.2173,8.211,8.211,8.1215,8.0694,8.0785,8.0649,8.0893,8.1633,8.1688,8.1688,8.1688,8.1778,8.1805,8.1805,8.1855,8.1962,8.211,8.211,8.217,8.2304,8.2304,8.2422,6.1435,6.3974,6.5705,6.482,6.0781,5.6137,5.2692,4.7355,4.2393,3.9823,3.9284,3.9284,3.9284,4.0797,4.2536,4.4234,4.7462,5.1541,5.6664,6.0879,6.4764,6.8228,7.1531,7.4207,7.5899,7.9823,8.2285,8.2285,8.3093,8.3593,8.3593,8.2747,8.1939,8.1131,8.1311,8.1512,8.168,8.1889,8.2542,8.3594,8.2734,8.2773,8.3594,8.3594,8.3594,8.3594,8.3594,8.3465,8.3241,8.2382,8.2031,8.1992,8.1992,8.212,8.2304,8.2304,8.2304,8.2304,8.2304,8.2304,8.2304,8.2304,8.2304,8.2304,8.2304,8.2304,8.2304,8.2304,8.2304,8.2304,8.2304,8.2304,8.2304,8.2304,8.2304,8.2304,8.2304,8.2304,8.2304,8.2304,8.2265,8.2265,8.2304,8.2304,8.2304,8.2304,8.2304,8.2304,8.2304,8.2304,8.2304,8.2304,8.2118,8.1904,8.1703,8.168,8.168,8.1688,8.1688,8.1688,8.1688,8.1889,8.1988,8.1988,8.2178,8.2304,8.2304,8.2304,8.2304,8.2304,8.2304,8.2773,5.379,5.6165,5.7627,5.5588,5.3905,5.1789,4.8355,4.5278,4.2547,4.0516,3.9669,3.9477,4.0015,4.0674,4.246,4.6625,4.828,5.0823,5.6003,6.088,6.509,6.8229,7.4578,7.89,7.9438,8.1208,8.2285,8.2285,8.3093,8.3324,8.2747,8.2439,8.2254,8.2136,8.1669,8.1563,8.1894,8.1976,8.223,8.2695,8.2422,8.2422,8.2695,8.2695,8.2695,8.2695,8.2695,8.2694,8.2609,8.2335,8.2218,8.2218,8.2218,8.2224,8.2304,8.2304,8.2304,8.2304,8.2304,8.2304,8.2304,8.2304,8.2304,8.2304,8.2304,8.2304,8.2304,8.2304,8.2304,8.2304,8.2304,8.2304,8.2304,8.2304,8.2304,8.2304,8.2304,8.2304,8.2304,8.2304,8.2304,8.2304,8.2304,8.2304,8.2304,8.2304,8.2304,8.2304,8.2304,8.2304,8.2304,8.2304,8.2223,8.2175,8.212,8.1984,8.1971,8.2115,8.2118,8.2118,8.2118,8.2173,8.2218,8.2218,8.2265,8.2304,8.2304,8.2171,8.2074,8.2113,8.2222,8.2773,4.8279,5.0894,5.2279,5.102,4.9971,4.8625,4.6172,4.3786,4.1816,4.0708,3.9861,3.9554,4.0362,4.1138,4.2726,4.6032,4.7996,5.0712,5.527,6.0318,6.5272,7.0021,7.5684,7.94,8.0054,8.117,8.1977,8.2285,8.2516,8.2554,8.2324,8.2016,8.1961,8.2259,8.2086,8.1998,8.1988,8.2417,8.2486,8.2304,8.2304,8.2304,8.2304,8.2304,8.2304,8.2304,8.2304,8.2304,0.0,8.2304,8.2304,8.2304,8.2304,8.2304,8.2304,8.2304,8.2304,8.2304,8.2304,8.2304,8.2304,8.2304,8.2304,8.2304,8.2304,8.2304,8.2304,8.2304,8.2304,8.2304,8.2304,8.2304,8.2304,8.2304,8.2304,8.2304,8.2304,8.2304,8.2304,8.2304,8.2304,8.2304,8.2304,8.2304,8.2304,8.2304,8.2304,8.2304,8.2304,8.2304,8.2304,8.2304,8.2304,8.2304,8.2304,8.2176,8.2171,8.2304,8.2304,8.2304,8.2304,8.2304,8.2304,8.2304,8.2304,8.2304,8.2304,8.2173,8.2118,8.2118,8.2223,8.2773,0.0,4.7355,4.8856,4.9519,4.8009,4.6124,4.5248,4.267,0.0,4.0323,3.9785,3.9592,4.0593,4.2033,4.331,4.393,4.7467,5.1447,5.5101,6.0092,6.6132,7.3452,7.5517,7.6976,7.8515,8.0131,8.14,8.217,8.1516,8.1439,8.217,8.1516,8.1298,8.1672,8.2544,8.2682,8.2039,8.3001,8.3086,8.2304,8.2304,8.2304,8.2304,8.2304,8.2304,8.2304,8.2304,8.2304,8.2304,8.2304,8.2304,8.2304,8.2304,8.2304,8.2304,8.2304,8.2304,8.2304,8.2304,8.2304,8.2304,8.2304,8.2304,8.2304,8.2304,8.2304,8.2304,8.2304,8.2304,8.2304,8.2304,8.2304,8.2304,8.2304,8.2304,8.2304,8.2304,8.2304,8.2304,8.2304,8.2304,8.2304,8.2304,8.2304,8.2304,8.2304,8.2304,8.2304,8.2304,8.2304,8.2304,8.2304,8.2304,8.2304,8.2304,8.2304,8.2304,8.2304,8.2304,8.2304,8.2304,8.2304,8.2304,8.2304,8.2304,8.2304,8.2265,8.2304,8.2304,8.2265,8.2304,8.2734,3.7192,0.0,4.1393,4.0277,4.0546,4.0854,0.0,3.9662,3.94,3.8738,3.8969,4.0131,4.2893,4.2785,4.4428,5.0932,5.2956,5.5341,6.0098,6.6726,7.3227,7.8939,7.98,8.0054,8.0439,8.0862,8.117,8.1362,8.1208,8.117,8.1362,8.1208,8.1298,8.1672,8.2544,8.2736,8.2221,8.2499,8.25,8.2304,8.2304,8.2304,8.2304,8.2304,8.2304,8.2304,8.2304,8.2304,8.2304,8.2304,8.2304,8.2304,8.2304,8.2304,8.2304,8.2304,8.2304,8.2304,8.2304,8.2304,8.2304,8.2304,8.2304,8.2304,8.2304,8.2304,8.2304,8.2304,8.2304,8.2304,8.2304,8.2304,8.2304,8.2304,8.2304,8.2304,8.2304,8.2304,8.2304,8.2304,8.2304,8.2304,8.2304,8.2304,8.2304,8.2304,8.2304,8.2304,8.2304,8.2304,8.2304,8.2304,8.2304,8.2304,8.2304,8.2304,8.2304,8.2304,8.2304,8.2304,8.2304,8.2304,8.2304,8.2304,8.2304,8.2221,8.2062,8.2221,8.222,8.2065,8.2221,8.2422,3.3808,3.7007,3.9823,3.9662,4.0354,4.0931,4.0431,3.9508,3.8661,3.8623,3.9284,4.0669,4.3278,4.433,4.6569,5.1987,5.4876,5.8963,6.6097,7.1581,7.6471,8.0903,8.1214,8.1093,8.1093,8.1093,8.1093,8.1093,8.1093,8.1093,8.1093,8.1093,8.1298,8.1672,8.2155,8.2357,8.2304,8.2695,8.2695,8.2304,8.2304,8.2304,8.2304,8.2304,8.2304,8.2304,8.2304,8.2304,8.2304,8.2304,8.2304,8.2304,8.2304,8.2304,8.2304,8.2304,8.2304,8.2304,8.2304,8.2304,8.2304,8.2304,8.2304,8.2304,8.2304,8.2304,8.2304,8.2304,8.2304,8.2304,8.2304,8.2304,8.2304,8.2304,8.2304,8.2304,8.2304,8.2304,8.2304,8.2304,8.2304,8.2304,8.2304,8.2304,8.2304,8.2304,8.2304,8.2304,8.2304,8.2304,8.2304,8.2304,8.2304,8.2304,8.2304,8.2304,8.2304,8.2304,8.2304,8.2304,8.2304,8.2304,8.2304,8.2304,8.2304,8.2263,8.2125,8.2263,8.2224,8.2127,8.2263,8.2304,3.3276,3.7315,4.1285,4.2124,4.2701,4.3047,4.2777,4.0469,3.8584,3.9323,4.0246,4.1593,4.3855,4.6663,4.951,5.202,5.6703,6.3091,7.1816,7.5044,7.7727,8.0987,8.1186,8.1093,8.1093,8.1116,8.1116,8.1093,8.1176,8.1167,8.1146,8.1167,8.1347,8.1718,8.1771,8.1909,8.2304,8.3047,8.3047,8.2304,8.2304,8.2304,8.2304,8.2304,8.2304,8.2304,8.2304,8.2304,8.2304,8.2304,8.2304,8.2304,8.2304,8.2304,8.2304,8.2304,8.2304,8.2304,8.2304,8.2304,8.2304,8.2304,8.2304,8.2304,8.2304,8.2304,8.2304,8.2304,8.2304,8.2304,8.2304,8.2304,8.2304,8.2304,8.2304,8.2304,8.2304,8.2304,8.2304,8.2304,8.2304,8.2304,8.2304,8.2304,8.2304,8.2304,8.2304,8.2304,8.2304,8.2304,8.2304,8.2304,8.2304,8.2304,8.2304,8.2304,8.2304,8.2304,8.2304,8.2304,8.2304,8.2304,8.2304,8.2304,8.2304,8.2304,8.2304,8.2304,8.2304,8.2304,8.2304,8.2383,3.6007,4.0392,4.2931,3.9623,4.0969,4.2701,4.1247,4.0477,4.0169,4.0285,4.1585,4.4085,4.8711,5.051,5.3318,5.9369,6.4628,6.9732,7.4753,7.7025,7.8912,8.0915,8.1139,8.1093,8.1093,8.1244,8.1298,8.1124,8.143,8.1524,8.1347,8.1504,8.1695,8.1962,8.1967,8.2062,8.2304,8.2422,8.2422,8.2304,8.2304,8.2304,8.2304,8.2304,8.2304,8.2304,8.2304,8.2304,8.2304,8.2304,8.2304,8.2304,8.2304,8.2304,8.2304,8.2304,8.2304,8.2304,8.2304,8.2304,8.2304,8.2304,8.2304,8.2304,8.2304,8.2304,8.2304,8.2304,8.2304,8.2304,8.2304,8.2304,8.2304,8.2304,8.2304,8.2304,8.2304,8.2304,8.2304,8.2304,8.2304,8.2304,8.2304,8.2304,8.2304,8.2304,8.2304,8.2304,8.2304,8.2304,8.2304,8.2304,8.2304,8.2304,8.2304,8.2304,8.2304,8.2304,8.2304,8.2304,8.2304,8.2304,8.2304,8.2304,8.2304,8.2304,8.2304,8.2304,8.2304,8.2304,8.2304,8.2695,3.4353,3.8661,4.2132,4.1546,4.5009,4.824,4.6932,4.597,4.5316,4.5316,4.6663,4.8702,5.1548,5.4203,5.8396,6.5667,6.9975,7.3553,7.6861,7.8511,7.9829,8.1103,8.1347,8.1403,8.1403,8.1532,8.1514,8.1414,8.16,8.164,8.1572,8.167,8.1773,8.1988,8.1992,8.2113,8.2304,8.2304,8.2304,8.2304,8.2304,8.2304,8.2304,8.2304,8.2304,8.2304,8.2304,8.2304,8.2304,8.2304,8.2304,8.2304,8.2304,8.2304,8.2304,8.2304,8.2304,8.2304,8.2304,8.2304,8.2304,8.2304,8.2304,8.2304,8.2304,8.2304,8.2304,8.2304,8.2304,8.2304,8.2304,8.2304,8.2304,8.2304,8.2304,8.2304,8.2304,8.2304,8.2304,8.2304,8.2304,8.2304,8.2304,8.2304,8.2304,8.2304,8.2304,8.2304,8.2304,8.2304,8.2304,8.2304,8.2304,8.2304,8.2304,8.2304,8.2304,8.2304,8.2304,8.2304,8.2304,8.2304,8.2304,8.2304,8.2304,8.2304,8.2304,8.2304,8.2304,8.2304,8.2304,8.2773,3.366,3.7546,4.1508,4.447,4.8625,5.2125,5.2654,5.1356,5.0279,5.1279,5.251,5.3654,5.4511,5.8473,6.3767,7.0478,7.3882,7.6415,7.8631,7.9823,8.0704,8.1402,8.1618,8.1688,8.1688,8.1725,8.1732,8.1688,8.1805,8.1831,8.1753,8.1792,8.1899,8.2062,8.2062,8.2127,8.2304,8.2304,8.2304,8.2304,8.2304,8.2304,8.2304,8.2304,8.2304,8.2304,8.2304,8.2304,8.2304,8.2304,8.2304,8.2304,8.2304,8.2304,8.2304,8.2304,8.2304,8.2304,8.2304,8.2304,8.2304,8.2304,8.2304,8.2304,8.2304,8.2304,8.2304,8.2304,8.2304,8.2304,8.2304,8.2304,8.2304,8.2304,8.2304,8.2304,8.2304,8.2304,8.2304,8.2304,8.2304,8.2304,8.2304,8.2304,8.2304,8.2304,8.2304,8.2304,8.2304,8.2304,8.2304,8.2304,8.2304,8.2304,8.2304,8.2304,8.2304,8.2304,8.2304,8.2304,8.2304,8.2304,8.2304,8.2304,8.2304,8.2304,8.2304,8.2304,8.2383,8.2617,8.2617,8.3086,3.7315,4.0239,4.2701,4.6817,4.8163,4.9702,5.4357,5.351,5.2846,5.6857,5.778,5.8088,5.8896,6.382,6.9052,7.2971,7.6361,7.8928,8.0098,8.1034,8.1625,8.1664,8.1672,8.1688,8.1688,8.1873,8.1894,8.1695,8.2053,8.2173,8.1984,8.217,8.2264,8.2265,8.2265,8.2304,8.2304,8.2304,8.2304,8.2304,8.2304,8.2304,8.2304,8.2304,8.2304,8.2304,8.2304,8.2304,8.2304,8.2304,8.2304,8.2304,8.2304,8.2304,8.2304,8.2304,8.2304,8.2304,8.2304,8.2304,8.2304,8.2304,8.2304,8.2304,8.2304,8.2304,8.2304,8.2304,8.2304,8.2304,8.2304,8.2304,8.2304,8.2304,8.2304,8.2304,8.2304,8.2304,8.2304,8.2304,8.2304,8.2304,8.2304,8.2304,8.2304,8.2304,8.2304,8.2304,8.2304,8.2304,8.2304,8.2304,8.2304,8.2304,8.2304,8.2304,8.2304,8.2304,8.2304,8.2304,8.2304,8.2304,8.2304,8.2304,8.2304,8.2304,8.2304,8.2304,8.2734,8.3515,8.3515,8.3984,3.443,3.8507,4.2692,4.6423,4.9317,5.2318,5.6395,5.8165,5.9896,6.3128,6.4205,6.4666,6.4974,6.7321,7.0375,7.396,7.6936,7.9347,8.0995,8.1591,8.1883,8.1883,8.1992,8.2065,8.2065,8.2127,8.217,8.2068,8.222,8.2265,8.2176,8.2264,8.2304,8.2304,8.2304,8.2304,8.2304,8.2304,8.2304,8.2304,8.2304,8.2304,8.2304,8.2304,8.2304,8.2304,8.2304,8.2304,8.2304,8.2304,8.2304,8.2304,8.2304,8.2304,8.2304,8.2304,8.2304,8.2304,8.2304,8.2304,8.2304,8.2304,8.2304,8.2304,8.2304,8.2304,8.2304,8.2304,8.2304,8.2304,8.2304,8.2304,8.2304,8.2304,8.2304,8.2304,8.2304,8.2304,8.2304,8.2304,8.2304,8.2304,8.2304,8.2304,8.2304,8.2304,8.2304,8.2304,8.2304,8.2304,8.2304,8.2304,8.2304,8.2304,8.2304,8.2304,8.2304,8.2304,8.2304,8.2304,8.2304,8.2304,8.2304,8.2304,8.2304,8.2304,8.2304,8.2304,8.2461,8.2812,8.3359,8.4062,3.4045,3.8277,4.3085,4.6778,5.0664,5.478,5.9281,6.1858,6.432,6.7975,6.8552,6.8538,6.909,6.9528,7.1047,7.4868,7.7485,7.9664,8.1633,8.1996,8.2074,8.2074,8.222,8.2304,8.2304,8.2304,8.2304,8.2304,8.2304,8.2304,8.2304,8.2304,8.2304,8.2304,8.2304,8.2304,8.2304,8.2304,8.2304,8.2304,8.2304,8.2304,8.2304,8.2304,8.2304,8.2304,8.2304,8.2304,8.2304,8.2304,8.2304,8.2304,8.2304,8.2304,8.2304,8.2304,8.2304,8.2304,8.2304,8.2304,8.2304,8.2304,8.2304,8.2304,8.2304,8.2304,8.2304,8.2304,8.2304,8.2304,8.2304,8.2304,8.2304,8.2304,8.2304,8.2304,8.2304,8.2304,8.2304,8.2304,8.2304,8.2304,8.2304,8.2304,8.2304,8.2304,8.2304,8.2304,8.2304,8.2304,8.2304,8.2304,8.2304,8.2304,8.2304,8.2304,8.2304,8.2304,8.2304,8.2304,8.2304,8.2304,8.2304,8.2304,8.2304,8.2304,8.2304,8.2304,8.2422,8.2734,8.3594,8.4336,3.7546,4.0508,4.4162,4.8355,5.201,5.6357,6.3089,6.3974,6.5051,7.1014,7.0206,6.8975,7.0629,7.0429,7.1511,7.5889,7.8184,8.0077,8.2031,8.2304,8.2304,8.2304,8.2304,8.2304,8.2304,8.2304,8.2304,8.2304,8.2304,8.2304,8.2304,8.2304,8.2304,8.2304,8.2304,8.2304,8.2304,8.2304,8.2304,8.2304,8.2304,8.2304,8.2304,8.2304,8.2304,8.2304,8.2304,8.2304,8.2304,8.2304,8.2304,8.2304,8.2304,8.2304,8.2304,8.2304,8.2304,8.2304,8.2304,8.2304,8.2304,8.2304,8.2304,8.2304,8.2304,8.2304,8.2304,8.2304,8.2304,8.2304,8.2304,8.2304,8.2304,8.2304,8.2304,8.2304,8.2304,8.2304,8.2304,8.2304,8.2304,8.2304,8.2304,8.2304,8.2304,8.2304,8.2304,8.2304,8.2304,8.2304,8.2304,8.2304,8.2304,8.2304,8.2304,8.2304,8.2304,8.2304,8.2304,8.2304,8.2304,8.2304,8.2304,8.2304,8.2304,8.2304,8.2304,8.2304,8.2734,8.3594,8.4492,8.4883,3.6962,4.1354,4.6509,4.9548,5.5549,6.1704,6.5474,6.7128,6.9167,7.3899,7.3322,7.2129,7.2629,7.3172,7.4179,7.6271,7.8691,8.078,8.2108,8.2304,8.2304,8.2304,8.2304,8.2304,8.2304,8.2304,8.2304,8.2304,8.2304,8.2304,8.2304,8.2304,8.2304,8.2304,8.2304,8.2304,8.2304,8.2304,8.2304,8.2304,8.2304,8.2304,8.2304,8.2304,8.2304,8.2304,8.2304,8.2304,8.2304,8.2304,8.2304,8.2304,8.2304,8.2304,8.2304,8.2304,8.2304,8.2304,8.2304,8.2304,8.2304,8.2304,8.2304,8.2304,8.2304,8.2304,8.2304,8.2304,8.2304,8.2304,8.2304,8.2304,8.2304,8.2304,8.2304,8.2304,8.2304,8.2304,8.2304,8.2304,8.2304,8.2304,8.2304,8.2304,8.2304,8.2304,8.2304,8.2304,8.2304,8.2304,8.2304,8.2304,8.2304,8.2304,8.2304,8.2304,8.2304,8.2304,8.2304,8.2304,8.2304,8.2304,8.2304,8.2304,8.2304,8.2304,8.2304,8.2304,8.2422,8.2695,8.3594,8.4297,4.07,4.524,5.0356,5.4252,5.9281,6.4397,6.8667,7.0706,7.2514,7.5399,7.4742,7.3806,7.4501,7.4673,7.5383,7.7395,7.9186,8.0765,8.2109,8.2304,8.2304,8.2304,8.2304,8.2304,8.2304,8.2304,8.2304,8.2304,8.2304,8.2304,8.2304,8.2304,8.2304,8.2304,8.2304,8.2304,8.2304,8.2304,8.2304,8.2304,8.2304,8.2304,8.2304,8.2304,8.2304,8.2304,8.2304,8.2304,8.2304,8.2304,8.2304,8.2304,8.2304,8.2304,8.2304,8.2304,8.2304,8.2304,8.2304,8.2304,8.2304,8.2304,8.2304,8.2304,8.2304,8.2304,8.2304,8.2304,8.2304,8.2304,8.2304,8.2304,8.2304,8.2304,8.2304,8.2304,8.2304,8.2304,8.2304,8.2304,8.2304,8.2304,8.2304,8.2304,8.2304,8.2304,8.2304,8.2304,8.2304,8.2304,8.2304,8.2304,8.2304,8.2304,8.2304,8.2304,8.2304,8.2304,8.2304,8.2304,8.2304,8.2304,8.2304,8.2304,8.2304,8.2304,8.2304,8.2304,8.2304,8.2304,8.3203,8.4062,4.6432,5.0433,5.4626,6.0523,6.3012,6.5692,7.2129,7.4168,7.4938,7.5822,7.4963,7.4485,7.6024,7.5411,7.568,7.8796,7.9517,8.0273,8.1953,8.2187,8.2187,8.2187,8.2265,8.2265,8.2187,8.2265,8.2304,8.2304,8.2304,8.2304,8.2304,8.2304,8.2304,8.2304,8.2304,8.2304,8.2304,8.2304,8.2304,8.2304,8.2304,8.2304,8.2304,8.2304,8.2304,8.2304,8.2304,8.2304,8.2304,8.2304,8.2304,8.2304,8.2304,8.2304,8.2304,8.2304,8.2304,8.2304,8.2304,8.2304,8.2304,8.2304,8.2304,8.2304,8.2304,8.2304,8.2304,8.2304,8.2304,8.2304,8.2304,8.2304,8.2304,8.2304,8.2304,8.2304,8.2304,8.2304,8.2304,8.2304,8.2304,8.2304,8.2304,8.2304,8.2304,8.2304,8.2304,8.2304,8.2304,8.2304,8.2304,8.2304,8.2304,8.2304,8.2304,8.2304,8.2304,8.2304,8.2304,8.2304,8.2304,8.2304,8.2304,8.2304,8.2304,8.2304,8.2304,8.2304,8.2304,8.2304,8.3125,8.3984,4.447,4.9086,5.4472,5.9742,6.5205,7.0167,7.3668,7.4591,7.4938,7.5822,7.589,7.5879,7.6217,7.689,7.7589,7.8327,7.9166,8.0078,8.1133,8.1289,8.1289,8.1289,8.1875,8.2031,8.1367,8.1914,8.2304,8.2304,8.2304,8.2304,8.2304,8.2304,8.2304,8.2304,8.2304,8.2304,8.2304,8.2304,8.2304,8.2304,8.2304,8.2304,8.2304,8.2304,8.2304,8.2304,8.2304,8.2304,8.2304,8.2304,8.2304,8.2304,8.2304,8.2304,8.2304,8.2304,8.2304,8.2304,8.2304,8.2304,8.2304,8.2304,8.2304,8.2304,8.2304,8.2304,8.2304,8.2304,8.2304,8.2304,8.2304,8.2304,8.2304,8.2304,8.2304,8.2304,8.2304,8.2304,8.2304,8.2304,8.2304,8.2304,8.2304,8.2304,8.2304,8.2304,8.2304,8.2304,8.2304,8.2304,8.2304,8.2304,8.2304,8.2304,8.2304,8.2304,8.2304,8.2304,8.2304,8.2304,8.2304,8.2304,8.2304,8.2304,8.2304,8.2304,8.2304,8.2304,8.2304,8.2304,8.25,8.3398,4.5509,5.0471,5.5895,6.2243,6.7398,7.136,7.3091,7.3822,7.4403,7.5324,7.5996,7.6484,7.6552,7.7199,7.7872,7.8262,7.8785,7.9414,8.0273,8.039,8.039,8.039,8.0781,8.0898,8.0429,8.1172,8.1679,8.1679,8.207,8.2304,8.2304,8.2304,8.2304,8.2304,8.2304,8.2304,8.2304,8.2304,8.2304,8.2304,8.2304,8.2304,8.2304,8.2304,8.2304,8.2304,8.2304,8.2304,8.2304,8.2304,8.2304,8.2304,8.2304,8.2304,8.2304,8.2304,8.2304,8.2304,8.2304,8.2304,8.2304,8.2304,8.2304,8.2304,8.2304,8.2304,8.2304,8.2304,8.2304,8.2304,8.2304,8.2304,8.2304,8.2304,8.2304,8.2304,8.2304,8.2304,8.2304,8.2304,8.2304,8.2304,8.2304,8.2304,8.2304,8.2304,8.2304,8.2304,8.2304,8.2304,8.2304,8.2304,8.2304,8.2264,8.2171,8.217,8.217,8.217,8.217,8.2218,8.2304,8.2304,8.2304,8.2304,8.2304,8.2304,8.2304,8.2304,8.2304,8.2304,8.2304,8.3008,4.5624,5.1471,5.7473,6.482,6.859,7.0744,7.1745,7.2671,7.3626,7.4612,7.5647,7.6482,7.686,7.7055,7.7422,7.8164,7.8281,7.8555,7.9375,7.9492,7.9492,7.9492,7.9609,7.9648,7.9492,8.0273,8.0781,8.0781,8.1445,8.1914,8.207,8.1914,8.1992,8.2304,8.2148,8.2148,8.2304,8.2304,8.2304,8.2304,8.2304,8.2304,8.2304,8.2304,8.2304,8.2304,8.2304,8.2304,8.2304,8.2304,8.2304,8.2304,8.2304,8.2304,8.2304,8.2304,8.2304,8.2304,8.2304,8.2304,8.2304,8.2304,8.2265,8.2263,8.2263,8.2263,8.2263,8.2263,8.2265,8.2304,8.2304,8.2304,8.2304,8.2304,8.2304,8.2304,8.2304,8.2304,8.2304,8.2304,8.2304,8.2304,8.2304,8.2304,8.2304,8.2304,8.2304,8.2304,8.2304,8.2304,8.2304,8.2264,8.2263,8.2171,8.1971,8.1962,8.1962,8.1962,8.198,8.2065,8.2223,8.2265,8.2304,8.2304,8.2304,8.2304,8.2304,8.2304,8.2304,8.2304,8.2304,8.2773,3.8854,4.7432,5.7203,6.3397,6.6859,6.9129,7.0706,7.1863,7.2907,7.3931,7.4856,7.5788,7.6704,7.7055,7.7226,7.7344,7.7383,7.7656,7.8555,7.8672,7.8672,7.8672,7.9297,7.9414,7.8711,7.9414,7.9883,7.9883,7.9961,8.039,8.1133,8.0469,8.0742,8.2265,8.1562,8.1523,8.2304,8.2304,8.2304,8.2304,8.2304,8.2304,8.2304,8.2304,8.2304,8.2304,8.2304,8.2304,8.2304,8.2304,8.2304,8.2304,8.2304,8.2304,8.2304,8.2304,8.2304,8.2304,8.2304,8.2304,8.2304,8.2304,8.2175,8.2049,8.2049,8.2049,8.2049,8.2049,8.2171,8.2304,8.2304,8.2304,8.2304,8.2304,8.2304,8.2304,8.2304,8.2304,8.2304,8.2304,8.2304,8.2304,8.2304,8.2304,8.2304,8.2304,8.2304,8.2304,8.2304,8.2304,8.2222,8.2059,8.2049,8.1967,8.1778,8.1725,8.1725,8.1725,8.1894,8.1996,8.2049,8.2219,8.2304,8.2304,8.2304,8.2304,8.2304,8.2304,8.2304,8.2304,8.2304,8.2773,4.1085,4.8509,5.5742,6.1704,6.4798,6.6814,6.8552,7.0118,7.1521,7.2479,7.3412,7.4347,7.5406,7.6091,7.6484,7.6484,7.6875,7.7344,7.7734,7.7773,7.7773,7.7773,7.8086,7.8164,7.7812,7.8515,7.9023,7.9023,7.9453,7.9883,8.0234,7.9922,8.0039,8.082,8.0469,8.0469,8.0859,8.1328,8.1755,8.2122,8.2122,8.2065,8.1976,8.1976,8.2071,8.2304,8.2304,8.2304,8.2304,8.2304,8.2304,8.2304,8.2304,8.2304,8.2304,8.2304,8.2304,8.2304,8.2304,8.2221,8.2122,8.2122,8.1992,8.1844,8.1844,8.1899,8.1992,8.1992,8.2127,8.2304,8.2304,8.2304,8.2304,8.2304,8.2304,8.2304,8.2304,8.2304,8.2304,8.2304,8.2304,8.2304,8.2304,8.2304,8.2304,8.2304,8.2304,8.2304,8.2304,8.2218,8.2113,8.1996,8.1894,8.1732,8.1543,8.1524,8.1524,8.1524,8.1627,8.1695,8.1837,8.1904,8.2,8.2122,8.2223,8.2304,8.2304,8.2304,8.2304,8.2304,8.2304,8.25,4.1885,4.724,5.1568,5.8224,6.1717,6.4113,6.629,6.8256,6.9935,7.1168,7.1943,7.2711,7.3749,7.4844,7.5586,7.5586,7.6133,7.6523,7.6523,7.6523,7.6601,7.6836,7.6875,7.6953,7.7187,7.7773,7.8164,7.8164,7.8711,7.914,7.9375,7.918,7.9258,7.9687,7.9492,7.9492,7.9687,8.0351,8.1006,8.168,8.168,8.1694,8.1688,8.1688,8.1867,8.2168,8.2218,8.2264,8.2304,8.2304,8.2304,8.2304,8.2304,8.2304,8.2304,8.2304,8.2265,8.2221,8.2221,8.2071,8.1909,8.1909,8.1805,8.1636,8.1636,8.1746,8.1909,8.1909,8.2115,8.2304,8.2304,8.2304,8.2304,8.2304,8.2304,8.2304,8.2304,8.2304,8.2304,8.2304,8.2304,8.2304,8.2304,8.2304,8.2304,8.2304,8.2304,8.2265,8.2222,8.2071,8.1971,8.1861,8.1695,8.1534,8.1349,8.1324,8.1324,8.1324,8.1359,8.1469,8.1627,8.1656,8.1753,8.1904,8.2065,8.2218,8.2304,8.2304,8.2304,8.2304,8.2263,8.2221,3.6353,3.9777,4.3196,5.1734,5.6969,6.0979,6.4447,6.6673,6.8518,7.0203,7.0686,7.1093,7.1953,7.3515,7.4687,7.4687,7.4726,7.4726,7.4726,7.4726,7.5039,7.5859,7.5976,7.6289,7.7109,7.7226,7.7265,7.7265,7.7305,7.7695,7.8515,7.7773,7.8047,7.9648,7.8945,7.8945,7.9687,7.9726,8.0108,8.0778,8.0778,8.1104,8.1688,8.1688,8.1695,8.1725,8.1914,8.212,8.2304,8.2304,8.2304,8.2304,8.2304,8.2304,8.2304,8.2304,8.2175,8.2039,8.2039,8.1883,8.1742,8.1742,8.1582,8.143,8.143,8.1553,8.1742,8.1742,8.1992,8.2304,8.2304,8.2304,8.2304,8.2304,8.2304,8.2304,8.2304,8.2304,8.2304,8.2304,8.2304,8.2304,8.2304,8.2304,8.2304,8.2304,8.2304,8.2222,8.2049,8.1996,8.1855,8.148,8.1403,8.1336,8.1116,8.1124,8.1124,8.1124,8.1272,8.1418,8.143,8.1609,8.1688,8.1742,8.1749,8.1909,8.2304,8.2304,8.2304,8.2304,8.2115,8.2039,3.3699,3.7161,4.1147,4.7038,5.182,5.5986,5.9508,6.3037,6.6085,6.7842,6.867,6.9336,7.0195,7.2226,7.3789,7.3789,7.4258,7.4609,7.4609,7.4609,7.4726,7.5039,7.5078,7.5195,7.5508,7.6055,7.6367,7.6367,7.6875,7.7344,7.7656,7.7383,7.7461,7.8086,7.7812,7.8086,7.8906,7.8814,7.9069,7.9676,8.01,8.0368,8.0499,8.1079,8.1383,8.1494,8.1591,8.171,8.1904,8.1904,8.1904,8.1904,8.1904,8.1904,8.1904,8.1904,8.1873,8.1825,8.1825,8.1695,8.1532,8.1532,8.1359,8.1186,8.1186,8.1361,8.1524,8.1648,8.1889,8.2125,8.2265,8.2218,8.2115,8.2115,8.2065,8.2071,8.2264,8.2304,8.2304,8.2304,8.2304,8.2304,8.2304,8.2304,8.2304,8.2304,8.2176,8.2068,8.1996,8.1753,8.1553,8.143,8.1298,8.1167,8.1108,8.1093,8.1093,8.1093,8.1152,8.1186,8.1186,8.1285,8.1371,8.1483,8.1532,8.1662,8.1904,8.1904,8.1904,8.1904,8.185,8.1825,3.1237,3.4546,3.8878,4.4133,4.7475,5.0891,5.6448,5.9799,6.2461,6.5078,6.6523,6.7656,6.8789,7.043,7.1758,7.2344,7.3164,7.3711,7.3711,7.3711,7.3828,7.414,7.414,7.4297,7.457,7.5117,7.5469,7.5469,7.6015,7.6445,7.6758,7.6758,7.6914,7.7187,7.7187,7.7461,7.8047,7.7859,7.8072,7.8676,7.9068,7.9301,7.9361,7.9977,8.0319,8.0435,8.0744,8.1176,8.1688,8.1688,8.1688,8.1688,8.1688,8.1688,8.1688,8.1688,8.1679,8.1609,8.1609,8.1469,8.1285,8.1285,8.12,8.1093,8.1093,8.1256,8.1414,8.1563,8.1725,8.1914,8.2062,8.1992,8.1894,8.1894,8.1904,8.198,8.217,8.2264,8.2304,8.2304,8.2304,8.2304,8.2304,8.2224,8.2218,8.2218,8.2046,8.1873,8.1819,8.1563,8.1371,8.1298,8.1181,8.1093,8.1093,8.1093,8.1093,8.1093,8.1093,8.1093,8.1093,8.1093,8.1137,8.1311,8.1285,8.1347,8.1512,8.1615,8.1688,8.168,8.1645,8.1563,0.0,0.0,0.0,4.2773,4.3955,4.5908,5.5351,5.6875,5.7539,6.1953,6.418,6.5898,6.7734,6.8125,6.8672,7.0312,7.1328,7.1914,7.1914,7.1953,7.2265,7.3125,7.3242,7.3594,7.4453,7.4531,7.457,7.457,7.4609,7.4961,7.582,7.5898,7.6289,7.7148,7.7187,7.7187,7.7187,7.6998,7.7209,7.7781,7.7651,7.7897,7.8492,7.8477,7.8477,7.8554,7.94,8.0473,8.1625,8.1664,8.1664,8.1664,8.1664,8.1664,8.1664,8.1664,8.1563,8.1395,8.1395,8.1258,8.1093,8.1093,8.1093,8.1093,8.1093,8.1242,8.1395,8.1407,8.1534,8.1672,8.1672,8.1672,8.1672,8.1672,8.185,8.1984,8.1984,8.2127,8.2265,8.2304,8.2304,8.2304,8.2265,8.212,8.1988,8.1988,8.1831,8.1636,8.1453,8.1407,8.1311,8.1139,8.1093,8.1093,8.1093,8.1093,8.1093,8.1093,8.1093,8.1093,8.1093,8.1093,8.1093,8.1093,8.1093,8.1093,8.1093,8.1512,8.1664,8.1703,8.1491,8.1298,2.955,0.0,0.0,0.0,0.0,0.0,4.6445,4.8437,5.1094,5.789,5.918,6.039,6.4609,6.5898,6.668,6.7773,6.918,7.0156,7.0195,7.0703,7.1133,7.1406,7.1992,7.2461,7.2695,7.3281,7.3672,7.3672,7.4258,7.4726,7.4961,7.5547,7.6015,7.625,7.6875,7.7187,7.7187,7.6856,7.6748,7.6925,7.726,7.7463,7.763,7.8207,7.8477,7.8515,7.8746,7.9071,7.9494,8.0756,8.1258,8.1258,8.1258,8.1258,8.1258,8.1258,8.1228,8.1181,8.1181,8.1146,8.1093,8.1093,8.1093,8.1093,8.1093,8.1131,8.12,8.1347,8.1436,8.1491,8.1491,8.1491,8.1491,8.1491,8.1514,8.1618,8.1732,8.1837,8.1899,8.2056,8.2068,8.2049,8.1889,8.1831,8.176,8.176,8.1627,8.1469,8.1418,8.1271,8.1137,8.1108,8.1093,8.1093,8.1093,8.1093,8.1093,8.1093,8.1093,8.1093,8.1093,8.1093,8.1093,8.1093,8.1093,8.1093,8.1093,8.12,8.1258,8.1258,8.12,8.1161,0.0,0.0,0.0,3.7329,0.0,0.0,4.4687,4.582,4.7539,5.3867,5.5664,5.7109,6.0469,6.2109,6.332,6.4531,6.5859,6.7383,6.9258,6.9883,7.0156,7.0195,7.0625,7.0937,7.0937,7.1719,7.2186,7.2137,7.2918,7.3535,7.3822,7.4642,7.5266,7.5654,7.6122,7.6591,7.6942,7.6618,7.6493,7.6484,7.6675,7.6746,7.6784,7.7246,7.7438,7.7476,7.7823,7.7977,7.8092,7.9438,8.0246,8.0592,8.0977,8.1093,8.1093,8.1093,8.1093,8.1093,8.1093,8.1093,8.1093,8.1093,8.1093,8.1093,8.1093,8.1093,8.11,8.1256,8.1271,8.1271,8.1271,8.1271,8.1271,8.1271,8.1349,8.1425,8.1543,8.1662,8.1718,8.1855,8.1873,8.185,8.1703,8.1645,8.1582,8.1582,8.1418,8.1271,8.1271,8.1167,8.1093,8.1093,8.1093,8.1093,8.1093,8.1093,8.1093,8.1093,8.1093,8.1093,8.1093,8.1093,8.1093,8.1093,8.1093,8.1093,8.1093,8.1093,8.1093,8.1093,8.1093,8.1093,3.6696,3.7681,0.0,0.0,4.0634,0.0,4.6172,4.6055,4.5703,4.9726,5.2305,5.4297,5.5625,5.7226,5.8867,6.0586,6.1836,6.4062,6.832,6.8945,6.9023,6.918,6.9258,6.9336,6.9453,7.0156,7.0503,7.0369,7.1097,7.1867,7.2627,7.3444,7.4223,7.4994,7.5189,7.5656,7.6466,7.6361,7.6306,7.6295,7.6081,7.6015,7.6015,7.6015,7.6015,7.6053,7.6823,7.7169,7.7207,7.8015,7.8861,7.9746,8.0516,8.0823,8.0823,8.0939,8.0977,8.0977,8.1054,8.1093,8.1093,8.1093,8.1093,8.1093,8.1093,8.1093,8.1093,8.1093,8.1093,8.1093,8.1093,8.1093,8.1093,8.1093,8.1242,8.1359,8.1359,8.1532,8.1615,8.1615,8.1631,8.164,8.1653,8.1501,8.1359,8.1359,8.12,8.1093,8.1093,8.1093,8.1093,8.1093,8.1093,8.1093,8.1093,8.1093,8.1093,8.1093,8.1093,8.1093,8.1093,8.1093,8.1093,8.1093,8.1093,8.1093,8.1093,8.1093,8.1093,8.1093,8.1093,8.1093,4.1362,4.2611,4.3897,4.1124,4.2489,0.0,4.0312,4.0781,4.2578,4.4766,4.5039,4.625,5.0625,5.2266,5.3476,5.5234,5.8008,6.1211,6.4805,6.5898,6.6601,6.7305,6.8008,6.8672,6.9375,6.957,6.9604,6.9474,7.0089,7.0868,7.1718,7.2581,7.3126,7.3282,7.4605,7.5383,7.5539,7.6051,7.6295,7.6284,7.612,7.6015,7.6015,7.6015,7.6015,7.6015,7.6169,7.6245,7.6322,7.7169,7.8015,7.8746,7.8938,7.9015,7.9092,7.9785,8.0054,8.0169,8.0862,8.1093,8.1093,8.1093,8.1093,8.1093,8.1093,8.1093,8.1093,8.1093,8.1093,8.1093,8.1093,8.1093,8.1093,8.1093,8.1116,8.1176,8.1176,8.1196,8.1214,8.1214,8.1361,8.1418,8.1217,8.1181,8.1176,8.1176,8.1139,8.1093,8.1093,8.1093,8.1093,8.1093,8.1093,8.1093,8.1093,8.1093,8.1093,8.1093,8.1093,8.1093,8.1093,8.1093,8.1093,8.1093,8.1093,8.1093,8.1093,8.1093,8.1093,8.1093,8.1093,8.1093,4.5234,4.5632,4.6448,4.5158,4.5265,0.0,0.0,4.2422,4.2656,4.5664,4.457,4.4375,4.875,4.9531,5.0078,5.1836,5.4648,5.7226,5.8906,6.25,6.5117,6.5547,6.5976,6.6406,6.6836,6.7533,6.8267,6.8909,6.9162,6.9682,7.0563,7.1038,7.1657,7.2471,7.3323,7.3943,7.4408,7.514,7.5517,7.5517,7.5831,7.6015,7.6015,7.6015,7.6015,7.6015,7.6015,7.6015,7.6015,7.6476,7.6899,7.7323,7.8169,7.8477,7.8554,7.8977,7.9131,7.9285,8.0169,8.0439,8.0516,8.0977,8.1093,8.1093,8.1093,8.1093,8.1093,8.1093,8.1093,8.1093,8.1093,8.1093,8.1093,8.1093,8.1093,8.1093,8.1093,8.1093,8.1093,8.1093,8.1181,8.1214,8.1124,8.1093,8.1093,8.1093,8.1093,8.1093,8.1093,8.1093,8.1093,8.1093,8.1093,8.1093,8.1093,8.1093,8.1093,8.1093,8.1093,8.1093,8.1093,8.1093,8.1093,8.1093,8.1093,8.1093,8.1093,8.1093,8.1093,8.1093,8.1093,8.1093,4.9052,4.8712,4.9222,4.9698,4.8509,4.7305,0.0,0.0,0.0,4.6875,4.5195,4.4141,4.7109,4.707,4.707,4.8476,5.1133,5.2891,5.2578,5.789,6.1992,6.25,6.3008,6.3398,6.3515,6.4462,6.5878,6.7783,6.7325,6.759,6.9129,6.9513,7.0321,7.1668,7.2014,7.2552,7.3245,7.4053,7.4476,7.4476,7.5361,7.5745,7.5745,7.5938,7.6015,7.6015,7.6015,7.6015,7.6015,7.6015,7.6015,7.613,7.7476,7.8015,7.8054,7.8207,7.8246,7.84,7.9438,7.9823,7.9939,8.0823,8.1093,8.1093,8.1093,8.1093,8.1093,8.1093,8.1093,8.1093,8.1093,8.1093,8.1093,8.1093,8.1093,8.1093,8.1093,8.1093,8.1093,8.1093,8.1093,8.1093,8.1093,8.1093,8.1093,8.1093,8.1093,8.1093,8.1093,8.1093,8.1093,8.1093,8.1093,8.1093,8.1093,8.1093,8.1093,8.1093,8.1093,8.1093,8.1093,8.1093,8.1093,8.1093,8.1093,8.1045,8.0888,8.0888,8.0975,8.1093,8.1093,8.1093,0.0,0.0,0.0,5.0074,5.2187,5.3164,4.5,0.0,4.6055,4.2773,0.0,4.1836,4.293,0.0,0.0,4.3242,4.6758,4.8945,4.7383,5.0469,5.3711,5.6055,5.8359,6.0078,6.0781,6.0093,6.1187,6.4975,6.3004,6.332,6.7167,6.8859,6.9783,6.9975,7.1437,7.2245,7.236,7.3206,7.363,7.3668,7.4476,7.4861,7.4861,7.5668,7.6015,7.6015,7.6015,7.6015,7.6015,7.6015,7.6015,7.6015,7.6207,7.6284,7.6361,7.713,7.7438,7.7669,7.9246,7.9823,7.9939,8.0823,8.1093,8.1093,8.1093,8.1093,8.1093,8.1093,8.1093,8.1093,8.1093,8.1093,8.1093,8.1093,8.1093,8.1093,8.1093,8.1093,8.1093,8.1093,8.1093,8.1093,8.1093,8.1093,8.1093,8.1093,8.1093,8.1093,8.1093,8.1093,8.1093,8.1093,8.1093,8.1093,8.1093,8.1093,8.1093,8.1093,8.1093,8.1093,8.1093,8.1093,8.1093,8.1093,8.1093,8.0822,8.0201,8.0201,8.0517,8.1093,8.1093,8.1093,0.0,0.0,5.5038,5.2498,5.2734,5.2422,4.793,4.6484,4.6016,4.5742,0.0,0.0,0.0,0.0,0.0,0.0,4.3945,4.4531,4.2812,4.5078,4.8633,5.3242,5.4297,5.5545,5.7791,5.7549,5.8318,6.0958,6.0012,6.0973,6.4705,6.6551,6.8167,6.9667,7.0398,7.0975,7.1437,7.2322,7.2745,7.2745,7.4091,7.4707,7.4745,7.5592,7.6015,7.6015,7.6015,7.6015,7.6015,7.6015,7.6015,7.6015,7.6015,7.6015,7.6053,7.6399,7.6553,7.6707,7.7938,7.8669,7.9285,8.0631,8.1093,8.1016,8.0516,8.0708,8.0977,8.0477,8.0708,8.1093,8.1093,8.1093,8.1093,8.1093,8.1093,8.1093,8.1093,8.1093,8.1093,8.1093,8.1093,8.1093,8.1093,8.1093,8.1093,8.1093,8.1093,8.1093,8.1093,8.1093,8.1093,8.1093,8.1093,8.1093,8.1093,8.1093,8.1093,8.1093,8.1093,8.1093,8.1093,8.1093,8.0943,8.0517,8.0517,8.0221,7.9578,7.9578,7.9744,8.0007,8.0007,8.0007,5.5058,5.5385,5.5662,5.3787,5.2539,5.1289,4.9531,4.7734,4.6758,4.793,4.625,0.0,0.0,0.0,0.0,0.0,0.0,4.1719,3.9805,4.1133,4.418,4.9258,5.0586,5.2182,5.4976,5.4379,5.4824,5.7296,5.6502,5.779,6.2066,6.4126,6.6244,6.859,6.936,6.9975,7.0552,7.1398,7.1822,7.186,7.3322,7.4014,7.4053,7.5168,7.563,7.5668,7.5899,7.6015,7.6015,7.6015,7.6015,7.6015,7.6015,7.6015,7.6015,7.6015,7.6015,7.613,7.6976,7.7977,7.9054,8.0323,8.0746,8.0631,7.9977,8.0092,8.0246,7.9631,8.0054,8.0746,8.0746,8.0939,8.1093,8.1093,8.1093,8.1093,8.1093,8.1093,8.1016,8.0785,8.0939,8.1016,8.0785,8.0939,8.1093,8.1093,8.1093,8.1093,8.1093,8.1093,8.1093,8.1093,8.1093,8.1093,8.1093,8.1093,8.1093,8.1093,8.0943,8.0838,8.0838,8.0681,8.0333,7.9868,7.9868,7.9556,7.8938,7.8938,7.884,7.8666,7.9034,7.9198,5.7702,5.8,5.7619,5.2694,5.207,5.1562,4.7383,4.8281,4.9336,4.6875,4.8281,0.0,0.0,0.0,0.0,0.0,0.0,0.0,0.0,3.8711,3.9766,4.2422,4.7187,5.0854,5.2478,4.9638,4.9682,5.4546,5.1791,5.2801,5.9455,6.21,6.4205,6.5974,6.8398,6.9706,6.9744,7.0552,7.0937,7.0937,7.186,7.2283,7.2322,7.3976,7.4745,7.4784,7.563,7.6015,7.6015,7.6015,7.6015,7.6015,7.6015,7.6015,7.6015,7.6015,7.6015,7.613,7.6976,7.8361,7.9785,7.9823,7.9862,7.9862,7.9823,7.9246,7.8592,7.8554,7.9169,7.9862,7.9862,8.0477,8.1093,8.1093,8.1093,8.1093,8.1093,8.1093,8.0862,8.0015,8.0516,8.0823,7.9977,8.0554,8.1093,8.1093,8.1093,8.1093,8.1093,8.1093,8.1093,8.1093,8.1093,8.1093,8.1093,8.1093,8.1093,8.1093,8.0481,8.0144,8.0144,7.9556,7.9244,7.9244,7.9244,7.8914,7.8336,7.8336,7.8016,7.7396,7.8653,7.9198,5.8369,5.8979,5.8829,5.4959,5.3789,5.2578,4.8867,4.9141,4.9453,4.6836,4.8398,4.9414,0.0,0.0,0.0,0.0,0.0,0.0,0.0,3.6523,3.7851,4.043,4.4297,4.6523,4.589,4.6266,4.7487,4.974,5.0812,5.3327,5.7826,6.1505,6.4249,6.5833,6.7821,6.9129,6.9706,7.0514,7.0898,7.0898,7.1783,7.2206,7.2245,7.3399,7.4207,7.4707,7.5014,7.5476,7.6015,7.6015,7.6015,7.6015,7.6015,7.6015,7.6015,7.6015,7.6015,7.613,7.6976,7.7669,7.8246,7.8784,7.8938,7.8823,7.8323,7.8323,7.84,7.7861,7.8284,7.9054,7.9669,7.9592,7.9515,8.0092,7.9785,7.9361,7.9361,7.9361,7.9285,7.9015,7.9631,8.0169,7.9862,8.0516,8.1093,8.1093,8.1093,8.1093,8.1093,8.1093,8.1093,8.1093,8.1093,8.1093,8.1093,8.0677,8.0445,8.0445,7.9847,7.9513,7.9513,7.9313,7.901,7.8602,7.8576,7.8272,7.7659,7.7659,7.751,7.7304,7.7731,7.7951,5.928,5.9733,5.9555,5.6523,5.5351,5.3945,5.0195,5.0508,5.082,4.8203,4.9023,4.9961,0.0,0.0,0.0,0.0,0.0,0.0,0.0,3.6172,3.7305,3.8398,4.1562,4.3555,4.3359,4.3393,4.4554,4.7284,4.8824,5.159,5.6109,5.9805,6.2761,6.491,6.6628,6.809,6.9244,7.0052,7.0629,7.0898,7.1475,7.1745,7.1783,7.2629,7.3322,7.386,7.4437,7.5014,7.5553,7.5861,7.6015,7.6015,7.6015,7.6015,7.6015,7.6015,7.6015,7.6092,7.663,7.7053,7.74,7.79,7.8054,7.7977,7.7438,7.7438,7.7476,7.6976,7.7438,7.8207,7.8784,7.8707,7.8631,7.9208,7.89,7.8446,7.8267,7.8384,7.8369,7.7828,7.8615,7.9323,7.9323,8.0054,8.0746,8.1054,8.1093,8.1093,8.1093,8.1093,8.0991,8.0767,8.075,8.0643,8.0445,8.0046,7.9806,7.9806,7.9221,7.8865,7.8865,7.8678,7.8352,7.796,7.7932,7.7739,7.7273,7.7273,7.7273,7.7273,7.7273,7.7273]}]]